Darstellungsparameter: Aktuell verwendete Einstellungen:
Skalierung der Graphiken ... ?
xyx+y,   Skalierungsfaktor:      Skalierung: Modus: x, Faktor: 1
Darstellungszeitraum ... ?
Vom - - bis: - -   Zeitraum: 28.12.2020 - 16.04.2021
Min/Max/Avg-Anzeige ... ?
Zeige MMA aktuell
Zeige MMA Monat
Zeige MMA alles
Zeige --A aktuell
Zeige --A Monat
Zeige --A alles
Keine MMA-Anzeige
MMA:
Minimum Maximum Average (ber die Originaldaten)
MMA-Basis: 27.05.2020 - 29.06.2020
Quicknavigation für Darstellung... ?
Tage:      1T, 2T, 3T, 5T -1T -2T -3T -5T +1T +2T +3T +5T
Wochen: 1W, 2W, 3W -1W -2W -3W +1W +2W +3W
Monate: 1M, 3M, 6M -1M -3M -6M +1M +3M +6M
Jahre:    1J, 3J, 5J, 10J -1J -3J -5J -10J +1J +3J +5J +10J
Nutze für die Darstellung ... ?
Originaldaten oder Mittelwerte auf ...
Stundenbasis Tagesbasis Wochenbasis
Monatsbasis Jahresbasis      Datenbasis: Original-Daten
Darstellen als:
Statistik (Auto) Statistik J:M      Darstellung:
Zur Graphik,    zurück zur Übersicht aller Sensoren.
 
Tabellarische Datenbersicht: ?
 
Sensor: Nr:Datum:Temp:Abs-Feuchte:Windchill:Wind:
Aussen-T/F 1 28-12-2020 00:00:00 4.1 C 6.14 g/m*3 4.1 C 0 km/h
2 28-12-2020 00:05:00 4.1 C 6.14 g/m*3 4.1 C 0 km/h
3 28-12-2020 00:10:00 4.1 C 6.14 g/m*3 4.1 C 3.2 km/h
4 28-12-2020 00:15:00 4.1 C 6.14 g/m*3 4.1 C 0 km/h
5 28-12-2020 00:20:00 4.1 C 6.14 g/m*3 4.1 C 0 km/h
6 28-12-2020 00:25:00 4.1 C 6.14 g/m*3 4.1 C 4.8 km/h
7 28-12-2020 00:30:00 4.2 C 6.19 g/m*3 4.2 C 4.8 km/h
8 28-12-2020 00:35:00 4.2 C 6.19 g/m*3 4.2 C 0 km/h
9 28-12-2020 00:40:00 4.2 C 6.19 g/m*3 4.2 C 3.2 km/h
10 28-12-2020 00:45:00 4.2 C 6.19 g/m*3 4.2 C 3.2 km/h
11 28-12-2020 00:50:00 4.2 C 6.19 g/m*3 4.2 C 0 km/h
12 28-12-2020 00:55:00 4.2 C 6.19 g/m*3 4.2 C 0 km/h
13 28-12-2020 01:00:00 4.2 C 6.19 g/m*3 4.2 C 3.2 km/h
14 28-12-2020 01:05:00 4.2 C 6.19 g/m*3 4.2 C 0 km/h
15 28-12-2020 01:10:00 4.2 C 6.19 g/m*3 4.2 C 0 km/h
16 28-12-2020 01:15:00 4.2 C 6.19 g/m*3 4.2 C 1.6 km/h
17 28-12-2020 01:20:00 4.2 C 6.19 g/m*3 4.2 C 0 km/h
18 28-12-2020 01:25:00 4.2 C 6.19 g/m*3 4.2 C 0 km/h
19 28-12-2020 01:30:00 4.1 C 6.14 g/m*3 4.1 C 0 km/h
20 28-12-2020 01:35:00 4.1 C 6.14 g/m*3 4.1 C 0 km/h
21 28-12-2020 01:40:00 4.1 C 6.14 g/m*3 4.1 C 0 km/h
22 28-12-2020 01:45:00 4 C 6.1 g/m*3 4 C 0 km/h
23 28-12-2020 01:50:00 4 C 6.1 g/m*3 4 C 0 km/h
24 28-12-2020 01:55:00 3.9 C 6.06 g/m*3 3.9 C 3.2 km/h
25 28-12-2020 02:00:00 3.9 C 6.06 g/m*3 3.9 C 0 km/h
Sensor: Nr:Datum:Temp:Abs-Feuchte:Windchill:Wind:
Aussen-T/F 26 28-12-2020 02:05:00 3.9 C 6.06 g/m*3 3.9 C 1.6 km/h
27 28-12-2020 02:10:00 3.9 C 6.06 g/m*3 3.9 C 0 km/h
28 28-12-2020 02:15:00 3.8 C 6.02 g/m*3 3.8 C 0 km/h
29 28-12-2020 02:20:00 3.8 C 6.02 g/m*3 3.8 C 0 km/h
30 28-12-2020 02:25:00 3.8 C 6.02 g/m*3 3.8 C 0 km/h
31 28-12-2020 02:30:00 3.8 C 6.02 g/m*3 3.8 C 0 km/h
32 28-12-2020 02:35:00 3.7 C 5.98 g/m*3 3.7 C 0 km/h
33 28-12-2020 02:40:00 3.7 C 5.98 g/m*3 3.7 C 3.2 km/h
34 28-12-2020 02:45:00 3.7 C 5.98 g/m*3 3.7 C 0 km/h
35 28-12-2020 02:50:00 3.7 C 5.98 g/m*3 3.7 C 1.6 km/h
36 28-12-2020 02:55:00 3.7 C 5.98 g/m*3 3.7 C 0 km/h
37 28-12-2020 03:00:00 3.7 C 5.98 g/m*3 3.7 C 0 km/h
38 28-12-2020 03:05:00 3.6 C 5.94 g/m*3 3.6 C 0 km/h
39 28-12-2020 03:10:00 3.6 C 5.94 g/m*3 3.6 C 0 km/h
40 28-12-2020 03:15:00 3.6 C 5.94 g/m*3 3.6 C 0 km/h
41 28-12-2020 03:20:00 3.6 C 5.94 g/m*3 3.6 C 0 km/h
42 28-12-2020 03:25:00 3.6 C 5.94 g/m*3 3.6 C 0 km/h
43 28-12-2020 03:30:00 3.6 C 5.94 g/m*3 3.6 C 0 km/h
44 28-12-2020 03:35:00 3.7 C 5.98 g/m*3 3.7 C 4.8 km/h
45 28-12-2020 03:40:00 3.7 C 6.04 g/m*3 3.7 C 4.8 km/h
46 28-12-2020 03:45:00 3.7 C 6.04 g/m*3 3.7 C 3.2 km/h
47 28-12-2020 03:50:00 3.8 C 6.09 g/m*3 3.8 C 0 km/h
48 28-12-2020 03:55:00 3.8 C 6.09 g/m*3 3.8 C 4.8 km/h
49 28-12-2020 04:00:00 3.8 C 6.09 g/m*3 3.8 C 1.6 km/h
50 28-12-2020 04:05:00 3.8 C 6.09 g/m*3 3.8 C 0 km/h
Sensor: Nr:Datum:Temp:Abs-Feuchte:Windchill:Wind:
Aussen-T/F 51 28-12-2020 04:10:00 3.7 C 6.04 g/m*3 3.7 C 0 km/h
52 28-12-2020 04:15:00 3.7 C 6.04 g/m*3 3.7 C 0 km/h
53 28-12-2020 04:20:00 3.7 C 6.04 g/m*3 3.7 C 0 km/h
54 28-12-2020 04:25:00 3.7 C 6.04 g/m*3 1.58 C 8.1 km/h
55 28-12-2020 04:30:00 3.7 C 6.04 g/m*3 1.58 C 8.1 km/h
56 28-12-2020 04:35:00 3.7 C 6.04 g/m*3 3.7 C 1.6 km/h
57 28-12-2020 04:40:00 3.7 C 5.98 g/m*3 3.7 C 0 km/h
58 28-12-2020 04:45:00 3.7 C 5.98 g/m*3 3.7 C 0 km/h
59 28-12-2020 04:50:00 3.7 C 5.98 g/m*3 3.7 C 0 km/h
60 28-12-2020 04:55:00 3.8 C 6.09 g/m*3 3.8 C 4.8 km/h
61 28-12-2020 05:00:00 3.8 C 6.09 g/m*3 3.8 C 3.2 km/h
62 28-12-2020 05:05:00 3.8 C 6.09 g/m*3 3.8 C 3.2 km/h
63 28-12-2020 05:10:00 3.8 C 6.09 g/m*3 3.8 C 0 km/h
64 28-12-2020 05:15:00 3.8 C 6.09 g/m*3 3.8 C 0 km/h
65 28-12-2020 05:20:00 3.9 C 6.13 g/m*3 3.9 C 0 km/h
66 28-12-2020 05:25:00 3.9 C 6.13 g/m*3 3.9 C 0 km/h
67 28-12-2020 05:30:00 3.9 C 6.13 g/m*3 3.9 C 0 km/h
68 28-12-2020 05:35:00 3.9 C 6.13 g/m*3 3.9 C 0 km/h
69 28-12-2020 05:40:00 3.9 C 6.13 g/m*3 3.9 C 0 km/h
70 28-12-2020 05:45:00 3.9 C 6.13 g/m*3 3.9 C 1.6 km/h
71 28-12-2020 05:50:00 3.9 C 6.13 g/m*3 3.9 C 1.6 km/h
72 28-12-2020 05:55:00 3.9 C 6.13 g/m*3 3.9 C 0 km/h
73 28-12-2020 06:00:00 3.9 C 6.13 g/m*3 3.9 C 0 km/h
74 28-12-2020 06:05:00 3.9 C 6.13 g/m*3 3.9 C 4.8 km/h
75 28-12-2020 06:10:00 3.9 C 6.13 g/m*3 3.9 C 0 km/h
Sensor: Nr:Datum:Temp:Abs-Feuchte:Windchill:Wind:
Aussen-T/F 76 28-12-2020 06:15:00 3.8 C 6.09 g/m*3 3.8 C 0 km/h
77 28-12-2020 06:20:00 3.8 C 6.09 g/m*3 3.8 C 4.8 km/h
78 28-12-2020 06:25:00 3.8 C 6.09 g/m*3 3.8 C 1.6 km/h
79 28-12-2020 06:30:00 3.8 C 6.09 g/m*3 3.8 C 0 km/h
80 28-12-2020 06:35:00 3.7 C 6.04 g/m*3 3.7 C 0 km/h
81 28-12-2020 06:40:00 3.6 C 5.94 g/m*3 3.6 C 0 km/h
82 28-12-2020 06:45:00 3.6 C 5.94 g/m*3 3.6 C 1.6 km/h
83 28-12-2020 06:50:00 3.4 C 5.86 g/m*3 3.4 C 0 km/h
84 28-12-2020 06:55:00 3.4 C 5.86 g/m*3 3.4 C 0 km/h
85 28-12-2020 07:00:00 3.4 C 5.86 g/m*3 3.4 C 0 km/h
86 28-12-2020 07:05:00 3.4 C 5.86 g/m*3 3.4 C 0 km/h
87 28-12-2020 07:10:00 3.4 C 5.92 g/m*3 3.4 C 0 km/h
88 28-12-2020 07:15:00 3.4 C 5.86 g/m*3 3.4 C 0 km/h
89 28-12-2020 07:20:00 3.3 C 5.82 g/m*3 3.3 C 0 km/h
90 28-12-2020 07:25:00 3.1 C 5.75 g/m*3 3.1 C 1.6 km/h
91 28-12-2020 07:30:00 2.9 C 5.67 g/m*3 2.9 C 3.2 km/h
92 28-12-2020 07:35:00 2.9 C 5.67 g/m*3 2.9 C 3.2 km/h
93 28-12-2020 07:40:00 2.8 C 5.63 g/m*3 2.8 C 0 km/h
94 28-12-2020 07:45:00 2.8 C 5.63 g/m*3 2.8 C 0 km/h
95 28-12-2020 07:50:00 2.8 C 5.63 g/m*3 2.8 C 0 km/h
96 28-12-2020 07:55:00 2.8 C 5.63 g/m*3 2.8 C 1.6 km/h
97 28-12-2020 08:00:00 2.8 C 5.63 g/m*3 2.8 C 0 km/h
98 28-12-2020 08:05:00 2.6 C 5.56 g/m*3 2.6 C 1.6 km/h
99 28-12-2020 08:10:00 2.4 C 5.48 g/m*3 2.4 C 1.6 km/h
100 28-12-2020 08:15:00 2.2 C 5.41 g/m*3 2.2 C 1.6 km/h
Sensor: Nr:Datum:Temp:Abs-Feuchte:Windchill:Wind:
Aussen-T/F 101 28-12-2020 08:20:00 2.1 C 5.37 g/m*3 2.1 C 4.8 km/h
102 28-12-2020 08:25:00 1.9 C 5.3 g/m*3 1.9 C 1.6 km/h
103 28-12-2020 08:30:00 1.8 C 5.26 g/m*3 1.8 C 1.6 km/h
104 28-12-2020 08:35:00 1.7 C 5.23 g/m*3 1.7 C 1.6 km/h
105 28-12-2020 08:40:00 1.6 C 5.19 g/m*3 1.6 C 3.2 km/h
106 28-12-2020 08:45:00 1.6 C 5.19 g/m*3 1.6 C 3.2 km/h
107 28-12-2020 08:50:00 1.6 C 5.19 g/m*3 1.6 C 4.8 km/h
108 28-12-2020 08:55:00 1.7 C 5.23 g/m*3 1.7 C 3.2 km/h
109 28-12-2020 09:00:00 1.8 C 5.32 g/m*3 1.8 C 1.6 km/h
110 28-12-2020 09:05:00 1.9 C 5.35 g/m*3 1.9 C 1.6 km/h
111 28-12-2020 09:10:00 2.1 C 5.43 g/m*3 2.1 C 3.2 km/h
112 28-12-2020 09:15:00 2.2 C 5.46 g/m*3 2.2 C 3.2 km/h
113 28-12-2020 09:20:00 2.4 C 5.54 g/m*3 2.4 C 1.6 km/h
114 28-12-2020 09:25:00 2.5 C 5.58 g/m*3 2.5 C 0 km/h
115 28-12-2020 09:30:00 2.7 C 5.65 g/m*3 2.7 C 0 km/h
116 28-12-2020 09:35:00 2.8 C 5.69 g/m*3 2.8 C 0 km/h
117 28-12-2020 09:40:00 2.9 C 5.73 g/m*3 2.9 C 0 km/h
118 28-12-2020 09:45:00 3 C 5.77 g/m*3 3 C 0 km/h
119 28-12-2020 09:50:00 3.1 C 5.81 g/m*3 3.1 C 0 km/h
120 28-12-2020 09:55:00 3.2 C 5.85 g/m*3 3.2 C 0 km/h
121 28-12-2020 10:00:00 3.3 C 5.88 g/m*3 3.3 C 0 km/h
122 28-12-2020 10:05:00 3.4 C 5.92 g/m*3 3.4 C 0 km/h
123 28-12-2020 10:10:00 3.4 C 5.92 g/m*3 3.4 C 0 km/h
124 28-12-2020 10:15:00 3.6 C 6 g/m*3 3.6 C 0 km/h
125 28-12-2020 10:20:00 3.7 C 6.04 g/m*3 3.7 C 0 km/h
Sensor: Nr:Datum:Temp:Abs-Feuchte:Windchill:Wind:
Aussen-T/F 126 28-12-2020 10:25:00 3.8 C 6.09 g/m*3 3.8 C 0 km/h
127 28-12-2020 10:30:00 3.8 C 6.09 g/m*3 3.8 C 0 km/h
128 28-12-2020 10:35:00 3.9 C 6.13 g/m*3 3.9 C 0 km/h
129 28-12-2020 10:40:00 4.1 C 6.21 g/m*3 4.1 C 0 km/h
130 28-12-2020 10:45:00 4.1 C 6.21 g/m*3 4.1 C 0 km/h
131 28-12-2020 10:50:00 4.2 C 6.25 g/m*3 4.2 C 0 km/h
132 28-12-2020 10:55:00 4.3 C 6.29 g/m*3 4.3 C 0 km/h
133 28-12-2020 11:00:00 4.4 C 6.33 g/m*3 4.4 C 0 km/h
134 28-12-2020 11:05:00 4.4 C 6.33 g/m*3 4.4 C 0 km/h
135 28-12-2020 11:10:00 4.4 C 6.33 g/m*3 4.4 C 0 km/h
136 28-12-2020 11:15:00 4.5 C 6.38 g/m*3 4.5 C 0 km/h
137 28-12-2020 11:20:00 4.6 C 6.42 g/m*3 4.6 C 0 km/h
138 28-12-2020 11:25:00 4.6 C 6.42 g/m*3 4.6 C 0 km/h
139 28-12-2020 11:30:00 4.7 C 6.46 g/m*3 4.7 C 0 km/h
140 28-12-2020 11:35:00 4.7 C 6.46 g/m*3 4.7 C 3.2 km/h
141 28-12-2020 11:40:00 4.7 C 6.46 g/m*3 4.7 C 0 km/h
142 28-12-2020 11:45:00 4.7 C 6.46 g/m*3 4.7 C 0 km/h
143 28-12-2020 11:50:00 4.7 C 6.46 g/m*3 4.7 C 0 km/h
144 28-12-2020 11:55:00 4.7 C 6.46 g/m*3 4.7 C 4.8 km/h
145 28-12-2020 12:00:00 4.7 C 6.39 g/m*3 4.7 C 4.8 km/h
146 28-12-2020 12:05:00 4.8 C 6.44 g/m*3 4.8 C 1.6 km/h
147 28-12-2020 12:10:00 4.8 C 6.44 g/m*3 4.8 C 3.2 km/h
148 28-12-2020 12:15:00 4.9 C 6.48 g/m*3 4.9 C 1.6 km/h
149 28-12-2020 12:20:00 5 C 6.52 g/m*3 5 C 4.8 km/h
150 28-12-2020 12:25:00 5 C 6.46 g/m*3 5 C 3.2 km/h
Sensor: Nr:Datum:Temp:Abs-Feuchte:Windchill:Wind:
Aussen-T/F 151 28-12-2020 12:30:00 5.1 C 6.5 g/m*3 3.71 C 6.4 km/h
152 28-12-2020 12:35:00 5.2 C 6.54 g/m*3 5.2 C 3.2 km/h
153 28-12-2020 12:40:00 5.2 C 6.54 g/m*3 5.2 C 3.2 km/h
154 28-12-2020 12:45:00 5.2 C 6.54 g/m*3 5.2 C 1.6 km/h
155 28-12-2020 12:50:00 5.3 C 6.52 g/m*3 5.3 C 4.8 km/h
156 28-12-2020 12:55:00 5.3 C 6.52 g/m*3 5.3 C 1.6 km/h
157 28-12-2020 13:00:00 5.4 C 6.56 g/m*3 5.4 C 0 km/h
158 28-12-2020 13:05:00 5.4 C 6.56 g/m*3 5.4 C 4.8 km/h
159 28-12-2020 13:10:00 5.4 C 6.49 g/m*3 5.4 C 1.6 km/h
160 28-12-2020 13:15:00 5.5 C 6.53 g/m*3 5.5 C 1.6 km/h
161 28-12-2020 13:20:00 5.6 C 6.57 g/m*3 5.6 C 0 km/h
162 28-12-2020 13:25:00 5.6 C 6.57 g/m*3 5.6 C 0 km/h
163 28-12-2020 13:30:00 5.7 C 6.62 g/m*3 5.7 C 0 km/h
164 28-12-2020 13:35:00 5.7 C 6.62 g/m*3 5.7 C 0 km/h
165 28-12-2020 13:40:00 5.7 C 6.62 g/m*3 5.7 C 0 km/h
166 28-12-2020 13:45:00 5.7 C 6.62 g/m*3 5.7 C 1.6 km/h
167 28-12-2020 13:50:00 5.7 C 6.62 g/m*3 5.7 C 0 km/h
168 28-12-2020 13:55:00 5.7 C 6.69 g/m*3 5.7 C 0 km/h
169 28-12-2020 14:00:00 5.7 C 6.69 g/m*3 5.7 C 0 km/h
170 28-12-2020 14:05:00 5.7 C 6.69 g/m*3 5.7 C 0 km/h
171 28-12-2020 14:10:00 5.8 C 6.73 g/m*3 5.8 C 0 km/h
172 28-12-2020 14:15:00 5.8 C 6.73 g/m*3 5.8 C 0 km/h
173 28-12-2020 14:20:00 5.8 C 6.73 g/m*3 5.8 C 0 km/h
174 28-12-2020 14:25:00 5.8 C 6.73 g/m*3 5.8 C 1.6 km/h
175 28-12-2020 14:30:00 5.7 C 6.69 g/m*3 5.7 C 0 km/h
Sensor: Nr:Datum:Temp:Abs-Feuchte:Windchill:Wind:
Aussen-T/F 176 28-12-2020 14:35:00 5.7 C 6.69 g/m*3 5.7 C 3.2 km/h
177 28-12-2020 14:40:00 5.6 C 6.65 g/m*3 5.6 C 3.2 km/h
178 28-12-2020 14:45:00 5.6 C 6.65 g/m*3 5.6 C 3.2 km/h
179 28-12-2020 14:50:00 5.5 C 6.6 g/m*3 5.5 C 1.6 km/h
180 28-12-2020 14:55:00 5.4 C 6.56 g/m*3 5.4 C 0 km/h
181 28-12-2020 15:00:00 5.4 C 6.56 g/m*3 5.4 C 1.6 km/h
182 28-12-2020 15:05:00 5.4 C 6.56 g/m*3 5.4 C 1.6 km/h
183 28-12-2020 15:10:00 5.4 C 6.56 g/m*3 5.4 C 0 km/h
184 28-12-2020 15:15:00 5.3 C 6.52 g/m*3 3.94 C 6.4 km/h
185 28-12-2020 15:20:00 5.3 C 6.52 g/m*3 5.3 C 4.8 km/h
186 28-12-2020 15:25:00 5.2 C 6.47 g/m*3 2.63 C 11.3 km/h
187 28-12-2020 15:30:00 5.1 C 6.43 g/m*3 2.51 C 11.3 km/h
188 28-12-2020 15:35:00 5 C 6.39 g/m*3 5 C 1.6 km/h
189 28-12-2020 15:40:00 5 C 6.39 g/m*3 5 C 0 km/h
190 28-12-2020 15:45:00 4.9 C 6.35 g/m*3 4.9 C 0 km/h
191 28-12-2020 15:50:00 4.9 C 6.35 g/m*3 4.9 C 0 km/h
192 28-12-2020 15:55:00 4.9 C 6.35 g/m*3 4.9 C 3.2 km/h
193 28-12-2020 16:00:00 4.9 C 6.35 g/m*3 4.9 C 0 km/h
194 28-12-2020 16:05:00 4.9 C 6.41 g/m*3 4.9 C 0 km/h
195 28-12-2020 16:10:00 4.9 C 6.41 g/m*3 4.9 C 1.6 km/h
196 28-12-2020 16:15:00 4.9 C 6.41 g/m*3 4.9 C 0 km/h
197 28-12-2020 16:20:00 4.8 C 6.37 g/m*3 4.8 C 4.8 km/h
198 28-12-2020 16:25:00 4.8 C 6.3 g/m*3 4.8 C 1.6 km/h
199 28-12-2020 16:30:00 4.7 C 6.26 g/m*3 3.25 C 6.4 km/h
200 28-12-2020 16:35:00 4.7 C 6.26 g/m*3 2.37 C 9.7 km/h
Sensor: Nr:Datum:Temp:Abs-Feuchte:Windchill:Wind:
Aussen-T/F 201 28-12-2020 16:40:00 4.6 C 6.22 g/m*3 4.6 C 1.6 km/h
202 28-12-2020 16:45:00 4.5 C 6.18 g/m*3 4.5 C 4.8 km/h
203 28-12-2020 16:50:00 4.3 C 6.1 g/m*3 2.78 C 6.4 km/h
204 28-12-2020 16:55:00 4.2 C 6.06 g/m*3 4.2 C 4.8 km/h
205 28-12-2020 17:00:00 4.2 C 6.06 g/m*3 4.2 C 4.8 km/h
206 28-12-2020 17:05:00 4.1 C 6.02 g/m*3 4.1 C 3.2 km/h
207 28-12-2020 17:10:00 4.1 C 6.02 g/m*3 4.1 C 1.6 km/h
208 28-12-2020 17:15:00 4.1 C 6.02 g/m*3 4.1 C 0 km/h
209 28-12-2020 17:20:00 4.1 C 6.08 g/m*3 4.1 C 0 km/h
210 28-12-2020 17:25:00 4 C 6.04 g/m*3 4 C 0 km/h
211 28-12-2020 17:30:00 4 C 6.04 g/m*3 4 C 0 km/h
212 28-12-2020 17:35:00 4 C 6.04 g/m*3 4 C 0 km/h
213 28-12-2020 17:40:00 3.9 C 6 g/m*3 3.9 C 0 km/h
214 28-12-2020 17:45:00 3.9 C 6 g/m*3 3.9 C 0 km/h
215 28-12-2020 17:50:00 3.9 C 6 g/m*3 3.9 C 0 km/h
216 28-12-2020 17:55:00 3.9 C 6 g/m*3 3.9 C 0 km/h
217 28-12-2020 18:00:00 3.9 C 6 g/m*3 3.9 C 0 km/h
218 28-12-2020 18:05:00 3.9 C 6 g/m*3 3.9 C 1.6 km/h
219 28-12-2020 18:10:00 3.9 C 6 g/m*3 3.9 C 0 km/h
220 28-12-2020 18:15:00 3.9 C 6 g/m*3 3.9 C 1.6 km/h
221 28-12-2020 18:20:00 3.9 C 6 g/m*3 3.9 C 0 km/h
222 28-12-2020 18:25:00 3.9 C 6.06 g/m*3 3.9 C 0 km/h
223 28-12-2020 18:30:00 3.9 C 6.06 g/m*3 3.9 C 0 km/h
224 28-12-2020 18:35:00 3.9 C 6.06 g/m*3 3.9 C 1.6 km/h
225 28-12-2020 18:40:00 3.8 C 6.02 g/m*3 3.8 C 0 km/h
Sensor: Nr:Datum:Temp:Abs-Feuchte:Windchill:Wind:
Aussen-T/F 226 28-12-2020 18:45:00 3.7 C 5.92 g/m*3 3.7 C 0 km/h
227 28-12-2020 18:50:00 3.6 C 5.88 g/m*3 3.6 C 0 km/h
228 28-12-2020 18:55:00 3.5 C 5.84 g/m*3 3.5 C 0 km/h
229 28-12-2020 19:00:00 3.4 C 5.8 g/m*3 3.4 C 0 km/h
230 28-12-2020 19:05:00 3.4 C 5.8 g/m*3 3.4 C 0 km/h
231 28-12-2020 19:10:00 3.3 C 5.76 g/m*3 3.3 C 0 km/h
232 28-12-2020 19:15:00 3.2 C 5.72 g/m*3 3.2 C 4.8 km/h
233 28-12-2020 19:20:00 3.2 C 5.72 g/m*3 3.2 C 4.8 km/h
234 28-12-2020 19:25:00 3.2 C 5.79 g/m*3 3.2 C 4.8 km/h
235 28-12-2020 19:30:00 3.3 C 5.82 g/m*3 3.3 C 3.2 km/h
236 28-12-2020 19:35:00 3.3 C 5.82 g/m*3 3.3 C 1.6 km/h
237 28-12-2020 19:40:00 3.3 C 5.82 g/m*3 3.3 C 1.6 km/h
238 28-12-2020 19:45:00 3.2 C 5.79 g/m*3 3.2 C 0 km/h
239 28-12-2020 19:50:00 3 C 5.65 g/m*3 3 C 0 km/h
240 28-12-2020 19:55:00 2.8 C 5.57 g/m*3 2.8 C 0 km/h
241 28-12-2020 20:00:00 2.6 C 5.5 g/m*3 2.6 C 3.2 km/h
242 28-12-2020 20:05:00 2.3 C 5.39 g/m*3 2.3 C 3.2 km/h
243 28-12-2020 20:10:00 2.1 C 5.26 g/m*3 2.1 C 3.2 km/h
244 28-12-2020 20:15:00 1.8 C 5.21 g/m*3 1.8 C 3.2 km/h
245 28-12-2020 20:20:00 1.7 C 5.17 g/m*3 1.7 C 3.2 km/h
246 28-12-2020 20:25:00 1.6 C 5.14 g/m*3 1.6 C 4.8 km/h
247 28-12-2020 20:30:00 1.6 C 5.14 g/m*3 1.6 C 3.2 km/h
248 28-12-2020 20:35:00 1.7 C 5.17 g/m*3 1.7 C 0 km/h
249 28-12-2020 20:40:00 1.8 C 5.26 g/m*3 1.8 C 0 km/h
250 28-12-2020 20:45:00 1.9 C 5.3 g/m*3 1.9 C 0 km/h
Sensor: Nr:Datum:Temp:Abs-Feuchte:Windchill:Wind:
Aussen-T/F 251 28-12-2020 20:50:00 2.1 C 5.37 g/m*3 2.1 C 0 km/h
252 28-12-2020 20:55:00 2.2 C 5.41 g/m*3 2.2 C 0 km/h
253 28-12-2020 21:00:00 2.3 C 5.44 g/m*3 2.3 C 0 km/h
254 28-12-2020 21:05:00 2.5 C 5.52 g/m*3 2.5 C 0 km/h
255 28-12-2020 21:10:00 2.6 C 5.56 g/m*3 2.6 C 0 km/h
256 28-12-2020 21:15:00 2.6 C 5.56 g/m*3 2.6 C 0 km/h
257 28-12-2020 21:20:00 2.7 C 5.59 g/m*3 2.7 C 0 km/h
258 28-12-2020 21:25:00 2.7 C 5.59 g/m*3 2.7 C 0 km/h
259 28-12-2020 21:30:00 2.7 C 5.59 g/m*3 2.7 C 0 km/h
260 28-12-2020 21:35:00 2.8 C 5.69 g/m*3 2.8 C 0 km/h
261 28-12-2020 21:40:00 2.8 C 5.63 g/m*3 2.8 C 0 km/h
262 28-12-2020 21:45:00 2.7 C 5.59 g/m*3 2.7 C 0 km/h
263 28-12-2020 21:50:00 2.7 C 5.59 g/m*3 2.7 C 0 km/h
264 28-12-2020 21:55:00 2.6 C 5.56 g/m*3 2.6 C 0 km/h
265 28-12-2020 22:00:00 2.3 C 5.44 g/m*3 2.3 C 0 km/h
266 28-12-2020 22:05:00 2.1 C 5.37 g/m*3 2.1 C 3.2 km/h
267 28-12-2020 22:10:00 1.8 C 5.26 g/m*3 1.8 C 3.2 km/h
268 28-12-2020 22:15:00 1.7 C 5.17 g/m*3 1.7 C 3.2 km/h
269 28-12-2020 22:20:00 1.5 C 5.16 g/m*3 1.5 C 4.8 km/h
270 28-12-2020 22:25:00 1.4 C 5.07 g/m*3 1.4 C 4.8 km/h
271 28-12-2020 22:30:00 1.4 C 5.12 g/m*3 1.4 C 1.6 km/h
272 28-12-2020 22:35:00 1.4 C 5.12 g/m*3 1.4 C 4.8 km/h
273 28-12-2020 22:40:00 1.4 C 5.12 g/m*3 1.4 C 0 km/h
274 28-12-2020 22:45:00 1.5 C 5.16 g/m*3 1.5 C 0 km/h
275 28-12-2020 22:50:00 1.6 C 5.19 g/m*3 1.6 C 0 km/h
Sensor: Nr:Datum:Temp:Abs-Feuchte:Windchill:Wind:
Aussen-T/F 276 28-12-2020 22:55:00 1.6 C 5.19 g/m*3 1.6 C 0 km/h
277 28-12-2020 23:00:00 1.6 C 5.19 g/m*3 1.6 C 0 km/h
278 28-12-2020 23:05:00 1.5 C 5.16 g/m*3 1.5 C 0 km/h
279 28-12-2020 23:10:00 1.4 C 5.12 g/m*3 1.4 C 0 km/h
280 28-12-2020 23:15:00 1.4 C 5.12 g/m*3 1.4 C 0 km/h
281 28-12-2020 23:20:00 1.4 C 5.12 g/m*3 1.4 C 0 km/h
282 28-12-2020 23:25:00 1.4 C 5.12 g/m*3 1.4 C 4.8 km/h
283 28-12-2020 23:30:00 1.6 C 5.19 g/m*3 1.6 C 4.8 km/h
284 28-12-2020 23:35:00 1.7 C 5.23 g/m*3 -0.22 C 6.4 km/h
285 28-12-2020 23:40:00 1.9 C 5.35 g/m*3 1.9 C 3.2 km/h
286 28-12-2020 23:45:00 2.1 C 5.43 g/m*3 2.1 C 1.6 km/h
287 28-12-2020 23:50:00 2.2 C 5.46 g/m*3 2.2 C 3.2 km/h
288 28-12-2020 23:55:00 2.3 C 5.5 g/m*3 2.3 C 1.6 km/h
289 29-12-2020 00:00:00 2.4 C 5.54 g/m*3 2.4 C 1.6 km/h
290 29-12-2020 00:05:00 2.5 C 5.58 g/m*3 2.5 C 4.8 km/h
291 29-12-2020 00:10:00 2.5 C 5.58 g/m*3 2.5 C 0 km/h
292 29-12-2020 00:15:00 2.6 C 5.61 g/m*3 2.6 C 0 km/h
293 29-12-2020 00:20:00 2.6 C 5.61 g/m*3 0.29 C 8.1 km/h
294 29-12-2020 00:25:00 2.6 C 5.61 g/m*3 2.6 C 0 km/h
295 29-12-2020 00:30:00 2.6 C 5.61 g/m*3 2.6 C 4.8 km/h
296 29-12-2020 00:35:00 2.7 C 5.65 g/m*3 2.7 C 3.2 km/h
297 29-12-2020 00:40:00 2.7 C 5.59 g/m*3 2.7 C 0 km/h
298 29-12-2020 00:45:00 2.6 C 5.56 g/m*3 2.6 C 0 km/h
299 29-12-2020 00:50:00 2.6 C 5.56 g/m*3 2.6 C 0 km/h
300 29-12-2020 00:55:00 2.6 C 5.56 g/m*3 2.6 C 0 km/h
Sensor: Nr:Datum:Temp:Abs-Feuchte:Windchill:Wind:
Aussen-T/F 301 29-12-2020 01:00:00 2.6 C 5.56 g/m*3 2.6 C 0 km/h
302 29-12-2020 01:05:00 2.6 C 5.56 g/m*3 2.6 C 0 km/h
303 29-12-2020 01:10:00 2.6 C 5.56 g/m*3 2.6 C 0 km/h
304 29-12-2020 01:15:00 2.6 C 5.56 g/m*3 2.6 C 0 km/h
305 29-12-2020 01:20:00 2.6 C 5.56 g/m*3 2.6 C 0 km/h
306 29-12-2020 01:25:00 2.6 C 5.56 g/m*3 2.6 C 0 km/h
307 29-12-2020 01:30:00 2.6 C 5.56 g/m*3 2.6 C 0 km/h
308 29-12-2020 01:35:00 2.6 C 5.56 g/m*3 2.6 C 0 km/h
309 29-12-2020 01:40:00 2.6 C 5.56 g/m*3 2.6 C 0 km/h
310 29-12-2020 01:45:00 2.6 C 5.56 g/m*3 2.6 C 0 km/h
311 29-12-2020 01:50:00 2.6 C 5.56 g/m*3 2.6 C 4.8 km/h
312 29-12-2020 01:55:00 2.6 C 5.56 g/m*3 2.6 C 4.8 km/h
313 29-12-2020 02:00:00 2.6 C 5.56 g/m*3 2.6 C 4.8 km/h
314 29-12-2020 02:05:00 2.6 C 5.56 g/m*3 2.6 C 3.2 km/h
315 29-12-2020 02:10:00 2.6 C 5.56 g/m*3 2.6 C 4.8 km/h
316 29-12-2020 02:15:00 2.6 C 5.56 g/m*3 2.6 C 0 km/h
317 29-12-2020 02:20:00 2.6 C 5.56 g/m*3 2.6 C 1.6 km/h
318 29-12-2020 02:25:00 2.6 C 5.56 g/m*3 2.6 C 3.2 km/h
319 29-12-2020 02:30:00 2.7 C 5.59 g/m*3 2.7 C 3.2 km/h
320 29-12-2020 02:35:00 2.6 C 5.56 g/m*3 2.6 C 1.6 km/h
321 29-12-2020 02:40:00 2.6 C 5.56 g/m*3 2.6 C 4.8 km/h
322 29-12-2020 02:45:00 2.6 C 5.56 g/m*3 2.6 C 4.8 km/h
323 29-12-2020 02:50:00 2.5 C 5.52 g/m*3 2.5 C 3.2 km/h
324 29-12-2020 02:55:00 2.4 C 5.48 g/m*3 2.4 C 4.8 km/h
325 29-12-2020 03:00:00 2.4 C 5.48 g/m*3 0.59 C 6.4 km/h
Sensor: Nr:Datum:Temp:Abs-Feuchte:Windchill:Wind:
Aussen-T/F 326 29-12-2020 03:05:00 2.4 C 5.48 g/m*3 2.4 C 1.6 km/h
327 29-12-2020 03:10:00 2.3 C 5.44 g/m*3 2.3 C 3.2 km/h
328 29-12-2020 03:15:00 2.2 C 5.41 g/m*3 2.2 C 0 km/h
329 29-12-2020 03:20:00 2 C 5.28 g/m*3 2 C 1.6 km/h
330 29-12-2020 03:25:00 1.8 C 5.21 g/m*3 1.8 C 4.8 km/h
331 29-12-2020 03:30:00 1.7 C 5.17 g/m*3 1.7 C 3.2 km/h
332 29-12-2020 03:35:00 1.6 C 5.14 g/m*3 1.6 C 3.2 km/h
333 29-12-2020 03:40:00 1.5 C 5.16 g/m*3 1.5 C 1.6 km/h
334 29-12-2020 03:45:00 1.4 C 5.07 g/m*3 1.4 C 1.6 km/h
335 29-12-2020 03:50:00 1.5 C 5.16 g/m*3 1.5 C 1.6 km/h
336 29-12-2020 03:55:00 1.6 C 5.19 g/m*3 1.6 C 0 km/h
337 29-12-2020 04:00:00 1.6 C 5.19 g/m*3 1.6 C 0 km/h
338 29-12-2020 04:05:00 1.7 C 5.23 g/m*3 1.7 C 0 km/h
339 29-12-2020 04:10:00 1.8 C 5.26 g/m*3 1.8 C 0 km/h
340 29-12-2020 04:15:00 1.8 C 5.26 g/m*3 1.8 C 0 km/h
341 29-12-2020 04:20:00 1.9 C 5.3 g/m*3 1.9 C 0 km/h
342 29-12-2020 04:25:00 2 C 5.33 g/m*3 2 C 0 km/h
343 29-12-2020 04:30:00 2.1 C 5.37 g/m*3 2.1 C 0 km/h
344 29-12-2020 04:35:00 2.1 C 5.37 g/m*3 2.1 C 0 km/h
345 29-12-2020 04:40:00 2.2 C 5.46 g/m*3 2.2 C 0 km/h
346 29-12-2020 04:45:00 2.2 C 5.46 g/m*3 2.2 C 0 km/h
347 29-12-2020 04:50:00 2.3 C 5.5 g/m*3 2.3 C 0 km/h
348 29-12-2020 04:55:00 2.3 C 5.44 g/m*3 2.3 C 0 km/h
349 29-12-2020 05:00:00 2.3 C 5.44 g/m*3 2.3 C 0 km/h
350 29-12-2020 05:05:00 2.4 C 5.48 g/m*3 2.4 C 0 km/h
Sensor: Nr:Datum:Temp:Abs-Feuchte:Windchill:Wind:
Aussen-T/F 351 29-12-2020 05:10:00 2.4 C 5.48 g/m*3 2.4 C 0 km/h
352 29-12-2020 05:15:00 2.4 C 5.48 g/m*3 2.4 C 0 km/h
353 29-12-2020 05:20:00 2.4 C 5.48 g/m*3 2.4 C 0 km/h
354 29-12-2020 05:25:00 2.4 C 5.48 g/m*3 2.4 C 0 km/h
355 29-12-2020 05:30:00 2.4 C 5.48 g/m*3 2.4 C 0 km/h
356 29-12-2020 05:35:00 2.4 C 5.48 g/m*3 2.4 C 0 km/h
357 29-12-2020 05:40:00 2.4 C 5.48 g/m*3 2.4 C 0 km/h
358 29-12-2020 05:45:00 2.4 C 5.48 g/m*3 2.4 C 0 km/h
359 29-12-2020 05:50:00 2.4 C 5.48 g/m*3 2.4 C 0 km/h
360 29-12-2020 05:55:00 2.4 C 5.48 g/m*3 2.4 C 0 km/h
361 29-12-2020 06:00:00 2.4 C 5.48 g/m*3 2.4 C 0 km/h
362 29-12-2020 06:05:00 2.4 C 5.48 g/m*3 2.4 C 0 km/h
363 29-12-2020 06:10:00 2.4 C 5.48 g/m*3 2.4 C 0 km/h
364 29-12-2020 06:15:00 2.3 C 5.44 g/m*3 2.3 C 0 km/h
365 29-12-2020 06:20:00 2.3 C 5.44 g/m*3 2.3 C 0 km/h
366 29-12-2020 06:25:00 2.4 C 5.48 g/m*3 2.4 C 0 km/h
367 29-12-2020 06:30:00 2.4 C 5.54 g/m*3 0.59 C 6.4 km/h
368 29-12-2020 06:35:00 2.4 C 5.54 g/m*3 2.4 C 4.8 km/h
369 29-12-2020 06:40:00 2.4 C 5.54 g/m*3 2.4 C 4.8 km/h
370 29-12-2020 06:45:00 2.4 C 5.54 g/m*3 2.4 C 1.6 km/h
371 29-12-2020 06:50:00 2.4 C 5.54 g/m*3 2.4 C 3.2 km/h
372 29-12-2020 06:55:00 2.4 C 5.54 g/m*3 2.4 C 0 km/h
373 29-12-2020 07:00:00 2.4 C 5.54 g/m*3 2.4 C 3.2 km/h
374 29-12-2020 07:05:00 2.4 C 5.54 g/m*3 2.4 C 4.8 km/h
375 29-12-2020 07:10:00 2.5 C 5.58 g/m*3 2.5 C 3.2 km/h
Sensor: Nr:Datum:Temp:Abs-Feuchte:Windchill:Wind:
Aussen-T/F 376 29-12-2020 07:15:00 2.6 C 5.61 g/m*3 2.6 C 4.8 km/h
377 29-12-2020 07:20:00 2.6 C 5.61 g/m*3 -0.14 C 9.7 km/h
378 29-12-2020 07:25:00 2.7 C 5.65 g/m*3 -0.02 C 9.7 km/h
379 29-12-2020 07:30:00 2.7 C 5.65 g/m*3 2.7 C 3.2 km/h
380 29-12-2020 07:35:00 2.7 C 5.65 g/m*3 0.94 C 6.4 km/h
381 29-12-2020 07:40:00 2.7 C 5.65 g/m*3 2.7 C 0 km/h
382 29-12-2020 07:45:00 2.8 C 5.69 g/m*3 1.05 C 6.4 km/h
383 29-12-2020 07:50:00 2.8 C 5.69 g/m*3 0.52 C 8.1 km/h
384 29-12-2020 07:55:00 2.8 C 5.69 g/m*3 2.8 C 4.8 km/h
385 29-12-2020 08:00:00 2.9 C 5.73 g/m*3 2.9 C 3.2 km/h
386 29-12-2020 08:05:00 2.9 C 5.73 g/m*3 2.9 C 4.8 km/h
387 29-12-2020 08:10:00 2.9 C 5.73 g/m*3 2.9 C 4.8 km/h
388 29-12-2020 08:15:00 2.9 C 5.73 g/m*3 2.9 C 3.2 km/h
389 29-12-2020 08:20:00 2.9 C 5.73 g/m*3 2.9 C 0 km/h
390 29-12-2020 08:25:00 2.9 C 5.73 g/m*3 2.9 C 3.2 km/h
391 29-12-2020 08:30:00 2.9 C 5.73 g/m*3 0.22 C 9.7 km/h
392 29-12-2020 08:35:00 2.9 C 5.73 g/m*3 0.64 C 8.1 km/h
393 29-12-2020 08:40:00 3 C 5.77 g/m*3 3 C 3.2 km/h
394 29-12-2020 08:45:00 3 C 5.77 g/m*3 3 C 4.8 km/h
395 29-12-2020 08:50:00 3 C 5.77 g/m*3 3 C 3.2 km/h
396 29-12-2020 08:55:00 3 C 5.77 g/m*3 3 C 3.2 km/h
397 29-12-2020 09:00:00 3.1 C 5.81 g/m*3 3.1 C 4.8 km/h
398 29-12-2020 09:05:00 3.1 C 5.81 g/m*3 0.46 C 9.7 km/h
399 29-12-2020 09:10:00 3.1 C 5.81 g/m*3 0.87 C 8.1 km/h
400 29-12-2020 09:15:00 3.1 C 5.81 g/m*3 3.1 C 3.2 km/h
Sensor: Nr:Datum:Temp:Abs-Feuchte:Windchill:Wind:
Aussen-T/F 401 29-12-2020 09:20:00 3.1 C 5.81 g/m*3 3.1 C 3.2 km/h
402 29-12-2020 09:25:00 3.2 C 5.85 g/m*3 1.51 C 6.4 km/h
403 29-12-2020 09:30:00 3.2 C 5.85 g/m*3 0.22 C 11.3 km/h
404 29-12-2020 09:35:00 3.3 C 5.88 g/m*3 1.11 C 8.1 km/h
405 29-12-2020 09:40:00 3.3 C 5.88 g/m*3 0.34 C 11.3 km/h
406 29-12-2020 09:45:00 3.3 C 5.82 g/m*3 0.7 C 9.7 km/h
407 29-12-2020 09:50:00 3.3 C 5.82 g/m*3 0.02 C 12.9 km/h
408 29-12-2020 09:55:00 3.3 C 5.82 g/m*3 0.7 C 9.7 km/h
409 29-12-2020 10:00:00 3.3 C 5.82 g/m*3 0.7 C 9.7 km/h
410 29-12-2020 10:05:00 3.4 C 5.86 g/m*3 3.4 C 1.6 km/h
411 29-12-2020 10:10:00 3.4 C 5.86 g/m*3 3.4 C 4.8 km/h
412 29-12-2020 10:15:00 3.4 C 5.86 g/m*3 3.4 C 4.8 km/h
413 29-12-2020 10:20:00 3.5 C 5.9 g/m*3 3.5 C 4.8 km/h
414 29-12-2020 10:25:00 3.6 C 5.94 g/m*3 3.6 C 3.2 km/h
415 29-12-2020 10:30:00 3.6 C 5.94 g/m*3 3.6 C 3.2 km/h
416 29-12-2020 10:35:00 3.6 C 5.94 g/m*3 1.98 C 6.4 km/h
417 29-12-2020 10:40:00 3.6 C 5.94 g/m*3 1.46 C 8.1 km/h
418 29-12-2020 10:45:00 3.6 C 5.88 g/m*3 1.98 C 6.4 km/h
419 29-12-2020 10:50:00 3.7 C 5.92 g/m*3 2.09 C 6.4 km/h
420 29-12-2020 10:55:00 3.7 C 5.92 g/m*3 0.82 C 11.3 km/h
421 29-12-2020 11:00:00 3.7 C 5.86 g/m*3 0.82 C 11.3 km/h
422 29-12-2020 11:05:00 3.8 C 5.9 g/m*3 0.63 C 12.9 km/h
423 29-12-2020 11:10:00 3.8 C 5.9 g/m*3 0.94 C 11.3 km/h
424 29-12-2020 11:15:00 3.9 C 5.94 g/m*3 1.82 C 8.1 km/h
425 29-12-2020 11:20:00 3.9 C 5.94 g/m*3 1.06 C 11.3 km/h
Sensor: Nr:Datum:Temp:Abs-Feuchte:Windchill:Wind:
Aussen-T/F 426 29-12-2020 11:25:00 4 C 5.98 g/m*3 0.88 C 12.9 km/h
427 29-12-2020 11:30:00 4.1 C 5.95 g/m*3 0.72 C 14.5 km/h
428 29-12-2020 11:35:00 4.1 C 5.89 g/m*3 1.65 C 9.7 km/h
429 29-12-2020 11:40:00 4.2 C 5.93 g/m*3 0.59 C 16.1 km/h
430 29-12-2020 11:45:00 4.2 C 5.86 g/m*3 0.36 C 17.7 km/h
431 29-12-2020 11:50:00 4.3 C 5.84 g/m*3 -0.11 C 22.5 km/h
432 29-12-2020 11:55:00 4.4 C 5.88 g/m*3 0.61 C 17.7 km/h
433 29-12-2020 12:00:00 4.5 C 5.85 g/m*3 -0.03 C 24.1 km/h
434 29-12-2020 12:05:00 4.5 C 5.92 g/m*3 2.52 C 8.1 km/h
435 29-12-2020 12:10:00 4.6 C 5.96 g/m*3 1.91 C 11.3 km/h
436 29-12-2020 12:15:00 4.6 C 5.96 g/m*3 1.34 C 14.5 km/h
437 29-12-2020 12:20:00 4.7 C 5.93 g/m*3 0.78 C 19.3 km/h
438 29-12-2020 12:25:00 4.7 C 5.93 g/m*3 2.03 C 11.3 km/h
439 29-12-2020 12:30:00 4.8 C 5.97 g/m*3 1.11 C 17.7 km/h
440 29-12-2020 12:35:00 4.9 C 6.08 g/m*3 1.7 C 14.5 km/h
441 29-12-2020 12:40:00 4.9 C 6.01 g/m*3 1.03 C 19.3 km/h
442 29-12-2020 12:45:00 5 C 6.05 g/m*3 1.58 C 16.1 km/h
443 29-12-2020 12:50:00 5.1 C 6.09 g/m*3 1.71 C 16.1 km/h
444 29-12-2020 12:55:00 5.1 C 6.09 g/m*3 2.22 C 12.9 km/h
445 29-12-2020 13:00:00 5.1 C 6.09 g/m*3 2.22 C 12.9 km/h
446 29-12-2020 13:05:00 5.1 C 6.09 g/m*3 2.51 C 11.3 km/h
447 29-12-2020 13:10:00 4.9 C 6.01 g/m*3 1.46 C 16.1 km/h
448 29-12-2020 13:15:00 5 C 5.98 g/m*3 2.09 C 12.9 km/h
449 29-12-2020 13:20:00 5.1 C 5.95 g/m*3 1.49 C 17.7 km/h
450 29-12-2020 13:25:00 5.1 C 5.88 g/m*3 1.49 C 17.7 km/h
Sensor: Nr:Datum:Temp:Abs-Feuchte:Windchill:Wind:
Aussen-T/F 451 29-12-2020 13:30:00 5.1 C 5.88 g/m*3 2.22 C 12.9 km/h
452 29-12-2020 13:35:00 5 C 5.78 g/m*3 1.36 C 17.7 km/h
453 29-12-2020 13:40:00 5 C 5.84 g/m*3 2.09 C 12.9 km/h
454 29-12-2020 13:45:00 4.9 C 5.81 g/m*3 2.27 C 11.3 km/h
455 29-12-2020 13:50:00 4.9 C 5.81 g/m*3 1.97 C 12.9 km/h
456 29-12-2020 13:55:00 4.9 C 5.81 g/m*3 1.7 C 14.5 km/h
457 29-12-2020 14:00:00 4.9 C 5.87 g/m*3 4.9 C 4.8 km/h
458 29-12-2020 14:05:00 4.9 C 5.87 g/m*3 2.61 C 9.7 km/h
459 29-12-2020 14:10:00 4.9 C 5.87 g/m*3 3.48 C 6.4 km/h
460 29-12-2020 14:15:00 4.9 C 5.87 g/m*3 2.99 C 8.1 km/h
461 29-12-2020 14:20:00 4.9 C 5.87 g/m*3 3.48 C 6.4 km/h
462 29-12-2020 14:25:00 5 C 5.84 g/m*3 2.39 C 11.3 km/h
463 29-12-2020 14:30:00 5 C 5.91 g/m*3 2.72 C 9.7 km/h
464 29-12-2020 14:35:00 5.1 C 5.95 g/m*3 3.71 C 6.4 km/h
465 29-12-2020 14:40:00 5.1 C 5.95 g/m*3 3.71 C 6.4 km/h
466 29-12-2020 14:45:00 5.1 C 5.95 g/m*3 3.71 C 6.4 km/h
467 29-12-2020 14:50:00 5.1 C 5.88 g/m*3 1.95 C 14.5 km/h
468 29-12-2020 14:55:00 5.1 C 5.95 g/m*3 2.84 C 9.7 km/h
469 29-12-2020 15:00:00 5.1 C 5.95 g/m*3 5.1 C 4.8 km/h
470 29-12-2020 15:05:00 5.1 C 6.02 g/m*3 5.1 C 4.8 km/h
471 29-12-2020 15:10:00 5.1 C 6.02 g/m*3 2.84 C 9.7 km/h
472 29-12-2020 15:15:00 5 C 6.05 g/m*3 3.11 C 8.1 km/h
473 29-12-2020 15:20:00 4.9 C 6.01 g/m*3 4.9 C 4.8 km/h
474 29-12-2020 15:25:00 4.9 C 6.08 g/m*3 4.9 C 0 km/h
475 29-12-2020 15:30:00 4.9 C 6.08 g/m*3 4.9 C 0 km/h
Sensor: Nr:Datum:Temp:Abs-Feuchte:Windchill:Wind:
Aussen-T/F 476 29-12-2020 15:35:00 4.8 C 6.04 g/m*3 4.8 C 0 km/h
477 29-12-2020 15:40:00 4.8 C 6.1 g/m*3 4.8 C 0 km/h
478 29-12-2020 15:45:00 4.8 C 6.1 g/m*3 4.8 C 0 km/h
479 29-12-2020 15:50:00 4.8 C 6.1 g/m*3 4.8 C 1.6 km/h
480 29-12-2020 15:55:00 4.7 C 6.06 g/m*3 4.7 C 0 km/h
481 29-12-2020 16:00:00 4.7 C 6.06 g/m*3 4.7 C 0 km/h
482 29-12-2020 16:05:00 4.7 C 6.06 g/m*3 4.7 C 4.8 km/h
483 29-12-2020 16:10:00 4.6 C 6.02 g/m*3 4.6 C 3.2 km/h
484 29-12-2020 16:15:00 4.5 C 6.05 g/m*3 4.5 C 4.8 km/h
485 29-12-2020 16:20:00 4.4 C 6.01 g/m*3 4.4 C 3.2 km/h
486 29-12-2020 16:25:00 4.4 C 6.01 g/m*3 4.4 C 0 km/h
487 29-12-2020 16:30:00 4.3 C 5.97 g/m*3 4.3 C 0 km/h
488 29-12-2020 16:35:00 4.2 C 5.93 g/m*3 4.2 C 4.8 km/h
489 29-12-2020 16:40:00 4.2 C 5.93 g/m*3 2.67 C 6.4 km/h
490 29-12-2020 16:45:00 4.1 C 5.89 g/m*3 4.1 C 1.6 km/h
491 29-12-2020 16:50:00 4.1 C 5.89 g/m*3 4.1 C 0 km/h
492 29-12-2020 16:55:00 4.1 C 5.89 g/m*3 4.1 C 0 km/h
493 29-12-2020 17:00:00 4 C 5.91 g/m*3 4 C 0 km/h
494 29-12-2020 17:05:00 3.9 C 5.87 g/m*3 3.9 C 3.2 km/h
495 29-12-2020 17:10:00 3.9 C 5.87 g/m*3 3.9 C 1.6 km/h
496 29-12-2020 17:15:00 3.9 C 5.87 g/m*3 3.9 C 0 km/h
497 29-12-2020 17:20:00 3.9 C 5.87 g/m*3 3.9 C 1.6 km/h
498 29-12-2020 17:25:00 3.9 C 5.87 g/m*3 3.9 C 0 km/h
499 29-12-2020 17:30:00 3.9 C 5.87 g/m*3 3.9 C 3.2 km/h
500 29-12-2020 17:35:00 3.8 C 5.83 g/m*3 3.8 C 4.8 km/h
Sensor: Nr:Datum:Temp:Abs-Feuchte:Windchill:Wind:
Aussen-T/F 501 29-12-2020 17:40:00 3.8 C 5.83 g/m*3 3.8 C 0 km/h
502 29-12-2020 17:45:00 3.8 C 5.83 g/m*3 3.8 C 1.6 km/h
503 29-12-2020 17:50:00 3.7 C 5.8 g/m*3 3.7 C 3.2 km/h
504 29-12-2020 17:55:00 3.7 C 5.8 g/m*3 3.7 C 1.6 km/h
505 29-12-2020 18:00:00 3.7 C 5.8 g/m*3 3.7 C 4.8 km/h
506 29-12-2020 18:05:00 3.7 C 5.8 g/m*3 3.7 C 0 km/h
507 29-12-2020 18:10:00 3.6 C 5.76 g/m*3 3.6 C 3.2 km/h
508 29-12-2020 18:15:00 3.6 C 5.76 g/m*3 3.6 C 1.6 km/h
509 29-12-2020 18:20:00 3.6 C 5.76 g/m*3 3.6 C 0 km/h
510 29-12-2020 18:25:00 3.4 C 5.68 g/m*3 3.4 C 1.6 km/h
511 29-12-2020 18:30:00 3.3 C 5.64 g/m*3 3.3 C 0 km/h
512 29-12-2020 18:35:00 3 C 5.47 g/m*3 3 C 0 km/h
513 29-12-2020 18:40:00 2.7 C 5.36 g/m*3 2.7 C 1.6 km/h
514 29-12-2020 18:45:00 2.5 C 5.29 g/m*3 2.5 C 3.2 km/h
515 29-12-2020 18:50:00 2.3 C 5.22 g/m*3 2.3 C 3.2 km/h
516 29-12-2020 18:55:00 2.2 C 5.24 g/m*3 2.2 C 3.2 km/h
517 29-12-2020 19:00:00 2.1 C 5.2 g/m*3 2.1 C 3.2 km/h
518 29-12-2020 19:05:00 2.1 C 5.2 g/m*3 2.1 C 3.2 km/h
519 29-12-2020 19:10:00 2.1 C 5.26 g/m*3 2.1 C 4.8 km/h
520 29-12-2020 19:15:00 2.1 C 5.26 g/m*3 2.1 C 1.6 km/h
521 29-12-2020 19:20:00 2.2 C 5.29 g/m*3 2.2 C 4.8 km/h
522 29-12-2020 19:25:00 2.2 C 5.29 g/m*3 2.2 C 3.2 km/h
523 29-12-2020 19:30:00 2.1 C 5.26 g/m*3 2.1 C 1.6 km/h
524 29-12-2020 19:35:00 2.1 C 5.26 g/m*3 2.1 C 3.2 km/h
525 29-12-2020 19:40:00 1.9 C 5.19 g/m*3 1.9 C 3.2 km/h
Sensor: Nr:Datum:Temp:Abs-Feuchte:Windchill:Wind:
Aussen-T/F 526 29-12-2020 19:45:00 1.8 C 5.15 g/m*3 1.8 C 3.2 km/h
527 29-12-2020 19:50:00 1.7 C 5.12 g/m*3 1.7 C 0 km/h
528 29-12-2020 19:55:00 1.7 C 5.12 g/m*3 1.7 C 0 km/h
529 29-12-2020 20:00:00 1.6 C 5.14 g/m*3 1.6 C 0 km/h
530 29-12-2020 20:05:00 1.6 C 5.14 g/m*3 1.6 C 0 km/h
531 29-12-2020 20:10:00 1.6 C 5.14 g/m*3 1.6 C 0 km/h
532 29-12-2020 20:15:00 1.7 C 5.17 g/m*3 1.7 C 0 km/h
533 29-12-2020 20:20:00 1.7 C 5.17 g/m*3 1.7 C 0 km/h
534 29-12-2020 20:25:00 1.8 C 5.21 g/m*3 1.8 C 0 km/h
535 29-12-2020 20:30:00 1.8 C 5.21 g/m*3 1.8 C 0 km/h
536 29-12-2020 20:35:00 1.9 C 5.3 g/m*3 1.9 C 0 km/h
537 29-12-2020 20:40:00 2 C 5.33 g/m*3 2 C 0 km/h
538 29-12-2020 20:45:00 2.1 C 5.37 g/m*3 2.1 C 0 km/h
539 29-12-2020 20:50:00 2.1 C 5.37 g/m*3 2.1 C 0 km/h
540 29-12-2020 20:55:00 2.1 C 5.37 g/m*3 2.1 C 0 km/h
541 29-12-2020 21:00:00 2.1 C 5.37 g/m*3 2.1 C 0 km/h
542 29-12-2020 21:05:00 2.2 C 5.41 g/m*3 2.2 C 0 km/h
543 29-12-2020 21:10:00 2.1 C 5.37 g/m*3 2.1 C 0 km/h
544 29-12-2020 21:15:00 2.1 C 5.31 g/m*3 2.1 C 0 km/h
545 29-12-2020 21:20:00 1.9 C 5.24 g/m*3 1.9 C 0 km/h
546 29-12-2020 21:25:00 1.8 C 5.21 g/m*3 1.8 C 0 km/h
547 29-12-2020 21:30:00 1.6 C 5.14 g/m*3 1.6 C 0 km/h
548 29-12-2020 21:35:00 1.4 C 5.07 g/m*3 1.4 C 0 km/h
549 29-12-2020 21:40:00 1.3 C 5.03 g/m*3 1.3 C 0 km/h
550 29-12-2020 21:45:00 1.2 C 5 g/m*3 1.2 C 0 km/h
Sensor: Nr:Datum:Temp:Abs-Feuchte:Windchill:Wind:
Aussen-T/F 551 29-12-2020 21:50:00 1.1 C 4.96 g/m*3 1.1 C 0 km/h
552 29-12-2020 21:55:00 1.1 C 4.96 g/m*3 1.1 C 4.8 km/h
553 29-12-2020 22:00:00 1.1 C 4.96 g/m*3 -0.91 C 6.4 km/h
554 29-12-2020 22:05:00 1.1 C 4.96 g/m*3 1.1 C 4.8 km/h
555 29-12-2020 22:10:00 1.1 C 4.96 g/m*3 1.1 C 3.2 km/h
556 29-12-2020 22:15:00 1.1 C 5.02 g/m*3 1.1 C 0 km/h
557 29-12-2020 22:20:00 1.1 C 5.02 g/m*3 1.1 C 0 km/h
558 29-12-2020 22:25:00 1.1 C 5.02 g/m*3 1.1 C 0 km/h
559 29-12-2020 22:30:00 1.1 C 5.02 g/m*3 1.1 C 0 km/h
560 29-12-2020 22:35:00 1.1 C 5.02 g/m*3 1.1 C 0 km/h
561 29-12-2020 22:40:00 1.2 C 5.05 g/m*3 1.2 C 0 km/h
562 29-12-2020 22:45:00 1.3 C 5.09 g/m*3 1.3 C 0 km/h
563 29-12-2020 22:50:00 1.3 C 5.09 g/m*3 1.3 C 0 km/h
564 29-12-2020 22:55:00 1.4 C 5.12 g/m*3 1.4 C 0 km/h
565 29-12-2020 23:00:00 1.4 C 5.12 g/m*3 1.4 C 0 km/h
566 29-12-2020 23:05:00 1.4 C 5.12 g/m*3 1.4 C 0 km/h
567 29-12-2020 23:10:00 1.4 C 5.12 g/m*3 1.4 C 0 km/h
568 29-12-2020 23:15:00 1.4 C 5.12 g/m*3 1.4 C 0 km/h
569 29-12-2020 23:20:00 1.3 C 5.09 g/m*3 1.3 C 0 km/h
570 29-12-2020 23:25:00 1.3 C 5.09 g/m*3 1.3 C 0 km/h
571 29-12-2020 23:30:00 1.3 C 5.09 g/m*3 1.3 C 0 km/h
572 29-12-2020 23:35:00 1.3 C 5.09 g/m*3 1.3 C 0 km/h
573 29-12-2020 23:40:00 1.4 C 5.12 g/m*3 1.4 C 0 km/h
574 29-12-2020 23:45:00 1.4 C 5.12 g/m*3 1.4 C 0 km/h
575 29-12-2020 23:50:00 1.5 C 5.16 g/m*3 1.5 C 0 km/h
Sensor: Nr:Datum:Temp:Abs-Feuchte:Windchill:Wind:
Aussen-T/F 576 29-12-2020 23:55:00 1.6 C 5.19 g/m*3 1.6 C 0 km/h
577 30-12-2020 00:00:00 1.7 C 5.23 g/m*3 1.7 C 0 km/h
578 30-12-2020 00:05:00 1.7 C 5.23 g/m*3 1.7 C 0 km/h
579 30-12-2020 00:10:00 1.8 C 5.32 g/m*3 1.8 C 0 km/h
580 30-12-2020 00:15:00 1.9 C 5.35 g/m*3 1.9 C 0 km/h
581 30-12-2020 00:20:00 1.9 C 5.35 g/m*3 1.9 C 0 km/h
582 30-12-2020 00:25:00 2 C 5.33 g/m*3 2 C 0 km/h
583 30-12-2020 00:30:00 2 C 5.33 g/m*3 2 C 0 km/h
584 30-12-2020 00:35:00 2 C 5.33 g/m*3 2 C 0 km/h
585 30-12-2020 00:40:00 2 C 5.33 g/m*3 2 C 0 km/h
586 30-12-2020 00:45:00 2 C 5.33 g/m*3 2 C 0 km/h
587 30-12-2020 00:50:00 2 C 5.33 g/m*3 2 C 0 km/h
588 30-12-2020 00:55:00 2.1 C 5.37 g/m*3 2.1 C 0 km/h
589 30-12-2020 01:00:00 2.1 C 5.37 g/m*3 2.1 C 0 km/h
590 30-12-2020 01:05:00 2.1 C 5.37 g/m*3 2.1 C 0 km/h
591 30-12-2020 01:10:00 2.1 C 5.37 g/m*3 2.1 C 0 km/h
592 30-12-2020 01:15:00 2.1 C 5.37 g/m*3 2.1 C 0 km/h
593 30-12-2020 01:20:00 2 C 5.33 g/m*3 2 C 0 km/h
594 30-12-2020 01:25:00 1.9 C 5.3 g/m*3 1.9 C 0 km/h
595 30-12-2020 01:30:00 1.9 C 5.3 g/m*3 1.9 C 0 km/h
596 30-12-2020 01:35:00 1.9 C 5.3 g/m*3 1.9 C 0 km/h
597 30-12-2020 01:40:00 2 C 5.33 g/m*3 2 C 0 km/h
598 30-12-2020 01:45:00 2 C 5.33 g/m*3 2 C 0 km/h
599 30-12-2020 01:50:00 2.1 C 5.37 g/m*3 2.1 C 0 km/h
600 30-12-2020 01:55:00 2.1 C 5.37 g/m*3 2.1 C 0 km/h
Sensor: Nr:Datum:Temp:Abs-Feuchte:Windchill:Wind:
Aussen-T/F 601 30-12-2020 02:00:00 2.1 C 5.37 g/m*3 2.1 C 0 km/h
602 30-12-2020 02:05:00 2.1 C 5.37 g/m*3 2.1 C 0 km/h
603 30-12-2020 02:10:00 2.1 C 5.37 g/m*3 2.1 C 0 km/h
604 30-12-2020 02:15:00 2.2 C 5.46 g/m*3 2.2 C 0 km/h
605 30-12-2020 02:20:00 2.2 C 5.46 g/m*3 2.2 C 0 km/h
606 30-12-2020 02:25:00 2.3 C 5.5 g/m*3 2.3 C 0 km/h
607 30-12-2020 02:30:00 2.3 C 5.5 g/m*3 2.3 C 0 km/h
608 30-12-2020 02:35:00 2.3 C 5.5 g/m*3 2.3 C 0 km/h
609 30-12-2020 02:40:00 2.4 C 5.54 g/m*3 2.4 C 0 km/h
610 30-12-2020 02:45:00 2.4 C 5.54 g/m*3 2.4 C 0 km/h
611 30-12-2020 02:50:00 2.4 C 5.54 g/m*3 2.4 C 0 km/h
612 30-12-2020 02:55:00 2.4 C 5.54 g/m*3 2.4 C 0 km/h
613 30-12-2020 03:00:00 2.4 C 5.54 g/m*3 2.4 C 0 km/h
614 30-12-2020 03:05:00 2.5 C 5.58 g/m*3 2.5 C 0 km/h
615 30-12-2020 03:10:00 2.6 C 5.61 g/m*3 2.6 C 0 km/h
616 30-12-2020 03:15:00 2.6 C 5.61 g/m*3 2.6 C 0 km/h
617 30-12-2020 03:20:00 2.6 C 5.61 g/m*3 2.6 C 0 km/h
618 30-12-2020 03:25:00 2.6 C 5.61 g/m*3 2.6 C 0 km/h
619 30-12-2020 03:30:00 2.6 C 5.61 g/m*3 2.6 C 0 km/h
620 30-12-2020 03:35:00 2.6 C 5.61 g/m*3 2.6 C 0 km/h
621 30-12-2020 03:40:00 2.5 C 5.58 g/m*3 2.5 C 0 km/h
622 30-12-2020 03:45:00 2.5 C 5.58 g/m*3 2.5 C 0 km/h
623 30-12-2020 03:50:00 2.5 C 5.58 g/m*3 2.5 C 0 km/h
624 30-12-2020 03:55:00 2.5 C 5.58 g/m*3 2.5 C 0 km/h
625 30-12-2020 04:00:00 2.5 C 5.58 g/m*3 2.5 C 0 km/h
Sensor: Nr:Datum:Temp:Abs-Feuchte:Windchill:Wind:
Aussen-T/F 626 30-12-2020 04:05:00 2.5 C 5.58 g/m*3 2.5 C 0 km/h
627 30-12-2020 04:10:00 2.6 C 5.61 g/m*3 2.6 C 0 km/h
628 30-12-2020 04:15:00 2.6 C 5.61 g/m*3 2.6 C 0 km/h
629 30-12-2020 04:20:00 2.6 C 5.61 g/m*3 2.6 C 0 km/h
630 30-12-2020 04:25:00 2.6 C 5.61 g/m*3 2.6 C 0 km/h
631 30-12-2020 04:30:00 2.6 C 5.61 g/m*3 2.6 C 0 km/h
632 30-12-2020 04:35:00 2.6 C 5.61 g/m*3 2.6 C 0 km/h
633 30-12-2020 04:40:00 2.7 C 5.65 g/m*3 2.7 C 0 km/h
634 30-12-2020 04:45:00 2.7 C 5.65 g/m*3 2.7 C 0 km/h
635 30-12-2020 04:50:00 2.7 C 5.65 g/m*3 2.7 C 0 km/h
636 30-12-2020 04:55:00 2.7 C 5.65 g/m*3 2.7 C 0 km/h
637 30-12-2020 05:00:00 2.8 C 5.69 g/m*3 2.8 C 0 km/h
638 30-12-2020 05:05:00 2.8 C 5.69 g/m*3 2.8 C 0 km/h
639 30-12-2020 05:10:00 2.8 C 5.69 g/m*3 2.8 C 0 km/h
640 30-12-2020 05:15:00 2.8 C 5.69 g/m*3 2.8 C 0 km/h
641 30-12-2020 05:20:00 2.8 C 5.69 g/m*3 2.8 C 0 km/h
642 30-12-2020 05:25:00 2.8 C 5.69 g/m*3 2.8 C 0 km/h
643 30-12-2020 05:30:00 2.8 C 5.69 g/m*3 2.8 C 0 km/h
644 30-12-2020 05:35:00 2.7 C 5.65 g/m*3 2.7 C 0 km/h
645 30-12-2020 05:40:00 2.7 C 5.65 g/m*3 2.7 C 0 km/h
646 30-12-2020 05:45:00 2.8 C 5.69 g/m*3 2.8 C 0 km/h
647 30-12-2020 05:50:00 2.8 C 5.69 g/m*3 2.8 C 0 km/h
648 30-12-2020 05:55:00 2.8 C 5.69 g/m*3 2.8 C 0 km/h
649 30-12-2020 06:00:00 2.8 C 5.69 g/m*3 2.8 C 0 km/h
650 30-12-2020 06:05:00 2.8 C 5.69 g/m*3 2.8 C 0 km/h
Sensor: Nr:Datum:Temp:Abs-Feuchte:Windchill:Wind:
Aussen-T/F 651 30-12-2020 06:10:00 2.8 C 5.69 g/m*3 2.8 C 0 km/h
652 30-12-2020 06:15:00 2.8 C 5.69 g/m*3 2.8 C 0 km/h
653 30-12-2020 06:20:00 2.9 C 5.73 g/m*3 2.9 C 0 km/h
654 30-12-2020 06:25:00 2.9 C 5.73 g/m*3 2.9 C 0 km/h
655 30-12-2020 06:30:00 2.9 C 5.73 g/m*3 2.9 C 0 km/h
656 30-12-2020 06:35:00 3 C 5.77 g/m*3 3 C 0 km/h
657 30-12-2020 06:40:00 3.1 C 5.81 g/m*3 3.1 C 0 km/h
658 30-12-2020 06:45:00 3.2 C 5.85 g/m*3 3.2 C 0 km/h
659 30-12-2020 06:50:00 3.2 C 5.85 g/m*3 3.2 C 0 km/h
660 30-12-2020 06:55:00 3.2 C 5.85 g/m*3 3.2 C 0 km/h
661 30-12-2020 07:00:00 3.3 C 5.88 g/m*3 3.3 C 0 km/h
662 30-12-2020 07:05:00 3.3 C 5.88 g/m*3 3.3 C 0 km/h
663 30-12-2020 07:10:00 3.3 C 5.88 g/m*3 3.3 C 0 km/h
664 30-12-2020 07:15:00 3.4 C 5.92 g/m*3 3.4 C 0 km/h
665 30-12-2020 07:20:00 3.4 C 5.92 g/m*3 3.4 C 0 km/h
666 30-12-2020 07:25:00 3.4 C 5.92 g/m*3 3.4 C 0 km/h
667 30-12-2020 07:30:00 3.5 C 5.96 g/m*3 3.5 C 0 km/h
668 30-12-2020 07:35:00 3.5 C 5.96 g/m*3 3.5 C 1.6 km/h
669 30-12-2020 07:40:00 3.6 C 6 g/m*3 3.6 C 4.8 km/h
670 30-12-2020 07:45:00 3.6 C 6 g/m*3 3.6 C 4.8 km/h
671 30-12-2020 07:50:00 3.6 C 6 g/m*3 1.98 C 6.4 km/h
672 30-12-2020 07:55:00 3.6 C 6 g/m*3 3.6 C 1.6 km/h
673 30-12-2020 08:00:00 3.6 C 6 g/m*3 3.6 C 0 km/h
674 30-12-2020 08:05:00 3.6 C 6 g/m*3 3.6 C 0 km/h
675 30-12-2020 08:10:00 3.6 C 6 g/m*3 3.6 C 1.6 km/h
Sensor: Nr:Datum:Temp:Abs-Feuchte:Windchill:Wind:
Aussen-T/F 676 30-12-2020 08:15:00 3.6 C 6 g/m*3 3.6 C 0 km/h
677 30-12-2020 08:20:00 3.6 C 6 g/m*3 3.6 C 0 km/h
678 30-12-2020 08:25:00 3.6 C 6 g/m*3 3.6 C 0 km/h
679 30-12-2020 08:30:00 3.6 C 6 g/m*3 3.6 C 1.6 km/h
680 30-12-2020 08:35:00 3.6 C 6 g/m*3 3.6 C 1.6 km/h
681 30-12-2020 08:40:00 3.6 C 6 g/m*3 3.6 C 3.2 km/h
682 30-12-2020 08:45:00 3.7 C 6.04 g/m*3 3.7 C 3.2 km/h
683 30-12-2020 08:50:00 3.7 C 6.04 g/m*3 3.7 C 3.2 km/h
684 30-12-2020 08:55:00 3.7 C 6.04 g/m*3 3.7 C 0 km/h
685 30-12-2020 09:00:00 3.7 C 6.04 g/m*3 3.7 C 0 km/h
686 30-12-2020 09:05:00 3.7 C 6.04 g/m*3 3.7 C 1.6 km/h
687 30-12-2020 09:10:00 3.7 C 6.04 g/m*3 3.7 C 1.6 km/h
688 30-12-2020 09:15:00 3.7 C 6.04 g/m*3 3.7 C 3.2 km/h
689 30-12-2020 09:20:00 3.8 C 6.09 g/m*3 3.8 C 0 km/h
690 30-12-2020 09:25:00 3.8 C 6.09 g/m*3 3.8 C 0 km/h
691 30-12-2020 09:30:00 3.8 C 6.09 g/m*3 3.8 C 0 km/h
692 30-12-2020 09:35:00 3.8 C 6.09 g/m*3 3.8 C 1.6 km/h
693 30-12-2020 09:40:00 3.8 C 6.09 g/m*3 3.8 C 0 km/h
694 30-12-2020 09:45:00 3.8 C 6.09 g/m*3 3.8 C 3.2 km/h
695 30-12-2020 09:50:00 3.9 C 6.13 g/m*3 3.9 C 3.2 km/h
696 30-12-2020 09:55:00 3.9 C 6.13 g/m*3 3.9 C 4.8 km/h
697 30-12-2020 10:00:00 3.9 C 6.13 g/m*3 3.9 C 1.6 km/h
698 30-12-2020 10:05:00 4.1 C 6.21 g/m*3 4.1 C 0 km/h
699 30-12-2020 10:10:00 4.1 C 6.21 g/m*3 4.1 C 0 km/h
700 30-12-2020 10:15:00 4.2 C 6.25 g/m*3 4.2 C 0 km/h
Sensor: Nr:Datum:Temp:Abs-Feuchte:Windchill:Wind:
Aussen-T/F 701 30-12-2020 10:20:00 4.2 C 6.25 g/m*3 4.2 C 0 km/h
702 30-12-2020 10:25:00 4.2 C 6.25 g/m*3 4.2 C 3.2 km/h
703 30-12-2020 10:30:00 4.2 C 6.25 g/m*3 4.2 C 3.2 km/h
704 30-12-2020 10:35:00 4.3 C 6.29 g/m*3 4.3 C 0 km/h
705 30-12-2020 10:40:00 4.3 C 6.29 g/m*3 4.3 C 3.2 km/h
706 30-12-2020 10:45:00 4.3 C 6.29 g/m*3 2.78 C 6.4 km/h
707 30-12-2020 10:50:00 4.3 C 6.29 g/m*3 2.78 C 6.4 km/h
708 30-12-2020 10:55:00 4.3 C 6.29 g/m*3 4.3 C 3.2 km/h
709 30-12-2020 11:00:00 4.2 C 6.19 g/m*3 2.67 C 6.4 km/h
710 30-12-2020 11:05:00 4.2 C 6.19 g/m*3 4.2 C 4.8 km/h
711 30-12-2020 11:10:00 4.2 C 6.19 g/m*3 4.2 C 3.2 km/h
712 30-12-2020 11:15:00 4.3 C 6.23 g/m*3 4.3 C 3.2 km/h
713 30-12-2020 11:20:00 4.4 C 6.27 g/m*3 4.4 C 4.8 km/h
714 30-12-2020 11:25:00 4.4 C 6.27 g/m*3 2.01 C 9.7 km/h
715 30-12-2020 11:30:00 4.5 C 6.31 g/m*3 2.52 C 8.1 km/h
716 30-12-2020 11:35:00 4.6 C 6.35 g/m*3 3.13 C 6.4 km/h
717 30-12-2020 11:40:00 4.6 C 6.29 g/m*3 2.25 C 9.7 km/h
718 30-12-2020 11:45:00 4.6 C 6.29 g/m*3 2.64 C 8.1 km/h
719 30-12-2020 11:50:00 4.7 C 6.33 g/m*3 3.25 C 6.4 km/h
720 30-12-2020 11:55:00 4.7 C 6.26 g/m*3 3.25 C 6.4 km/h
721 30-12-2020 12:00:00 4.7 C 6.26 g/m*3 2.76 C 8.1 km/h
722 30-12-2020 12:05:00 4.7 C 6.26 g/m*3 2.76 C 8.1 km/h
723 30-12-2020 12:10:00 4.7 C 6.19 g/m*3 1.73 C 12.9 km/h
724 30-12-2020 12:15:00 4.7 C 6.19 g/m*3 1.73 C 12.9 km/h
725 30-12-2020 12:20:00 4.7 C 6.19 g/m*3 3.25 C 6.4 km/h
Sensor: Nr:Datum:Temp:Abs-Feuchte:Windchill:Wind:
Aussen-T/F 726 30-12-2020 12:25:00 4.7 C 6.19 g/m*3 2.76 C 8.1 km/h
727 30-12-2020 12:30:00 4.8 C 6.17 g/m*3 3.36 C 6.4 km/h
728 30-12-2020 12:35:00 4.8 C 6.17 g/m*3 2.87 C 8.1 km/h
729 30-12-2020 12:40:00 4.8 C 6.17 g/m*3 2.87 C 8.1 km/h
730 30-12-2020 12:45:00 4.8 C 6.1 g/m*3 2.15 C 11.3 km/h
731 30-12-2020 12:50:00 4.8 C 6.1 g/m*3 2.87 C 8.1 km/h
732 30-12-2020 12:55:00 4.8 C 6.1 g/m*3 3.36 C 6.4 km/h
733 30-12-2020 13:00:00 4.9 C 6.14 g/m*3 3.48 C 6.4 km/h
734 30-12-2020 13:05:00 4.8 C 6.04 g/m*3 3.36 C 6.4 km/h
735 30-12-2020 13:10:00 4.8 C 5.97 g/m*3 2.49 C 9.7 km/h
736 30-12-2020 13:15:00 4.8 C 5.83 g/m*3 1.85 C 12.9 km/h
737 30-12-2020 13:20:00 4.9 C 5.81 g/m*3 2.27 C 11.3 km/h
738 30-12-2020 13:25:00 5 C 5.78 g/m*3 2.72 C 9.7 km/h
739 30-12-2020 13:30:00 5.1 C 5.88 g/m*3 2.84 C 9.7 km/h
740 30-12-2020 13:35:00 5.2 C 5.92 g/m*3 3.82 C 6.4 km/h
741 30-12-2020 13:40:00 5.2 C 5.92 g/m*3 5.2 C 4.8 km/h
742 30-12-2020 13:45:00 5.3 C 5.96 g/m*3 5.3 C 4.8 km/h
743 30-12-2020 13:50:00 5.4 C 6 g/m*3 5.4 C 3.2 km/h
744 30-12-2020 13:55:00 5.4 C 5.93 g/m*3 3.58 C 8.1 km/h
745 30-12-2020 14:00:00 5.5 C 6.04 g/m*3 5.5 C 1.6 km/h
746 30-12-2020 14:05:00 5.6 C 6.08 g/m*3 4.29 C 6.4 km/h
747 30-12-2020 14:10:00 5.6 C 6.01 g/m*3 5.6 C 4.8 km/h
748 30-12-2020 14:15:00 5.6 C 6.01 g/m*3 5.6 C 3.2 km/h
749 30-12-2020 14:20:00 5.6 C 6.01 g/m*3 5.6 C 4.8 km/h
750 30-12-2020 14:25:00 5.7 C 6.05 g/m*3 5.7 C 3.2 km/h
Sensor: Nr:Datum:Temp:Abs-Feuchte:Windchill:Wind:
Aussen-T/F 751 30-12-2020 14:30:00 5.7 C 6.05 g/m*3 3.93 C 8.1 km/h
752 30-12-2020 14:35:00 5.7 C 6.05 g/m*3 5.7 C 4.8 km/h
753 30-12-2020 14:40:00 5.7 C 6.12 g/m*3 5.7 C 4.8 km/h
754 30-12-2020 14:45:00 5.8 C 6.16 g/m*3 5.8 C 0 km/h
755 30-12-2020 14:50:00 5.8 C 6.16 g/m*3 4.52 C 6.4 km/h
756 30-12-2020 14:55:00 5.8 C 6.09 g/m*3 4.52 C 6.4 km/h
757 30-12-2020 15:00:00 5.8 C 6.09 g/m*3 4.52 C 6.4 km/h
758 30-12-2020 15:05:00 5.8 C 6.02 g/m*3 5.8 C 4.8 km/h
759 30-12-2020 15:10:00 5.8 C 6.02 g/m*3 4.52 C 6.4 km/h
760 30-12-2020 15:15:00 5.8 C 6.02 g/m*3 5.8 C 4.8 km/h
761 30-12-2020 15:20:00 5.8 C 6.02 g/m*3 5.8 C 3.2 km/h
762 30-12-2020 15:25:00 5.8 C 5.95 g/m*3 4.52 C 6.4 km/h
763 30-12-2020 15:30:00 5.8 C 5.87 g/m*3 4.05 C 8.1 km/h
764 30-12-2020 15:35:00 5.8 C 5.95 g/m*3 3.68 C 9.7 km/h
765 30-12-2020 15:40:00 5.7 C 5.76 g/m*3 2.95 C 12.9 km/h
766 30-12-2020 15:45:00 5.8 C 5.87 g/m*3 3.68 C 9.7 km/h
767 30-12-2020 15:50:00 5.8 C 5.87 g/m*3 3.68 C 9.7 km/h
768 30-12-2020 15:55:00 5.8 C 5.95 g/m*3 4.52 C 6.4 km/h
769 30-12-2020 16:00:00 5.8 C 6.02 g/m*3 4.52 C 6.4 km/h
770 30-12-2020 16:05:00 5.7 C 5.98 g/m*3 3.23 C 11.3 km/h
771 30-12-2020 16:10:00 5.7 C 5.91 g/m*3 3.23 C 11.3 km/h
772 30-12-2020 16:15:00 5.6 C 5.94 g/m*3 3.44 C 9.7 km/h
773 30-12-2020 16:20:00 5.6 C 5.94 g/m*3 5.6 C 4.8 km/h
774 30-12-2020 16:25:00 5.5 C 5.9 g/m*3 3.7 C 8.1 km/h
775 30-12-2020 16:30:00 5.4 C 5.93 g/m*3 4.06 C 6.4 km/h
Sensor: Nr:Datum:Temp:Abs-Feuchte:Windchill:Wind:
Aussen-T/F 776 30-12-2020 16:35:00 5.4 C 5.93 g/m*3 4.06 C 6.4 km/h
777 30-12-2020 16:40:00 5.3 C 5.89 g/m*3 3.94 C 6.4 km/h
778 30-12-2020 16:45:00 5.3 C 5.89 g/m*3 3.94 C 6.4 km/h
779 30-12-2020 16:50:00 5.2 C 5.85 g/m*3 2.96 C 9.7 km/h
780 30-12-2020 16:55:00 5.2 C 5.85 g/m*3 2.96 C 9.7 km/h
781 30-12-2020 17:00:00 5.1 C 5.81 g/m*3 3.23 C 8.1 km/h
782 30-12-2020 17:05:00 5.1 C 5.81 g/m*3 5.1 C 4.8 km/h
783 30-12-2020 17:10:00 5.1 C 5.81 g/m*3 5.1 C 4.8 km/h
784 30-12-2020 17:15:00 5 C 5.78 g/m*3 5 C 3.2 km/h
785 30-12-2020 17:20:00 4.9 C 5.81 g/m*3 3.48 C 6.4 km/h
786 30-12-2020 17:25:00 4.8 C 5.7 g/m*3 3.36 C 6.4 km/h
787 30-12-2020 17:30:00 4.8 C 5.7 g/m*3 3.36 C 6.4 km/h
788 30-12-2020 17:35:00 4.8 C 5.63 g/m*3 1.85 C 12.9 km/h
789 30-12-2020 17:40:00 4.8 C 5.63 g/m*3 2.49 C 9.7 km/h
790 30-12-2020 17:45:00 4.8 C 5.63 g/m*3 3.36 C 6.4 km/h
791 30-12-2020 17:50:00 4.8 C 5.63 g/m*3 2.87 C 8.1 km/h
792 30-12-2020 17:55:00 4.8 C 5.63 g/m*3 2.49 C 9.7 km/h
793 30-12-2020 18:00:00 4.8 C 5.63 g/m*3 2.49 C 9.7 km/h
794 30-12-2020 18:05:00 4.8 C 5.7 g/m*3 2.15 C 11.3 km/h
795 30-12-2020 18:10:00 4.7 C 5.66 g/m*3 1.73 C 12.9 km/h
796 30-12-2020 18:15:00 4.7 C 5.66 g/m*3 1.73 C 12.9 km/h
797 30-12-2020 18:20:00 4.7 C 5.66 g/m*3 2.76 C 8.1 km/h
798 30-12-2020 18:25:00 4.7 C 5.73 g/m*3 2.37 C 9.7 km/h
799 30-12-2020 18:30:00 4.6 C 5.69 g/m*3 2.64 C 8.1 km/h
800 30-12-2020 18:35:00 4.6 C 5.69 g/m*3 1.91 C 11.3 km/h
Sensor: Nr:Datum:Temp:Abs-Feuchte:Windchill:Wind:
Aussen-T/F 801 30-12-2020 18:40:00 4.6 C 5.76 g/m*3 3.13 C 6.4 km/h
802 30-12-2020 18:45:00 4.6 C 5.76 g/m*3 3.13 C 6.4 km/h
803 30-12-2020 18:50:00 4.5 C 5.72 g/m*3 2.52 C 8.1 km/h
804 30-12-2020 18:55:00 4.5 C 5.72 g/m*3 2.52 C 8.1 km/h
805 30-12-2020 19:00:00 4.5 C 5.72 g/m*3 4.5 C 4.8 km/h
806 30-12-2020 19:05:00 4.4 C 5.68 g/m*3 4.4 C 3.2 km/h
807 30-12-2020 19:10:00 4.4 C 5.68 g/m*3 4.4 C 4.8 km/h
808 30-12-2020 19:15:00 4.4 C 5.75 g/m*3 4.4 C 3.2 km/h
809 30-12-2020 19:20:00 4.3 C 5.71 g/m*3 4.3 C 4.8 km/h
810 30-12-2020 19:25:00 4.3 C 5.71 g/m*3 4.3 C 4.8 km/h
811 30-12-2020 19:30:00 4.3 C 5.71 g/m*3 2.78 C 6.4 km/h
812 30-12-2020 19:35:00 4.3 C 5.71 g/m*3 2.29 C 8.1 km/h
813 30-12-2020 19:40:00 4.3 C 5.71 g/m*3 4.3 C 4.8 km/h
814 30-12-2020 19:45:00 4.3 C 5.71 g/m*3 1.89 C 9.7 km/h
815 30-12-2020 19:50:00 4.3 C 5.71 g/m*3 4.3 C 4.8 km/h
816 30-12-2020 19:55:00 4.3 C 5.71 g/m*3 4.3 C 4.8 km/h
817 30-12-2020 20:00:00 4.3 C 5.71 g/m*3 1.89 C 9.7 km/h
818 30-12-2020 20:05:00 4.3 C 5.71 g/m*3 4.3 C 4.8 km/h
819 30-12-2020 20:10:00 4.3 C 5.71 g/m*3 2.29 C 8.1 km/h
820 30-12-2020 20:15:00 4.3 C 5.71 g/m*3 2.29 C 8.1 km/h
821 30-12-2020 20:20:00 4.3 C 5.71 g/m*3 2.29 C 8.1 km/h
822 30-12-2020 20:25:00 4.3 C 5.71 g/m*3 2.78 C 6.4 km/h
823 30-12-2020 20:30:00 4.3 C 5.71 g/m*3 4.3 C 3.2 km/h
824 30-12-2020 20:35:00 4.3 C 5.71 g/m*3 4.3 C 3.2 km/h
825 30-12-2020 20:40:00 4.2 C 5.67 g/m*3 4.2 C 0 km/h
Sensor: Nr:Datum:Temp:Abs-Feuchte:Windchill:Wind:
Aussen-T/F 826 30-12-2020 20:45:00 4.2 C 5.67 g/m*3 2.67 C 6.4 km/h
827 30-12-2020 20:50:00 4.3 C 5.71 g/m*3 2.29 C 8.1 km/h
828 30-12-2020 20:55:00 4.3 C 5.71 g/m*3 2.78 C 6.4 km/h
829 30-12-2020 21:00:00 4.3 C 5.71 g/m*3 2.78 C 6.4 km/h
830 30-12-2020 21:05:00 4.3 C 5.71 g/m*3 1.89 C 9.7 km/h
831 30-12-2020 21:10:00 4.3 C 5.71 g/m*3 4.3 C 4.8 km/h
832 30-12-2020 21:15:00 4.3 C 5.71 g/m*3 4.3 C 3.2 km/h
833 30-12-2020 21:20:00 4.2 C 5.73 g/m*3 4.2 C 1.6 km/h
834 30-12-2020 21:25:00 4.2 C 5.67 g/m*3 4.2 C 3.2 km/h
835 30-12-2020 21:30:00 4.2 C 5.67 g/m*3 4.2 C 4.8 km/h
836 30-12-2020 21:35:00 4.2 C 5.67 g/m*3 4.2 C 3.2 km/h
837 30-12-2020 21:40:00 4.2 C 5.67 g/m*3 4.2 C 1.6 km/h
838 30-12-2020 21:45:00 4.2 C 5.67 g/m*3 1.43 C 11.3 km/h
839 30-12-2020 21:50:00 4.2 C 5.73 g/m*3 4.2 C 4.8 km/h
840 30-12-2020 21:55:00 4.2 C 5.73 g/m*3 4.2 C 0 km/h
841 30-12-2020 22:00:00 4.2 C 5.73 g/m*3 4.2 C 0 km/h
842 30-12-2020 22:05:00 4.1 C 5.7 g/m*3 4.1 C 0 km/h
843 30-12-2020 22:10:00 4.1 C 5.7 g/m*3 4.1 C 3.2 km/h
844 30-12-2020 22:15:00 4.1 C 5.7 g/m*3 4.1 C 0 km/h
845 30-12-2020 22:20:00 4 C 5.66 g/m*3 4 C 1.6 km/h
846 30-12-2020 22:25:00 4 C 5.66 g/m*3 4 C 0 km/h
847 30-12-2020 22:30:00 4 C 5.66 g/m*3 4 C 1.6 km/h
848 30-12-2020 22:35:00 3.9 C 5.62 g/m*3 2.32 C 6.4 km/h
849 30-12-2020 22:40:00 3.9 C 5.62 g/m*3 3.9 C 3.2 km/h
850 30-12-2020 22:45:00 3.9 C 5.62 g/m*3 3.9 C 4.8 km/h
Sensor: Nr:Datum:Temp:Abs-Feuchte:Windchill:Wind:
Aussen-T/F 851 30-12-2020 22:50:00 3.9 C 5.62 g/m*3 3.9 C 3.2 km/h
852 30-12-2020 22:55:00 3.9 C 5.62 g/m*3 3.9 C 0 km/h
853 30-12-2020 23:00:00 3.9 C 5.62 g/m*3 3.9 C 0 km/h
854 30-12-2020 23:05:00 3.9 C 5.68 g/m*3 3.9 C 0 km/h
855 30-12-2020 23:10:00 3.9 C 5.68 g/m*3 3.9 C 0 km/h
856 30-12-2020 23:15:00 3.9 C 5.68 g/m*3 3.9 C 1.6 km/h
857 30-12-2020 23:20:00 3.9 C 5.68 g/m*3 3.9 C 1.6 km/h
858 30-12-2020 23:25:00 3.9 C 5.68 g/m*3 3.9 C 0 km/h
859 30-12-2020 23:30:00 4 C 5.72 g/m*3 4 C 1.6 km/h
860 30-12-2020 23:35:00 4.1 C 5.76 g/m*3 4.1 C 3.2 km/h
861 30-12-2020 23:40:00 4.1 C 5.7 g/m*3 2.05 C 8.1 km/h
862 30-12-2020 23:45:00 4.2 C 5.73 g/m*3 4.2 C 0 km/h
863 30-12-2020 23:50:00 4.2 C 5.73 g/m*3 2.67 C 6.4 km/h
864 30-12-2020 23:55:00 4.2 C 5.73 g/m*3 4.2 C 0 km/h
865 31-12-2020 00:00:00 4.2 C 5.73 g/m*3 4.2 C 0 km/h
866 31-12-2020 00:05:00 4.2 C 5.73 g/m*3 4.2 C 0 km/h
867 31-12-2020 00:10:00 4.1 C 5.7 g/m*3 4.1 C 1.6 km/h
868 31-12-2020 00:15:00 4.1 C 5.7 g/m*3 4.1 C 0 km/h
869 31-12-2020 00:20:00 4 C 5.66 g/m*3 4 C 4.8 km/h
870 31-12-2020 00:25:00 3.9 C 5.62 g/m*3 3.9 C 4.8 km/h
871 31-12-2020 00:30:00 4 C 5.66 g/m*3 4 C 3.2 km/h
872 31-12-2020 00:35:00 4 C 5.66 g/m*3 4 C 1.6 km/h
873 31-12-2020 00:40:00 4 C 5.66 g/m*3 4 C 1.6 km/h
874 31-12-2020 00:45:00 4 C 5.66 g/m*3 4 C 0 km/h
875 31-12-2020 00:50:00 4 C 5.66 g/m*3 4 C 0 km/h
Sensor: Nr:Datum:Temp:Abs-Feuchte:Windchill:Wind:
Aussen-T/F 876 31-12-2020 00:55:00 3.9 C 5.68 g/m*3 3.9 C 0 km/h
877 31-12-2020 01:00:00 3.9 C 5.68 g/m*3 3.9 C 0 km/h
878 31-12-2020 01:05:00 3.8 C 5.65 g/m*3 3.8 C 0 km/h
879 31-12-2020 01:10:00 3.8 C 5.65 g/m*3 3.8 C 0 km/h
880 31-12-2020 01:15:00 3.7 C 5.61 g/m*3 3.7 C 0 km/h
881 31-12-2020 01:20:00 3.6 C 5.57 g/m*3 3.6 C 0 km/h
882 31-12-2020 01:25:00 3.5 C 5.53 g/m*3 3.5 C 0 km/h
883 31-12-2020 01:30:00 3.4 C 5.5 g/m*3 3.4 C 1.6 km/h
884 31-12-2020 01:35:00 3.3 C 5.46 g/m*3 3.3 C 0 km/h
885 31-12-2020 01:40:00 3.1 C 5.39 g/m*3 3.1 C 0 km/h
886 31-12-2020 01:45:00 3.1 C 5.45 g/m*3 3.1 C 0 km/h
887 31-12-2020 01:50:00 3 C 5.41 g/m*3 3 C 3.2 km/h
888 31-12-2020 01:55:00 3 C 5.47 g/m*3 3 C 3.2 km/h
889 31-12-2020 02:00:00 3.1 C 5.51 g/m*3 3.1 C 3.2 km/h
890 31-12-2020 02:05:00 3.1 C 5.51 g/m*3 3.1 C 3.2 km/h
891 31-12-2020 02:10:00 3.2 C 5.54 g/m*3 3.2 C 4.8 km/h
892 31-12-2020 02:15:00 3.2 C 5.54 g/m*3 3.2 C 0 km/h
893 31-12-2020 02:20:00 3.2 C 5.54 g/m*3 3.2 C 0 km/h
894 31-12-2020 02:25:00 3.3 C 5.58 g/m*3 3.3 C 1.6 km/h
895 31-12-2020 02:30:00 3.3 C 5.58 g/m*3 3.3 C 0 km/h
896 31-12-2020 02:35:00 3.3 C 5.52 g/m*3 3.3 C 0 km/h
897 31-12-2020 02:40:00 3.2 C 5.48 g/m*3 3.2 C 0 km/h
898 31-12-2020 02:45:00 3.2 C 5.48 g/m*3 3.2 C 0 km/h
899 31-12-2020 02:50:00 3.1 C 5.45 g/m*3 3.1 C 1.6 km/h
900 31-12-2020 02:55:00 2.9 C 5.37 g/m*3 2.9 C 3.2 km/h
Sensor: Nr:Datum:Temp:Abs-Feuchte:Windchill:Wind:
Aussen-T/F 901 31-12-2020 03:00:00 2.9 C 5.37 g/m*3 2.9 C 1.6 km/h
902 31-12-2020 03:05:00 2.9 C 5.37 g/m*3 2.9 C 3.2 km/h
903 31-12-2020 03:10:00 2.9 C 5.37 g/m*3 2.9 C 0 km/h
904 31-12-2020 03:15:00 2.9 C 5.43 g/m*3 2.9 C 0 km/h
905 31-12-2020 03:20:00 2.9 C 5.43 g/m*3 2.9 C 1.6 km/h
906 31-12-2020 03:25:00 2.8 C 5.4 g/m*3 2.8 C 0 km/h
907 31-12-2020 03:30:00 2.8 C 5.4 g/m*3 2.8 C 0 km/h
908 31-12-2020 03:35:00 2.8 C 5.4 g/m*3 2.8 C 1.6 km/h
909 31-12-2020 03:40:00 2.8 C 5.4 g/m*3 2.8 C 0 km/h
910 31-12-2020 03:45:00 2.8 C 5.4 g/m*3 2.8 C 0 km/h
911 31-12-2020 03:50:00 2.8 C 5.4 g/m*3 2.8 C 0 km/h
912 31-12-2020 03:55:00 2.8 C 5.4 g/m*3 2.8 C 0 km/h
913 31-12-2020 04:00:00 2.8 C 5.4 g/m*3 2.8 C 0 km/h
914 31-12-2020 04:05:00 2.8 C 5.4 g/m*3 2.8 C 0 km/h
915 31-12-2020 04:10:00 2.8 C 5.4 g/m*3 2.8 C 0 km/h
916 31-12-2020 04:15:00 2.8 C 5.4 g/m*3 2.8 C 0 km/h
917 31-12-2020 04:20:00 2.8 C 5.4 g/m*3 2.8 C 0 km/h
918 31-12-2020 04:25:00 2.8 C 5.4 g/m*3 2.8 C 0 km/h
919 31-12-2020 04:30:00 2.8 C 5.4 g/m*3 2.8 C 0 km/h
920 31-12-2020 04:35:00 2.8 C 5.4 g/m*3 2.8 C 0 km/h
921 31-12-2020 04:40:00 2.8 C 5.4 g/m*3 2.8 C 0 km/h
922 31-12-2020 04:45:00 2.7 C 5.36 g/m*3 2.7 C 0 km/h
923 31-12-2020 04:50:00 2.8 C 5.4 g/m*3 2.8 C 0 km/h
924 31-12-2020 04:55:00 2.7 C 5.36 g/m*3 2.7 C 0 km/h
925 31-12-2020 05:00:00 2.7 C 5.36 g/m*3 2.7 C 0 km/h
Sensor: Nr:Datum:Temp:Abs-Feuchte:Windchill:Wind:
Aussen-T/F 926 31-12-2020 05:05:00 2.7 C 5.36 g/m*3 2.7 C 0 km/h
927 31-12-2020 05:10:00 2.8 C 5.4 g/m*3 2.8 C 0 km/h
928 31-12-2020 05:15:00 2.8 C 5.4 g/m*3 2.8 C 0 km/h
929 31-12-2020 05:20:00 2.8 C 5.46 g/m*3 2.8 C 0 km/h
930 31-12-2020 05:25:00 2.8 C 5.46 g/m*3 2.8 C 0 km/h
931 31-12-2020 05:30:00 2.8 C 5.46 g/m*3 2.8 C 0 km/h
932 31-12-2020 05:35:00 2.8 C 5.46 g/m*3 2.8 C 0 km/h
933 31-12-2020 05:40:00 2.8 C 5.46 g/m*3 2.8 C 0 km/h
934 31-12-2020 05:45:00 2.9 C 5.49 g/m*3 2.9 C 0 km/h
935 31-12-2020 05:50:00 2.9 C 5.49 g/m*3 2.9 C 3.2 km/h
936 31-12-2020 05:55:00 2.9 C 5.49 g/m*3 2.9 C 0 km/h
937 31-12-2020 06:00:00 2.9 C 5.49 g/m*3 2.9 C 0 km/h
938 31-12-2020 06:05:00 2.9 C 5.49 g/m*3 2.9 C 0 km/h
939 31-12-2020 06:10:00 3 C 5.59 g/m*3 3 C 0 km/h
940 31-12-2020 06:15:00 3 C 5.59 g/m*3 3 C 0 km/h
941 31-12-2020 06:20:00 3 C 5.59 g/m*3 3 C 0 km/h
942 31-12-2020 06:25:00 3 C 5.59 g/m*3 3 C 0 km/h
943 31-12-2020 06:30:00 3 C 5.59 g/m*3 3 C 0 km/h
944 31-12-2020 06:35:00 3 C 5.59 g/m*3 3 C 0 km/h
945 31-12-2020 06:40:00 3 C 5.59 g/m*3 3 C 0 km/h
946 31-12-2020 06:45:00 2.9 C 5.55 g/m*3 2.9 C 0 km/h
947 31-12-2020 06:50:00 2.9 C 5.55 g/m*3 2.9 C 0 km/h
948 31-12-2020 06:55:00 2.9 C 5.55 g/m*3 2.9 C 0 km/h
949 31-12-2020 07:00:00 2.9 C 5.55 g/m*3 2.9 C 0 km/h
950 31-12-2020 07:05:00 2.9 C 5.55 g/m*3 2.9 C 0 km/h
Sensor: Nr:Datum:Temp:Abs-Feuchte:Windchill:Wind:
Aussen-T/F 951 31-12-2020 07:10:00 2.9 C 5.55 g/m*3 2.9 C 0 km/h
952 31-12-2020 07:15:00 2.9 C 5.55 g/m*3 2.9 C 0 km/h
953 31-12-2020 07:20:00 2.8 C 5.51 g/m*3 2.8 C 0 km/h
954 31-12-2020 07:25:00 2.8 C 5.51 g/m*3 2.8 C 0 km/h
955 31-12-2020 07:30:00 2.8 C 5.51 g/m*3 2.8 C 0 km/h
956 31-12-2020 07:35:00 2.7 C 5.48 g/m*3 2.7 C 3.2 km/h
957 31-12-2020 07:40:00 2.7 C 5.48 g/m*3 2.7 C 1.6 km/h
958 31-12-2020 07:45:00 2.7 C 5.48 g/m*3 2.7 C 3.2 km/h
959 31-12-2020 07:50:00 2.7 C 5.48 g/m*3 2.7 C 0 km/h
960 31-12-2020 07:55:00 2.7 C 5.48 g/m*3 2.7 C 4.8 km/h
961 31-12-2020 08:00:00 2.7 C 5.48 g/m*3 2.7 C 4.8 km/h
962 31-12-2020 08:05:00 2.7 C 5.48 g/m*3 2.7 C 3.2 km/h
963 31-12-2020 08:10:00 2.7 C 5.48 g/m*3 2.7 C 3.2 km/h
964 31-12-2020 08:15:00 2.7 C 5.48 g/m*3 2.7 C 0 km/h
965 31-12-2020 08:20:00 2.7 C 5.48 g/m*3 0.94 C 6.4 km/h
966 31-12-2020 08:25:00 2.7 C 5.48 g/m*3 2.7 C 0 km/h
967 31-12-2020 08:30:00 2.7 C 5.48 g/m*3 2.7 C 1.6 km/h
968 31-12-2020 08:35:00 2.7 C 5.48 g/m*3 2.7 C 4.8 km/h
969 31-12-2020 08:40:00 2.7 C 5.48 g/m*3 2.7 C 1.6 km/h
970 31-12-2020 08:45:00 2.7 C 5.48 g/m*3 2.7 C 0 km/h
971 31-12-2020 08:50:00 2.7 C 5.48 g/m*3 2.7 C 3.2 km/h
972 31-12-2020 08:55:00 2.6 C 5.44 g/m*3 2.6 C 1.6 km/h
973 31-12-2020 09:00:00 2.6 C 5.44 g/m*3 2.6 C 3.2 km/h
974 31-12-2020 09:05:00 2.6 C 5.44 g/m*3 2.6 C 1.6 km/h
975 31-12-2020 09:10:00 2.6 C 5.44 g/m*3 2.6 C 1.6 km/h
Sensor: Nr:Datum:Temp:Abs-Feuchte:Windchill:Wind:
Aussen-T/F 976 31-12-2020 09:15:00 2.6 C 5.44 g/m*3 2.6 C 0 km/h
977 31-12-2020 09:20:00 2.6 C 5.44 g/m*3 2.6 C 0 km/h
978 31-12-2020 09:25:00 2.7 C 5.48 g/m*3 2.7 C 3.2 km/h
979 31-12-2020 09:30:00 2.7 C 5.48 g/m*3 2.7 C 3.2 km/h
980 31-12-2020 09:35:00 2.7 C 5.48 g/m*3 2.7 C 0 km/h
981 31-12-2020 09:40:00 2.7 C 5.48 g/m*3 2.7 C 0 km/h
982 31-12-2020 09:45:00 2.8 C 5.57 g/m*3 2.8 C 0 km/h
983 31-12-2020 09:50:00 2.8 C 5.51 g/m*3 2.8 C 0 km/h
984 31-12-2020 09:55:00 2.8 C 5.51 g/m*3 2.8 C 0 km/h
985 31-12-2020 10:00:00 2.9 C 5.61 g/m*3 2.9 C 0 km/h
986 31-12-2020 10:05:00 2.9 C 5.61 g/m*3 2.9 C 0 km/h
987 31-12-2020 10:10:00 3 C 5.65 g/m*3 3 C 0 km/h
988 31-12-2020 10:15:00 3.1 C 5.69 g/m*3 3.1 C 3.2 km/h
989 31-12-2020 10:20:00 3.1 C 5.63 g/m*3 3.1 C 1.6 km/h
990 31-12-2020 10:25:00 3.2 C 5.66 g/m*3 3.2 C 0 km/h
991 31-12-2020 10:30:00 3.2 C 5.66 g/m*3 3.2 C 1.6 km/h
992 31-12-2020 10:35:00 3.3 C 5.7 g/m*3 3.3 C 1.6 km/h
993 31-12-2020 10:40:00 3.3 C 5.7 g/m*3 3.3 C 0 km/h
994 31-12-2020 10:45:00 3.3 C 5.7 g/m*3 3.3 C 0 km/h
995 31-12-2020 10:50:00 3.3 C 5.64 g/m*3 3.3 C 3.2 km/h
996 31-12-2020 10:55:00 3.4 C 5.68 g/m*3 3.4 C 0 km/h
997 31-12-2020 11:00:00 3.4 C 5.62 g/m*3 3.4 C 0 km/h
998 31-12-2020 11:05:00 3.6 C 5.76 g/m*3 3.6 C 0 km/h
999 31-12-2020 11:10:00 3.7 C 5.8 g/m*3 3.7 C 4.8 km/h
1000 31-12-2020 11:15:00 3.8 C 5.77 g/m*3 3.8 C 4.8 km/h
Sensor: Nr:Datum:Temp:Abs-Feuchte:Windchill:Wind:
Aussen-T/F 1001 31-12-2020 11:20:00 3.8 C 5.71 g/m*3 3.8 C 4.8 km/h
1002 31-12-2020 11:25:00 3.8 C 5.71 g/m*3 2.21 C 6.4 km/h
1003 31-12-2020 11:30:00 3.8 C 5.71 g/m*3 2.21 C 6.4 km/h
1004 31-12-2020 11:35:00 3.8 C 5.71 g/m*3 3.8 C 1.6 km/h
1005 31-12-2020 11:40:00 3.8 C 5.71 g/m*3 2.21 C 6.4 km/h
1006 31-12-2020 11:45:00 3.8 C 5.71 g/m*3 3.8 C 3.2 km/h
1007 31-12-2020 11:50:00 3.9 C 5.75 g/m*3 3.9 C 0 km/h
1008 31-12-2020 11:55:00 3.9 C 5.75 g/m*3 3.9 C 4.8 km/h
1009 31-12-2020 12:00:00 3.9 C 5.68 g/m*3 3.9 C 1.6 km/h
1010 31-12-2020 12:05:00 3.9 C 5.75 g/m*3 3.9 C 1.6 km/h
1011 31-12-2020 12:10:00 4.1 C 5.82 g/m*3 4.1 C 3.2 km/h
1012 31-12-2020 12:15:00 4.1 C 5.82 g/m*3 4.1 C 1.6 km/h
1013 31-12-2020 12:20:00 4.2 C 5.86 g/m*3 4.2 C 4.8 km/h
1014 31-12-2020 12:25:00 4.1 C 5.82 g/m*3 4.1 C 0 km/h
1015 31-12-2020 12:30:00 4.1 C 5.82 g/m*3 4.1 C 3.2 km/h
1016 31-12-2020 12:35:00 4.1 C 5.76 g/m*3 4.1 C 1.6 km/h
1017 31-12-2020 12:40:00 4.1 C 5.76 g/m*3 4.1 C 1.6 km/h
1018 31-12-2020 12:45:00 4.1 C 5.76 g/m*3 4.1 C 3.2 km/h
1019 31-12-2020 12:50:00 4 C 5.72 g/m*3 1.93 C 8.1 km/h
1020 31-12-2020 12:55:00 3.9 C 5.68 g/m*3 1.82 C 8.1 km/h
1021 31-12-2020 13:00:00 3.8 C 5.71 g/m*3 3.8 C 3.2 km/h
1022 31-12-2020 13:05:00 3.8 C 5.71 g/m*3 3.8 C 3.2 km/h
1023 31-12-2020 13:10:00 3.8 C 5.71 g/m*3 3.8 C 1.6 km/h
1024 31-12-2020 13:15:00 3.8 C 5.71 g/m*3 3.8 C 0 km/h
1025 31-12-2020 13:20:00 3.8 C 5.77 g/m*3 3.8 C 4.8 km/h
Sensor: Nr:Datum:Temp:Abs-Feuchte:Windchill:Wind:
Aussen-T/F 1026 31-12-2020 13:25:00 3.8 C 5.77 g/m*3 3.8 C 0 km/h
1027 31-12-2020 13:30:00 3.8 C 5.77 g/m*3 3.8 C 0 km/h
1028 31-12-2020 13:35:00 3.8 C 5.77 g/m*3 3.8 C 0 km/h
1029 31-12-2020 13:40:00 3.8 C 5.77 g/m*3 3.8 C 1.6 km/h
1030 31-12-2020 13:45:00 3.8 C 5.77 g/m*3 3.8 C 0 km/h
1031 31-12-2020 13:50:00 3.8 C 5.77 g/m*3 3.8 C 0 km/h
1032 31-12-2020 13:55:00 3.7 C 5.73 g/m*3 3.7 C 0 km/h
1033 31-12-2020 14:00:00 3.7 C 5.73 g/m*3 3.7 C 1.6 km/h
1034 31-12-2020 14:05:00 3.8 C 5.77 g/m*3 3.8 C 0 km/h
1035 31-12-2020 14:10:00 3.8 C 5.83 g/m*3 3.8 C 1.6 km/h
1036 31-12-2020 14:15:00 3.9 C 5.87 g/m*3 3.9 C 0 km/h
1037 31-12-2020 14:20:00 3.9 C 5.87 g/m*3 3.9 C 0 km/h
1038 31-12-2020 14:25:00 3.9 C 5.81 g/m*3 3.9 C 0 km/h
1039 31-12-2020 14:30:00 3.9 C 5.81 g/m*3 3.9 C 0 km/h
1040 31-12-2020 14:35:00 3.9 C 5.81 g/m*3 3.9 C 0 km/h
1041 31-12-2020 14:40:00 3.9 C 5.87 g/m*3 3.9 C 0 km/h
1042 31-12-2020 14:45:00 3.9 C 5.87 g/m*3 3.9 C 0 km/h
1043 31-12-2020 14:50:00 3.9 C 5.81 g/m*3 3.9 C 0 km/h
1044 31-12-2020 14:55:00 3.8 C 5.77 g/m*3 3.8 C 3.2 km/h
1045 31-12-2020 15:00:00 3.8 C 5.77 g/m*3 3.8 C 0 km/h
1046 31-12-2020 15:05:00 3.8 C 5.77 g/m*3 3.8 C 0 km/h
1047 31-12-2020 15:10:00 3.8 C 5.77 g/m*3 3.8 C 3.2 km/h
1048 31-12-2020 15:15:00 3.8 C 5.77 g/m*3 3.8 C 1.6 km/h
1049 31-12-2020 15:20:00 3.7 C 5.73 g/m*3 3.7 C 1.6 km/h
1050 31-12-2020 15:25:00 3.7 C 5.73 g/m*3 3.7 C 0 km/h
Sensor: Nr:Datum:Temp:Abs-Feuchte:Windchill:Wind:
Aussen-T/F 1051 31-12-2020 15:30:00 3.6 C 5.69 g/m*3 3.6 C 1.6 km/h
1052 31-12-2020 15:35:00 3.6 C 5.76 g/m*3 3.6 C 0 km/h
1053 31-12-2020 15:40:00 3.4 C 5.62 g/m*3 3.4 C 0 km/h
1054 31-12-2020 15:45:00 3.4 C 5.68 g/m*3 3.4 C 0 km/h
1055 31-12-2020 15:50:00 3.3 C 5.64 g/m*3 3.3 C 0 km/h
1056 31-12-2020 15:55:00 3.2 C 5.6 g/m*3 3.2 C 0 km/h
1057 31-12-2020 16:00:00 3.2 C 5.6 g/m*3 3.2 C 0 km/h
1058 31-12-2020 16:05:00 3.2 C 5.6 g/m*3 3.2 C 0 km/h
1059 31-12-2020 16:10:00 3.2 C 5.6 g/m*3 3.2 C 0 km/h
1060 31-12-2020 16:15:00 3.1 C 5.57 g/m*3 3.1 C 0 km/h
1061 31-12-2020 16:20:00 3.1 C 5.57 g/m*3 3.1 C 1.6 km/h
1062 31-12-2020 16:25:00 3 C 5.53 g/m*3 3 C 0 km/h
1063 31-12-2020 16:30:00 2.9 C 5.55 g/m*3 2.9 C 0 km/h
1064 31-12-2020 16:35:00 2.9 C 5.55 g/m*3 2.9 C 0 km/h
1065 31-12-2020 16:40:00 2.9 C 5.55 g/m*3 2.9 C 0 km/h
1066 31-12-2020 16:45:00 2.9 C 5.55 g/m*3 2.9 C 1.6 km/h
1067 31-12-2020 16:50:00 2.8 C 5.51 g/m*3 2.8 C 0 km/h
1068 31-12-2020 16:55:00 2.8 C 5.51 g/m*3 2.8 C 0 km/h
1069 31-12-2020 17:00:00 2.8 C 5.51 g/m*3 2.8 C 1.6 km/h
1070 31-12-2020 17:05:00 2.8 C 5.51 g/m*3 2.8 C 0 km/h
1071 31-12-2020 17:10:00 2.8 C 5.51 g/m*3 2.8 C 0 km/h
1072 31-12-2020 17:15:00 2.8 C 5.57 g/m*3 2.8 C 0 km/h
1073 31-12-2020 17:20:00 2.7 C 5.48 g/m*3 2.7 C 0 km/h
1074 31-12-2020 17:25:00 2.7 C 5.48 g/m*3 2.7 C 0 km/h
1075 31-12-2020 17:30:00 2.7 C 5.48 g/m*3 2.7 C 0 km/h
Sensor: Nr:Datum:Temp:Abs-Feuchte:Windchill:Wind:
Aussen-T/F 1076 31-12-2020 17:35:00 2.7 C 5.54 g/m*3 2.7 C 0 km/h
1077 31-12-2020 17:40:00 2.7 C 5.54 g/m*3 2.7 C 0 km/h
1078 31-12-2020 17:45:00 2.7 C 5.54 g/m*3 2.7 C 0 km/h
1079 31-12-2020 17:50:00 2.7 C 5.54 g/m*3 2.7 C 0 km/h
1080 31-12-2020 17:55:00 2.7 C 5.54 g/m*3 2.7 C 0 km/h
1081 31-12-2020 18:00:00 2.7 C 5.54 g/m*3 2.7 C 0 km/h
1082 31-12-2020 18:05:00 2.7 C 5.54 g/m*3 2.7 C 0 km/h
1083 31-12-2020 18:10:00 2.7 C 5.54 g/m*3 2.7 C 0 km/h
1084 31-12-2020 18:15:00 2.7 C 5.54 g/m*3 2.7 C 0 km/h
1085 31-12-2020 18:20:00 2.7 C 5.54 g/m*3 2.7 C 0 km/h
1086 31-12-2020 18:25:00 2.7 C 5.54 g/m*3 2.7 C 0 km/h
1087 31-12-2020 18:30:00 2.7 C 5.54 g/m*3 2.7 C 0 km/h
1088 31-12-2020 18:35:00 2.7 C 5.54 g/m*3 2.7 C 0 km/h
1089 31-12-2020 18:40:00 2.7 C 5.54 g/m*3 2.7 C 0 km/h
1090 31-12-2020 18:45:00 2.8 C 5.57 g/m*3 2.8 C 0 km/h
1091 31-12-2020 18:50:00 2.8 C 5.57 g/m*3 2.8 C 0 km/h
1092 31-12-2020 18:55:00 2.7 C 5.54 g/m*3 2.7 C 0 km/h
1093 31-12-2020 19:00:00 2.7 C 5.54 g/m*3 2.7 C 0 km/h
1094 31-12-2020 19:05:00 2.7 C 5.54 g/m*3 2.7 C 0 km/h
1095 31-12-2020 19:10:00 2.7 C 5.54 g/m*3 2.7 C 0 km/h
1096 31-12-2020 19:15:00 2.7 C 5.54 g/m*3 2.7 C 0 km/h
1097 31-12-2020 19:20:00 2.7 C 5.54 g/m*3 2.7 C 0 km/h
1098 31-12-2020 19:25:00 2.7 C 5.54 g/m*3 2.7 C 0 km/h
1099 31-12-2020 19:30:00 2.7 C 5.54 g/m*3 2.7 C 0 km/h
1100 31-12-2020 19:35:00 2.6 C 5.5 g/m*3 2.6 C 1.6 km/h
Sensor: Nr:Datum:Temp:Abs-Feuchte:Windchill:Wind:
Aussen-T/F 1101 31-12-2020 19:40:00 2.6 C 5.5 g/m*3 2.6 C 1.6 km/h
1102 31-12-2020 19:45:00 2.5 C 5.46 g/m*3 2.5 C 0 km/h
1103 31-12-2020 19:50:00 2.5 C 5.46 g/m*3 2.5 C 0 km/h
1104 31-12-2020 19:55:00 2.4 C 5.42 g/m*3 2.4 C 0 km/h
1105 31-12-2020 20:00:00 2.4 C 5.42 g/m*3 2.4 C 0 km/h
1106 31-12-2020 20:05:00 2.4 C 5.42 g/m*3 2.4 C 0 km/h
1107 31-12-2020 20:10:00 2.4 C 5.42 g/m*3 2.4 C 0 km/h
1108 31-12-2020 20:15:00 2.4 C 5.42 g/m*3 2.4 C 0 km/h
1109 31-12-2020 20:20:00 2.4 C 5.42 g/m*3 2.4 C 0 km/h
1110 31-12-2020 20:25:00 2.4 C 5.42 g/m*3 2.4 C 0 km/h
1111 31-12-2020 20:30:00 2.4 C 5.42 g/m*3 2.4 C 0 km/h
1112 31-12-2020 20:35:00 2.4 C 5.42 g/m*3 2.4 C 0 km/h
1113 31-12-2020 20:40:00 2.4 C 5.42 g/m*3 2.4 C 0 km/h
1114 31-12-2020 20:45:00 2.4 C 5.42 g/m*3 2.4 C 0 km/h
1115 31-12-2020 20:50:00 2.3 C 5.39 g/m*3 2.3 C 0 km/h
1116 31-12-2020 20:55:00 2.3 C 5.39 g/m*3 2.3 C 0 km/h
1117 31-12-2020 21:00:00 2.3 C 5.39 g/m*3 2.3 C 0 km/h
1118 31-12-2020 21:05:00 2.3 C 5.39 g/m*3 2.3 C 0 km/h
1119 31-12-2020 21:10:00 2.3 C 5.39 g/m*3 2.3 C 0 km/h
1120 31-12-2020 21:15:00 2.2 C 5.35 g/m*3 2.2 C 0 km/h
1121 31-12-2020 21:20:00 2.2 C 5.41 g/m*3 2.2 C 0 km/h
1122 31-12-2020 21:25:00 2.2 C 5.41 g/m*3 2.2 C 0 km/h
1123 31-12-2020 21:30:00 2.2 C 5.41 g/m*3 2.2 C 0 km/h
1124 31-12-2020 21:35:00 2.2 C 5.41 g/m*3 2.2 C 0 km/h
1125 31-12-2020 21:40:00 2.2 C 5.41 g/m*3 2.2 C 0 km/h
Sensor: Nr:Datum:Temp:Abs-Feuchte:Windchill:Wind:
Aussen-T/F 1126 31-12-2020 21:45:00 2.2 C 5.41 g/m*3 2.2 C 0 km/h
1127 31-12-2020 21:50:00 2.2 C 5.41 g/m*3 2.2 C 0 km/h
1128 31-12-2020 21:55:00 2.2 C 5.41 g/m*3 2.2 C 0 km/h
1129 31-12-2020 22:00:00 2.2 C 5.41 g/m*3 2.2 C 0 km/h
1130 31-12-2020 22:05:00 2.2 C 5.41 g/m*3 2.2 C 0 km/h
1131 31-12-2020 22:10:00 2.2 C 5.41 g/m*3 2.2 C 0 km/h
1132 31-12-2020 22:15:00 2.2 C 5.41 g/m*3 2.2 C 0 km/h
1133 31-12-2020 22:20:00 2.3 C 5.44 g/m*3 2.3 C 0 km/h
1134 31-12-2020 22:25:00 2.2 C 5.41 g/m*3 2.2 C 0 km/h
1135 31-12-2020 22:30:00 2.3 C 5.44 g/m*3 2.3 C 0 km/h
1136 31-12-2020 22:35:00 2.2 C 5.41 g/m*3 2.2 C 0 km/h
1137 31-12-2020 22:40:00 2.2 C 5.41 g/m*3 2.2 C 0 km/h
1138 31-12-2020 22:45:00 2.1 C 5.31 g/m*3 2.1 C 0 km/h
1139 31-12-2020 22:50:00 1.9 C 5.24 g/m*3 1.9 C 0 km/h
1140 31-12-2020 22:55:00 1.8 C 5.21 g/m*3 1.8 C 0 km/h
1141 31-12-2020 23:00:00 1.6 C 5.14 g/m*3 1.6 C 0 km/h
1142 31-12-2020 23:05:00 1.5 C 5.1 g/m*3 1.5 C 0 km/h
1143 31-12-2020 23:10:00 1.4 C 5.07 g/m*3 1.4 C 0 km/h
1144 31-12-2020 23:15:00 1.3 C 5.03 g/m*3 1.3 C 0 km/h
1145 31-12-2020 23:20:00 1.3 C 5.03 g/m*3 1.3 C 0 km/h
1146 31-12-2020 23:25:00 1.2 C 5 g/m*3 1.2 C 0 km/h
1147 31-12-2020 23:30:00 1.2 C 5 g/m*3 1.2 C 0 km/h
1148 31-12-2020 23:35:00 1.2 C 5 g/m*3 1.2 C 0 km/h
1149 31-12-2020 23:40:00 1.2 C 5 g/m*3 1.2 C 0 km/h
1150 31-12-2020 23:45:00 1.1 C 4.96 g/m*3 1.1 C 0 km/h
Sensor: Nr:Datum:Temp:Abs-Feuchte:Windchill:Wind:
Aussen-T/F 1151 31-12-2020 23:50:00 1.1 C 4.96 g/m*3 1.1 C 0 km/h
1152 31-12-2020 23:55:00 1.1 C 4.96 g/m*3 1.1 C 0 km/h
1153 01-01-2021 00:00:00 1.1 C 4.96 g/m*3 1.1 C 0 km/h
1154 01-01-2021 00:05:00 1.1 C 4.96 g/m*3 1.1 C 0 km/h
1155 01-01-2021 00:10:00 1.1 C 5.02 g/m*3 1.1 C 0 km/h
1156 01-01-2021 00:15:00 1.1 C 5.02 g/m*3 1.1 C 0 km/h
1157 01-01-2021 00:20:00 1.1 C 5.02 g/m*3 1.1 C 0 km/h
1158 01-01-2021 00:25:00 1.1 C 5.02 g/m*3 1.1 C 0 km/h
1159 01-01-2021 00:30:00 1.1 C 5.02 g/m*3 1.1 C 0 km/h
1160 01-01-2021 00:35:00 1.1 C 5.02 g/m*3 1.1 C 0 km/h
1161 01-01-2021 00:40:00 1.1 C 5.02 g/m*3 1.1 C 0 km/h
1162 01-01-2021 00:45:00 1.1 C 5.02 g/m*3 1.1 C 0 km/h
1163 01-01-2021 00:50:00 1.1 C 5.02 g/m*3 1.1 C 0 km/h
1164 01-01-2021 00:55:00 1.1 C 5.02 g/m*3 1.1 C 0 km/h
1165 01-01-2021 01:00:00 1.1 C 5.02 g/m*3 1.1 C 0 km/h
1166 01-01-2021 01:05:00 1.1 C 5.02 g/m*3 1.1 C 0 km/h
1167 01-01-2021 01:10:00 1.1 C 5.02 g/m*3 1.1 C 0 km/h
1168 01-01-2021 01:15:00 1.1 C 5.02 g/m*3 1.1 C 0 km/h
1169 01-01-2021 01:20:00 1.2 C 5.05 g/m*3 1.2 C 0 km/h
1170 01-01-2021 01:25:00 1.2 C 5.05 g/m*3 1.2 C 0 km/h
1171 01-01-2021 01:30:00 1.2 C 5.05 g/m*3 1.2 C 0 km/h
1172 01-01-2021 01:35:00 1.2 C 5.05 g/m*3 1.2 C 0 km/h
1173 01-01-2021 01:40:00 1.2 C 5.05 g/m*3 1.2 C 0 km/h
1174 01-01-2021 01:45:00 1.2 C 5.05 g/m*3 1.2 C 0 km/h
1175 01-01-2021 01:50:00 1.2 C 5.05 g/m*3 1.2 C 0 km/h
Sensor: Nr:Datum:Temp:Abs-Feuchte:Windchill:Wind:
Aussen-T/F 1176 01-01-2021 01:55:00 1.2 C 5.05 g/m*3 1.2 C 0 km/h
1177 01-01-2021 02:00:00 1.3 C 5.09 g/m*3 1.3 C 0 km/h
1178 01-01-2021 02:05:00 1.3 C 5.09 g/m*3 1.3 C 0 km/h
1179 01-01-2021 02:10:00 1.3 C 5.09 g/m*3 1.3 C 0 km/h
1180 01-01-2021 02:15:00 1.3 C 5.09 g/m*3 1.3 C 0 km/h
1181 01-01-2021 02:20:00 1.4 C 5.12 g/m*3 1.4 C 0 km/h
1182 01-01-2021 02:25:00 1.4 C 5.12 g/m*3 1.4 C 0 km/h
1183 01-01-2021 02:30:00 1.4 C 5.12 g/m*3 1.4 C 0 km/h
1184 01-01-2021 02:35:00 1.4 C 5.12 g/m*3 1.4 C 0 km/h
1185 01-01-2021 02:40:00 1.5 C 5.16 g/m*3 1.5 C 0 km/h
1186 01-01-2021 02:45:00 1.6 C 5.19 g/m*3 1.6 C 0 km/h
1187 01-01-2021 02:50:00 1.6 C 5.19 g/m*3 1.6 C 0 km/h
1188 01-01-2021 02:55:00 1.6 C 5.19 g/m*3 1.6 C 0 km/h
1189 01-01-2021 03:00:00 1.6 C 5.19 g/m*3 1.6 C 0 km/h
1190 01-01-2021 03:05:00 1.6 C 5.19 g/m*3 1.6 C 1.6 km/h
1191 01-01-2021 03:10:00 1.7 C 5.23 g/m*3 1.7 C 0 km/h
1192 01-01-2021 03:15:00 1.7 C 5.23 g/m*3 1.7 C 0 km/h
1193 01-01-2021 03:20:00 1.7 C 5.23 g/m*3 1.7 C 0 km/h
1194 01-01-2021 03:25:00 1.7 C 5.23 g/m*3 1.7 C 0 km/h
1195 01-01-2021 03:30:00 1.7 C 5.23 g/m*3 1.7 C 0 km/h
1196 01-01-2021 03:35:00 1.8 C 5.26 g/m*3 1.8 C 0 km/h
1197 01-01-2021 03:40:00 1.8 C 5.26 g/m*3 1.8 C 0 km/h
1198 01-01-2021 03:45:00 1.8 C 5.32 g/m*3 1.8 C 0 km/h
1199 01-01-2021 03:50:00 1.8 C 5.32 g/m*3 1.8 C 0 km/h
1200 01-01-2021 03:55:00 1.8 C 5.32 g/m*3 1.8 C 0 km/h
Sensor: Nr:Datum:Temp:Abs-Feuchte:Windchill:Wind:
Aussen-T/F 1201 01-01-2021 04:00:00 1.8 C 5.32 g/m*3 1.8 C 0 km/h
1202 01-01-2021 04:05:00 1.8 C 5.32 g/m*3 1.8 C 0 km/h
1203 01-01-2021 04:10:00 1.9 C 5.35 g/m*3 1.9 C 0 km/h
1204 01-01-2021 04:15:00 1.9 C 5.35 g/m*3 1.9 C 0 km/h
1205 01-01-2021 04:20:00 1.9 C 5.35 g/m*3 1.9 C 0 km/h
1206 01-01-2021 04:25:00 1.9 C 5.35 g/m*3 1.9 C 0 km/h
1207 01-01-2021 04:30:00 1.9 C 5.35 g/m*3 1.9 C 4.8 km/h
1208 01-01-2021 04:35:00 1.9 C 5.35 g/m*3 1.9 C 4.8 km/h
1209 01-01-2021 04:40:00 1.9 C 5.35 g/m*3 1.9 C 3.2 km/h
1210 01-01-2021 04:45:00 1.9 C 5.35 g/m*3 1.9 C 3.2 km/h
1211 01-01-2021 04:50:00 1.9 C 5.35 g/m*3 1.9 C 0 km/h
1212 01-01-2021 04:55:00 1.9 C 5.35 g/m*3 1.9 C 1.6 km/h
1213 01-01-2021 05:00:00 2 C 5.39 g/m*3 2 C 0 km/h
1214 01-01-2021 05:05:00 2 C 5.39 g/m*3 2 C 0 km/h
1215 01-01-2021 05:10:00 2 C 5.39 g/m*3 2 C 4.8 km/h
1216 01-01-2021 05:15:00 2 C 5.39 g/m*3 2 C 0 km/h
1217 01-01-2021 05:20:00 2 C 5.39 g/m*3 2 C 1.6 km/h
1218 01-01-2021 05:25:00 2.1 C 5.43 g/m*3 2.1 C 0 km/h
1219 01-01-2021 05:30:00 2.1 C 5.43 g/m*3 2.1 C 0 km/h
1220 01-01-2021 05:35:00 2.1 C 5.43 g/m*3 2.1 C 0 km/h
1221 01-01-2021 05:40:00 2.1 C 5.43 g/m*3 2.1 C 0 km/h
1222 01-01-2021 05:45:00 2.1 C 5.43 g/m*3 2.1 C 0 km/h
1223 01-01-2021 05:50:00 2.1 C 5.43 g/m*3 2.1 C 0 km/h
1224 01-01-2021 05:55:00 2.1 C 5.43 g/m*3 2.1 C 0 km/h
1225 01-01-2021 06:00:00 2.2 C 5.46 g/m*3 2.2 C 0 km/h
Sensor: Nr:Datum:Temp:Abs-Feuchte:Windchill:Wind:
Aussen-T/F 1226 01-01-2021 06:05:00 2.2 C 5.46 g/m*3 2.2 C 0 km/h
1227 01-01-2021 06:10:00 2.2 C 5.46 g/m*3 2.2 C 0 km/h
1228 01-01-2021 06:15:00 2.2 C 5.46 g/m*3 2.2 C 0 km/h
1229 01-01-2021 06:20:00 2.2 C 5.46 g/m*3 2.2 C 0 km/h
1230 01-01-2021 06:25:00 2.2 C 5.46 g/m*3 2.2 C 0 km/h
1231 01-01-2021 06:30:00 2.2 C 5.46 g/m*3 2.2 C 0 km/h
1232 01-01-2021 06:35:00 2.3 C 5.5 g/m*3 2.3 C 0 km/h
1233 01-01-2021 06:40:00 2.3 C 5.5 g/m*3 2.3 C 0 km/h
1234 01-01-2021 06:45:00 2.3 C 5.5 g/m*3 2.3 C 0 km/h
1235 01-01-2021 06:50:00 2.3 C 5.5 g/m*3 2.3 C 0 km/h
1236 01-01-2021 06:55:00 2.3 C 5.5 g/m*3 2.3 C 0 km/h
1237 01-01-2021 07:00:00 2.3 C 5.5 g/m*3 2.3 C 0 km/h
1238 01-01-2021 07:05:00 2.3 C 5.5 g/m*3 2.3 C 0 km/h
1239 01-01-2021 07:10:00 2.4 C 5.54 g/m*3 2.4 C 0 km/h
1240 01-01-2021 07:15:00 2.4 C 5.54 g/m*3 2.4 C 0 km/h
1241 01-01-2021 07:20:00 2.4 C 5.54 g/m*3 2.4 C 0 km/h
1242 01-01-2021 07:25:00 2.4 C 5.54 g/m*3 2.4 C 0 km/h
1243 01-01-2021 07:30:00 2.4 C 5.54 g/m*3 2.4 C 0 km/h
1244 01-01-2021 07:35:00 2.5 C 5.58 g/m*3 2.5 C 0 km/h
1245 01-01-2021 07:40:00 2.5 C 5.58 g/m*3 2.5 C 0 km/h
1246 01-01-2021 07:45:00 2.5 C 5.58 g/m*3 2.5 C 1.6 km/h
1247 01-01-2021 07:50:00 2.5 C 5.58 g/m*3 2.5 C 1.6 km/h
1248 01-01-2021 07:55:00 2.5 C 5.58 g/m*3 2.5 C 0 km/h
1249 01-01-2021 08:00:00 2.5 C 5.58 g/m*3 2.5 C 0 km/h
1250 01-01-2021 08:05:00 2.5 C 5.58 g/m*3 2.5 C 0 km/h
Sensor: Nr:Datum:Temp:Abs-Feuchte:Windchill:Wind:
Aussen-T/F 1251 01-01-2021 08:10:00 2.5 C 5.58 g/m*3 2.5 C 0 km/h
1252 01-01-2021 08:15:00 2.5 C 5.58 g/m*3 2.5 C 0 km/h
1253 01-01-2021 08:20:00 2.5 C 5.58 g/m*3 2.5 C 0 km/h
1254 01-01-2021 08:25:00 2.5 C 5.58 g/m*3 2.5 C 1.6 km/h
1255 01-01-2021 08:30:00 2.5 C 5.58 g/m*3 2.5 C 0 km/h
1256 01-01-2021 08:35:00 2.5 C 5.58 g/m*3 2.5 C 0 km/h
1257 01-01-2021 08:40:00 2.5 C 5.58 g/m*3 2.5 C 1.6 km/h
1258 01-01-2021 08:45:00 2.5 C 5.58 g/m*3 2.5 C 0 km/h
1259 01-01-2021 08:50:00 2.5 C 5.58 g/m*3 2.5 C 0 km/h
1260 01-01-2021 08:55:00 2.5 C 5.58 g/m*3 2.5 C 0 km/h
1261 01-01-2021 09:00:00 2.5 C 5.58 g/m*3 2.5 C 0 km/h
1262 01-01-2021 09:05:00 2.5 C 5.58 g/m*3 2.5 C 0 km/h
1263 01-01-2021 09:10:00 2.5 C 5.58 g/m*3 2.5 C 0 km/h
1264 01-01-2021 09:15:00 2.5 C 5.58 g/m*3 2.5 C 0 km/h
1265 01-01-2021 09:20:00 2.5 C 5.58 g/m*3 2.5 C 0 km/h
1266 01-01-2021 09:25:00 2.5 C 5.58 g/m*3 2.5 C 0 km/h
1267 01-01-2021 09:30:00 2.6 C 5.61 g/m*3 2.6 C 0 km/h
1268 01-01-2021 09:35:00 2.6 C 5.61 g/m*3 2.6 C 0 km/h
1269 01-01-2021 09:40:00 2.6 C 5.61 g/m*3 2.6 C 0 km/h
1270 01-01-2021 09:45:00 2.6 C 5.61 g/m*3 2.6 C 0 km/h
1271 01-01-2021 09:50:00 2.6 C 5.61 g/m*3 2.6 C 0 km/h
1272 01-01-2021 09:55:00 2.6 C 5.61 g/m*3 2.6 C 0 km/h
1273 01-01-2021 10:00:00 2.6 C 5.61 g/m*3 2.6 C 0 km/h
1274 01-01-2021 10:05:00 2.7 C 5.65 g/m*3 2.7 C 0 km/h
1275 01-01-2021 10:10:00 2.7 C 5.65 g/m*3 2.7 C 0 km/h
Sensor: Nr:Datum:Temp:Abs-Feuchte:Windchill:Wind:
Aussen-T/F 1276 01-01-2021 10:15:00 2.7 C 5.65 g/m*3 2.7 C 0 km/h
1277 01-01-2021 10:20:00 2.7 C 5.65 g/m*3 2.7 C 0 km/h
1278 01-01-2021 10:25:00 2.7 C 5.65 g/m*3 2.7 C 0 km/h
1279 01-01-2021 10:30:00 2.7 C 5.65 g/m*3 2.7 C 0 km/h
1280 01-01-2021 10:35:00 2.8 C 5.69 g/m*3 2.8 C 0 km/h
1281 01-01-2021 10:40:00 2.8 C 5.69 g/m*3 2.8 C 0 km/h
1282 01-01-2021 10:45:00 2.8 C 5.69 g/m*3 2.8 C 0 km/h
1283 01-01-2021 10:50:00 2.8 C 5.69 g/m*3 2.8 C 0 km/h
1284 01-01-2021 10:55:00 2.8 C 5.69 g/m*3 2.8 C 0 km/h
1285 01-01-2021 11:00:00 2.9 C 5.73 g/m*3 2.9 C 1.6 km/h
1286 01-01-2021 11:05:00 2.9 C 5.73 g/m*3 2.9 C 0 km/h
1287 01-01-2021 11:10:00 3 C 5.77 g/m*3 3 C 0 km/h
1288 01-01-2021 11:15:00 3 C 5.77 g/m*3 3 C 0 km/h
1289 01-01-2021 11:20:00 3.1 C 5.81 g/m*3 3.1 C 0 km/h
1290 01-01-2021 11:25:00 3.1 C 5.81 g/m*3 3.1 C 1.6 km/h
1291 01-01-2021 11:30:00 3.1 C 5.81 g/m*3 3.1 C 0 km/h
1292 01-01-2021 11:35:00 3 C 5.77 g/m*3 3 C 3.2 km/h
1293 01-01-2021 11:40:00 3 C 5.77 g/m*3 3 C 4.8 km/h
1294 01-01-2021 11:45:00 3 C 5.77 g/m*3 1.28 C 6.4 km/h
1295 01-01-2021 11:50:00 2.9 C 5.73 g/m*3 1.17 C 6.4 km/h
1296 01-01-2021 11:55:00 2.9 C 5.73 g/m*3 1.17 C 6.4 km/h
1297 01-01-2021 12:00:00 2.9 C 5.73 g/m*3 2.9 C 0 km/h
1298 01-01-2021 12:05:00 2.9 C 5.73 g/m*3 2.9 C 4.8 km/h
1299 01-01-2021 12:10:00 2.9 C 5.73 g/m*3 1.17 C 6.4 km/h
1300 01-01-2021 12:15:00 2.9 C 5.73 g/m*3 2.9 C 3.2 km/h
Sensor: Nr:Datum:Temp:Abs-Feuchte:Windchill:Wind:
Aussen-T/F 1301 01-01-2021 12:20:00 2.9 C 5.73 g/m*3 2.9 C 0 km/h
1302 01-01-2021 12:25:00 2.9 C 5.73 g/m*3 2.9 C 0 km/h
1303 01-01-2021 12:30:00 3 C 5.77 g/m*3 3 C 0 km/h
1304 01-01-2021 12:35:00 3 C 5.77 g/m*3 3 C 3.2 km/h
1305 01-01-2021 12:40:00 3 C 5.77 g/m*3 3 C 0 km/h
1306 01-01-2021 12:45:00 3 C 5.77 g/m*3 3 C 0 km/h
1307 01-01-2021 12:50:00 3 C 5.77 g/m*3 3 C 3.2 km/h
1308 01-01-2021 12:55:00 3 C 5.77 g/m*3 3 C 3.2 km/h
1309 01-01-2021 13:00:00 3 C 5.77 g/m*3 3 C 3.2 km/h
1310 01-01-2021 13:05:00 3 C 5.71 g/m*3 1.28 C 6.4 km/h
1311 01-01-2021 13:10:00 3 C 5.71 g/m*3 3 C 0 km/h
1312 01-01-2021 13:15:00 3 C 5.71 g/m*3 3 C 3.2 km/h
1313 01-01-2021 13:20:00 3 C 5.71 g/m*3 3 C 0 km/h
1314 01-01-2021 13:25:00 3.1 C 5.75 g/m*3 3.1 C 0 km/h
1315 01-01-2021 13:30:00 3.1 C 5.75 g/m*3 3.1 C 0 km/h
1316 01-01-2021 13:35:00 3.1 C 5.75 g/m*3 3.1 C 4.8 km/h
1317 01-01-2021 13:40:00 3 C 5.71 g/m*3 3 C 3.2 km/h
1318 01-01-2021 13:45:00 3 C 5.71 g/m*3 3 C 1.6 km/h
1319 01-01-2021 13:50:00 3 C 5.71 g/m*3 3 C 0 km/h
1320 01-01-2021 13:55:00 3 C 5.71 g/m*3 3 C 1.6 km/h
1321 01-01-2021 14:00:00 3 C 5.71 g/m*3 3 C 0 km/h
1322 01-01-2021 14:05:00 3 C 5.71 g/m*3 3 C 0 km/h
1323 01-01-2021 14:10:00 3 C 5.71 g/m*3 3 C 0 km/h
1324 01-01-2021 14:15:00 3.1 C 5.75 g/m*3 3.1 C 0 km/h
1325 01-01-2021 14:20:00 3.1 C 5.75 g/m*3 3.1 C 4.8 km/h
Sensor: Nr:Datum:Temp:Abs-Feuchte:Windchill:Wind:
Aussen-T/F 1326 01-01-2021 14:25:00 3.1 C 5.75 g/m*3 3.1 C 0 km/h
1327 01-01-2021 14:30:00 3.1 C 5.75 g/m*3 3.1 C 0 km/h
1328 01-01-2021 14:35:00 3.1 C 5.75 g/m*3 3.1 C 1.6 km/h
1329 01-01-2021 14:40:00 3.1 C 5.75 g/m*3 3.1 C 0 km/h
1330 01-01-2021 14:45:00 3.1 C 5.75 g/m*3 3.1 C 0 km/h
1331 01-01-2021 14:50:00 3.1 C 5.75 g/m*3 3.1 C 0 km/h
1332 01-01-2021 14:55:00 3.1 C 5.75 g/m*3 3.1 C 0 km/h
1333 01-01-2021 15:00:00 3.1 C 5.75 g/m*3 3.1 C 0 km/h
1334 01-01-2021 15:05:00 3.1 C 5.75 g/m*3 3.1 C 0 km/h
1335 01-01-2021 15:10:00 3.1 C 5.75 g/m*3 3.1 C 0 km/h
1336 01-01-2021 15:15:00 3.1 C 5.75 g/m*3 3.1 C 0 km/h
1337 01-01-2021 15:20:00 3.2 C 5.79 g/m*3 3.2 C 1.6 km/h
1338 01-01-2021 15:25:00 3.2 C 5.79 g/m*3 3.2 C 3.2 km/h
1339 01-01-2021 15:30:00 3.2 C 5.79 g/m*3 3.2 C 3.2 km/h
1340 01-01-2021 15:35:00 3.2 C 5.79 g/m*3 3.2 C 3.2 km/h
1341 01-01-2021 15:40:00 3.1 C 5.75 g/m*3 3.1 C 3.2 km/h
1342 01-01-2021 15:45:00 3.1 C 5.75 g/m*3 3.1 C 0 km/h
1343 01-01-2021 15:50:00 3.1 C 5.75 g/m*3 3.1 C 0 km/h
1344 01-01-2021 15:55:00 3.1 C 5.75 g/m*3 3.1 C 0 km/h
1345 01-01-2021 16:00:00 3.1 C 5.75 g/m*3 3.1 C 0 km/h
1346 01-01-2021 16:05:00 3 C 5.71 g/m*3 3 C 3.2 km/h
1347 01-01-2021 16:10:00 3 C 5.71 g/m*3 3 C 3.2 km/h
1348 01-01-2021 16:15:00 3 C 5.71 g/m*3 3 C 3.2 km/h
1349 01-01-2021 16:20:00 2.9 C 5.67 g/m*3 2.9 C 0 km/h
1350 01-01-2021 16:25:00 2.9 C 5.67 g/m*3 2.9 C 0 km/h
Sensor: Nr:Datum:Temp:Abs-Feuchte:Windchill:Wind:
Aussen-T/F 1351 01-01-2021 16:30:00 2.9 C 5.67 g/m*3 2.9 C 0 km/h
1352 01-01-2021 16:35:00 2.8 C 5.63 g/m*3 2.8 C 0 km/h
1353 01-01-2021 16:40:00 2.8 C 5.63 g/m*3 2.8 C 0 km/h
1354 01-01-2021 16:45:00 2.8 C 5.63 g/m*3 2.8 C 0 km/h
1355 01-01-2021 16:50:00 2.8 C 5.63 g/m*3 2.8 C 0 km/h
1356 01-01-2021 16:55:00 2.8 C 5.63 g/m*3 2.8 C 0 km/h
1357 01-01-2021 17:00:00 2.7 C 5.59 g/m*3 2.7 C 0 km/h
1358 01-01-2021 17:05:00 2.7 C 5.59 g/m*3 2.7 C 0 km/h
1359 01-01-2021 17:10:00 2.7 C 5.59 g/m*3 2.7 C 0 km/h
1360 01-01-2021 17:15:00 2.7 C 5.59 g/m*3 2.7 C 0 km/h
1361 01-01-2021 17:20:00 2.7 C 5.59 g/m*3 2.7 C 0 km/h
1362 01-01-2021 17:25:00 2.7 C 5.59 g/m*3 2.7 C 0 km/h
1363 01-01-2021 17:30:00 2.7 C 5.59 g/m*3 2.7 C 0 km/h
1364 01-01-2021 17:35:00 2.7 C 5.59 g/m*3 2.7 C 0 km/h
1365 01-01-2021 17:40:00 2.7 C 5.59 g/m*3 2.7 C 0 km/h
1366 01-01-2021 17:45:00 2.7 C 5.59 g/m*3 2.7 C 0 km/h
1367 01-01-2021 17:50:00 2.6 C 5.56 g/m*3 2.6 C 0 km/h
1368 01-01-2021 17:55:00 2.6 C 5.56 g/m*3 2.6 C 0 km/h
1369 01-01-2021 18:00:00 2.6 C 5.56 g/m*3 2.6 C 0 km/h
1370 01-01-2021 18:05:00 2.6 C 5.56 g/m*3 2.6 C 0 km/h
1371 01-01-2021 18:10:00 2.6 C 5.56 g/m*3 2.6 C 0 km/h
1372 01-01-2021 18:15:00 2.6 C 5.56 g/m*3 2.6 C 0 km/h
1373 01-01-2021 18:20:00 2.6 C 5.56 g/m*3 2.6 C 0 km/h
1374 01-01-2021 18:25:00 2.6 C 5.56 g/m*3 2.6 C 0 km/h
1375 01-01-2021 18:30:00 2.5 C 5.52 g/m*3 2.5 C 0 km/h
Sensor: Nr:Datum:Temp:Abs-Feuchte:Windchill:Wind:
Aussen-T/F 1376 01-01-2021 18:35:00 2.5 C 5.52 g/m*3 2.5 C 0 km/h
1377 01-01-2021 18:40:00 2.5 C 5.52 g/m*3 2.5 C 0 km/h
1378 01-01-2021 18:45:00 2.4 C 5.48 g/m*3 2.4 C 0 km/h
1379 01-01-2021 18:50:00 2.4 C 5.48 g/m*3 2.4 C 0 km/h
1380 01-01-2021 18:55:00 2.4 C 5.48 g/m*3 2.4 C 0 km/h
1381 01-01-2021 19:00:00 2.3 C 5.44 g/m*3 2.3 C 0 km/h
1382 01-01-2021 19:05:00 2.2 C 5.41 g/m*3 2.2 C 0 km/h
1383 01-01-2021 19:10:00 2.1 C 5.37 g/m*3 2.1 C 0 km/h
1384 01-01-2021 19:15:00 2 C 5.33 g/m*3 2 C 0 km/h
1385 01-01-2021 19:20:00 1.9 C 5.3 g/m*3 1.9 C 0 km/h
1386 01-01-2021 19:25:00 1.9 C 5.3 g/m*3 1.9 C 0 km/h
1387 01-01-2021 19:30:00 1.8 C 5.26 g/m*3 1.8 C 0 km/h
1388 01-01-2021 19:35:00 1.7 C 5.23 g/m*3 1.7 C 0 km/h
1389 01-01-2021 19:40:00 1.6 C 5.19 g/m*3 1.6 C 0 km/h
1390 01-01-2021 19:45:00 1.5 C 5.16 g/m*3 1.5 C 0 km/h
1391 01-01-2021 19:50:00 1.4 C 5.12 g/m*3 1.4 C 0 km/h
1392 01-01-2021 19:55:00 1.3 C 5.09 g/m*3 1.3 C 0 km/h
1393 01-01-2021 20:00:00 1.3 C 5.09 g/m*3 1.3 C 0 km/h
1394 01-01-2021 20:05:00 1.2 C 5.05 g/m*3 1.2 C 0 km/h
1395 01-01-2021 20:10:00 1.2 C 5.05 g/m*3 1.2 C 0 km/h
1396 01-01-2021 20:15:00 1.3 C 5.09 g/m*3 1.3 C 0 km/h
1397 01-01-2021 20:20:00 1.3 C 5.09 g/m*3 1.3 C 0 km/h
1398 01-01-2021 20:25:00 1.4 C 5.12 g/m*3 1.4 C 0 km/h
1399 01-01-2021 20:30:00 1.4 C 5.12 g/m*3 1.4 C 0 km/h
1400 01-01-2021 20:35:00 1.4 C 5.12 g/m*3 1.4 C 0 km/h
Sensor: Nr:Datum:Temp:Abs-Feuchte:Windchill:Wind:
Aussen-T/F 1401 01-01-2021 20:40:00 1.3 C 5.09 g/m*3 1.3 C 0 km/h
1402 01-01-2021 20:45:00 1.2 C 5.05 g/m*3 1.2 C 0 km/h
1403 01-01-2021 20:50:00 1.1 C 5.02 g/m*3 1.1 C 0 km/h
1404 01-01-2021 20:55:00 1.1 C 5.02 g/m*3 1.1 C 0 km/h
1405 01-01-2021 21:00:00 1.1 C 5.02 g/m*3 1.1 C 0 km/h
1406 01-01-2021 21:05:00 1.1 C 5.02 g/m*3 1.1 C 0 km/h
1407 01-01-2021 21:10:00 1.1 C 5.02 g/m*3 1.1 C 0 km/h
1408 01-01-2021 21:15:00 1 C 4.98 g/m*3 1 C 0 km/h
1409 01-01-2021 21:20:00 0.9 C 4.95 g/m*3 0.9 C 0 km/h
1410 01-01-2021 21:25:00 0.8 C 4.91 g/m*3 0.8 C 0 km/h
1411 01-01-2021 21:30:00 0.7 C 4.88 g/m*3 0.7 C 0 km/h
1412 01-01-2021 21:35:00 0.7 C 4.88 g/m*3 0.7 C 0 km/h
1413 01-01-2021 21:40:00 0.6 C 4.85 g/m*3 0.6 C 0 km/h
1414 01-01-2021 21:45:00 0.6 C 4.85 g/m*3 0.6 C 0 km/h
1415 01-01-2021 21:50:00 0.6 C 4.85 g/m*3 0.6 C 0 km/h
1416 01-01-2021 21:55:00 0.4 C 4.78 g/m*3 0.4 C 0 km/h
1417 01-01-2021 22:00:00 0.4 C 4.78 g/m*3 0.4 C 0 km/h
1418 01-01-2021 22:05:00 0.4 C 4.78 g/m*3 0.4 C 0 km/h
1419 01-01-2021 22:10:00 0.4 C 4.78 g/m*3 0.4 C 0 km/h
1420 01-01-2021 22:15:00 0.4 C 4.78 g/m*3 0.4 C 0 km/h
1421 01-01-2021 22:20:00 0.5 C 4.81 g/m*3 0.5 C 0 km/h
1422 01-01-2021 22:25:00 0.6 C 4.9 g/m*3 0.6 C 0 km/h
1423 01-01-2021 22:30:00 0.7 C 4.93 g/m*3 0.7 C 0 km/h
1424 01-01-2021 22:35:00 0.7 C 4.93 g/m*3 0.7 C 0 km/h
1425 01-01-2021 22:40:00 0.8 C 4.97 g/m*3 0.8 C 0 km/h
Sensor: Nr:Datum:Temp:Abs-Feuchte:Windchill:Wind:
Aussen-T/F 1426 01-01-2021 22:45:00 0.8 C 4.97 g/m*3 0.8 C 0 km/h
1427 01-01-2021 22:50:00 0.8 C 4.97 g/m*3 0.8 C 0 km/h
1428 01-01-2021 22:55:00 0.8 C 4.97 g/m*3 0.8 C 0 km/h
1429 01-01-2021 23:00:00 0.8 C 4.97 g/m*3 0.8 C 0 km/h
1430 01-01-2021 23:05:00 0.8 C 4.97 g/m*3 0.8 C 0 km/h
1431 01-01-2021 23:10:00 0.8 C 4.97 g/m*3 0.8 C 0 km/h
1432 01-01-2021 23:15:00 0.8 C 4.97 g/m*3 0.8 C 0 km/h
1433 01-01-2021 23:20:00 0.8 C 4.97 g/m*3 0.8 C 0 km/h
1434 01-01-2021 23:25:00 0.8 C 4.97 g/m*3 0.8 C 0 km/h
1435 01-01-2021 23:30:00 0.8 C 4.97 g/m*3 0.8 C 0 km/h
1436 01-01-2021 23:35:00 0.8 C 4.97 g/m*3 0.8 C 0 km/h
1437 01-01-2021 23:40:00 0.7 C 4.93 g/m*3 0.7 C 0 km/h
1438 01-01-2021 23:45:00 0.7 C 4.93 g/m*3 0.7 C 0 km/h
1439 01-01-2021 23:50:00 0.7 C 4.93 g/m*3 0.7 C 0 km/h
1440 01-01-2021 23:55:00 0.7 C 4.93 g/m*3 0.7 C 0 km/h
1441 02-01-2021 00:00:00 0.7 C 4.93 g/m*3 0.7 C 0 km/h
1442 02-01-2021 00:05:00 0.7 C 4.93 g/m*3 0.7 C 0 km/h
1443 02-01-2021 00:10:00 0.8 C 4.97 g/m*3 0.8 C 0 km/h
1444 02-01-2021 00:15:00 0.8 C 4.97 g/m*3 0.8 C 0 km/h
1445 02-01-2021 00:20:00 0.8 C 4.97 g/m*3 0.8 C 0 km/h
1446 02-01-2021 00:25:00 0.8 C 4.97 g/m*3 0.8 C 0 km/h
1447 02-01-2021 00:30:00 0.8 C 4.97 g/m*3 0.8 C 0 km/h
1448 02-01-2021 00:35:00 0.8 C 4.97 g/m*3 0.8 C 0 km/h
1449 02-01-2021 00:40:00 0.8 C 4.97 g/m*3 0.8 C 0 km/h
1450 02-01-2021 00:45:00 0.9 C 5 g/m*3 0.9 C 3.2 km/h
Sensor: Nr:Datum:Temp:Abs-Feuchte:Windchill:Wind:
Aussen-T/F 1451 02-01-2021 00:50:00 0.9 C 5 g/m*3 0.9 C 4.8 km/h
1452 02-01-2021 00:55:00 0.9 C 5 g/m*3 -1.14 C 6.4 km/h
1453 02-01-2021 01:00:00 0.8 C 4.97 g/m*3 0.8 C 3.2 km/h
1454 02-01-2021 01:05:00 0.8 C 4.97 g/m*3 0.8 C 1.6 km/h
1455 02-01-2021 01:10:00 0.8 C 4.97 g/m*3 0.8 C 3.2 km/h
1456 02-01-2021 01:15:00 0.8 C 4.97 g/m*3 0.8 C 1.6 km/h
1457 02-01-2021 01:20:00 0.8 C 4.97 g/m*3 0.8 C 3.2 km/h
1458 02-01-2021 01:25:00 0.8 C 4.97 g/m*3 0.8 C 3.2 km/h
1459 02-01-2021 01:30:00 0.7 C 4.93 g/m*3 0.7 C 0 km/h
1460 02-01-2021 01:35:00 0.7 C 4.93 g/m*3 0.7 C 0 km/h
1461 02-01-2021 01:40:00 0.7 C 4.93 g/m*3 0.7 C 0 km/h
1462 02-01-2021 01:45:00 0.7 C 4.93 g/m*3 0.7 C 0 km/h
1463 02-01-2021 01:50:00 0.7 C 4.93 g/m*3 0.7 C 0 km/h
1464 02-01-2021 01:55:00 0.7 C 4.93 g/m*3 0.7 C 0 km/h
1465 02-01-2021 02:00:00 0.7 C 4.93 g/m*3 0.7 C 0 km/h
1466 02-01-2021 02:05:00 0.7 C 4.93 g/m*3 0.7 C 0 km/h
1467 02-01-2021 02:10:00 0.7 C 4.93 g/m*3 0.7 C 0 km/h
1468 02-01-2021 02:15:00 0.7 C 4.93 g/m*3 0.7 C 0 km/h
1469 02-01-2021 02:20:00 0.7 C 4.93 g/m*3 0.7 C 0 km/h
1470 02-01-2021 02:25:00 0.8 C 4.97 g/m*3 0.8 C 0 km/h
1471 02-01-2021 02:30:00 0.8 C 4.97 g/m*3 0.8 C 0 km/h
1472 02-01-2021 02:35:00 0.8 C 4.97 g/m*3 0.8 C 0 km/h
1473 02-01-2021 02:40:00 0.8 C 4.97 g/m*3 0.8 C 0 km/h
1474 02-01-2021 02:45:00 0.8 C 4.97 g/m*3 0.8 C 0 km/h
1475 02-01-2021 02:50:00 0.8 C 4.97 g/m*3 0.8 C 0 km/h
Sensor: Nr:Datum:Temp:Abs-Feuchte:Windchill:Wind:
Aussen-T/F 1476 02-01-2021 02:55:00 0.8 C 4.97 g/m*3 0.8 C 0 km/h
1477 02-01-2021 03:00:00 0.8 C 4.97 g/m*3 0.8 C 0 km/h
1478 02-01-2021 03:05:00 0.8 C 4.97 g/m*3 0.8 C 0 km/h
1479 02-01-2021 03:10:00 0.8 C 4.97 g/m*3 0.8 C 0 km/h
1480 02-01-2021 03:15:00 0.8 C 4.97 g/m*3 0.8 C 0 km/h
1481 02-01-2021 03:20:00 0.7 C 4.93 g/m*3 0.7 C 0 km/h
1482 02-01-2021 03:25:00 0.7 C 4.93 g/m*3 0.7 C 0 km/h
1483 02-01-2021 03:30:00 0.7 C 4.93 g/m*3 0.7 C 0 km/h
1484 02-01-2021 03:35:00 0.6 C 4.9 g/m*3 0.6 C 0 km/h
1485 02-01-2021 03:40:00 0.6 C 4.9 g/m*3 0.6 C 0 km/h
1486 02-01-2021 03:45:00 0.6 C 4.9 g/m*3 0.6 C 0 km/h
1487 02-01-2021 03:50:00 0.5 C 4.86 g/m*3 0.5 C 4.8 km/h
1488 02-01-2021 03:55:00 0.5 C 4.86 g/m*3 0.5 C 4.8 km/h
1489 02-01-2021 04:00:00 0.4 C 4.83 g/m*3 0.4 C 1.6 km/h
1490 02-01-2021 04:05:00 0.4 C 4.83 g/m*3 0.4 C 1.6 km/h
1491 02-01-2021 04:10:00 0.4 C 4.83 g/m*3 0.4 C 1.6 km/h
1492 02-01-2021 04:15:00 0.4 C 4.83 g/m*3 0.4 C 4.8 km/h
1493 02-01-2021 04:20:00 0.4 C 4.83 g/m*3 0.4 C 0 km/h
1494 02-01-2021 04:25:00 0.3 C 4.8 g/m*3 0.3 C 0 km/h
1495 02-01-2021 04:30:00 0.3 C 4.8 g/m*3 0.3 C 1.6 km/h
1496 02-01-2021 04:35:00 0.3 C 4.8 g/m*3 0.3 C 1.6 km/h
1497 02-01-2021 04:40:00 0.4 C 4.83 g/m*3 0.4 C 3.2 km/h
1498 02-01-2021 04:45:00 0.4 C 4.83 g/m*3 0.4 C 3.2 km/h
1499 02-01-2021 04:50:00 0.4 C 4.83 g/m*3 0.4 C 3.2 km/h
1500 02-01-2021 04:55:00 0.4 C 4.83 g/m*3 0.4 C 1.6 km/h
Sensor: Nr:Datum:Temp:Abs-Feuchte:Windchill:Wind:
Aussen-T/F 1501 02-01-2021 05:00:00 0.4 C 4.83 g/m*3 0.4 C 1.6 km/h
1502 02-01-2021 05:05:00 0.3 C 4.8 g/m*3 0.3 C 1.6 km/h
1503 02-01-2021 05:10:00 0.4 C 4.83 g/m*3 0.4 C 4.8 km/h
1504 02-01-2021 05:15:00 0.3 C 4.8 g/m*3 0.3 C 4.8 km/h
1505 02-01-2021 05:20:00 0.3 C 4.8 g/m*3 0.3 C 3.2 km/h
1506 02-01-2021 05:25:00 0.3 C 4.8 g/m*3 0.3 C 1.6 km/h
1507 02-01-2021 05:30:00 0.3 C 4.8 g/m*3 -1.84 C 6.4 km/h
1508 02-01-2021 05:35:00 0.3 C 4.8 g/m*3 0.3 C 3.2 km/h
1509 02-01-2021 05:40:00 0.3 C 4.8 g/m*3 0.3 C 3.2 km/h
1510 02-01-2021 05:45:00 0.3 C 4.8 g/m*3 0.3 C 3.2 km/h
1511 02-01-2021 05:50:00 0.3 C 4.8 g/m*3 0.3 C 1.6 km/h
1512 02-01-2021 05:55:00 0.4 C 4.83 g/m*3 0.4 C 1.6 km/h
1513 02-01-2021 06:00:00 0.4 C 4.83 g/m*3 0.4 C 3.2 km/h
1514 02-01-2021 06:05:00 0.4 C 4.83 g/m*3 0.4 C 1.6 km/h
1515 02-01-2021 06:10:00 0.4 C 4.83 g/m*3 0.4 C 1.6 km/h
1516 02-01-2021 06:15:00 0.4 C 4.83 g/m*3 0.4 C 3.2 km/h
1517 02-01-2021 06:20:00 0.4 C 4.83 g/m*3 0.4 C 4.8 km/h
1518 02-01-2021 06:25:00 0.5 C 4.86 g/m*3 -1.6 C 6.4 km/h
1519 02-01-2021 06:30:00 0.4 C 4.83 g/m*3 0.4 C 1.6 km/h
1520 02-01-2021 06:35:00 0.5 C 4.86 g/m*3 0.5 C 3.2 km/h
1521 02-01-2021 06:40:00 0.4 C 4.83 g/m*3 0.4 C 4.8 km/h
1522 02-01-2021 06:45:00 0.4 C 4.83 g/m*3 0.4 C 1.6 km/h
1523 02-01-2021 06:50:00 0.5 C 4.86 g/m*3 0.5 C 4.8 km/h
1524 02-01-2021 06:55:00 0.4 C 4.83 g/m*3 0.4 C 4.8 km/h
1525 02-01-2021 07:00:00 0.4 C 4.83 g/m*3 0.4 C 4.8 km/h
Sensor: Nr:Datum:Temp:Abs-Feuchte:Windchill:Wind:
Aussen-T/F 1526 02-01-2021 07:05:00 0.4 C 4.83 g/m*3 0.4 C 3.2 km/h
1527 02-01-2021 07:10:00 0.4 C 4.83 g/m*3 0.4 C 4.8 km/h
1528 02-01-2021 07:15:00 0.4 C 4.83 g/m*3 0.4 C 3.2 km/h
1529 02-01-2021 07:20:00 0.5 C 4.86 g/m*3 0.5 C 3.2 km/h
1530 02-01-2021 07:25:00 0.4 C 4.83 g/m*3 0.4 C 4.8 km/h
1531 02-01-2021 07:30:00 0.4 C 4.83 g/m*3 0.4 C 4.8 km/h
1532 02-01-2021 07:35:00 0.4 C 4.83 g/m*3 0.4 C 4.8 km/h
1533 02-01-2021 07:40:00 0.4 C 4.83 g/m*3 0.4 C 3.2 km/h
1534 02-01-2021 07:45:00 0.4 C 4.83 g/m*3 0.4 C 1.6 km/h
1535 02-01-2021 07:50:00 0.4 C 4.83 g/m*3 0.4 C 3.2 km/h
1536 02-01-2021 07:55:00 0.4 C 4.83 g/m*3 0.4 C 4.8 km/h
1537 02-01-2021 08:00:00 0.4 C 4.83 g/m*3 0.4 C 1.6 km/h
1538 02-01-2021 08:05:00 0.4 C 4.83 g/m*3 0.4 C 3.2 km/h
1539 02-01-2021 08:10:00 0.4 C 4.83 g/m*3 0.4 C 3.2 km/h
1540 02-01-2021 08:15:00 0.4 C 4.83 g/m*3 0.4 C 4.8 km/h
1541 02-01-2021 08:20:00 0.4 C 4.83 g/m*3 0.4 C 3.2 km/h
1542 02-01-2021 08:25:00 0.4 C 4.83 g/m*3 0.4 C 0 km/h
1543 02-01-2021 08:30:00 0.4 C 4.83 g/m*3 0.4 C 0 km/h
1544 02-01-2021 08:35:00 0.4 C 4.83 g/m*3 0.4 C 1.6 km/h
1545 02-01-2021 08:40:00 0.4 C 4.83 g/m*3 0.4 C 3.2 km/h
1546 02-01-2021 08:45:00 0.4 C 4.83 g/m*3 0.4 C 1.6 km/h
1547 02-01-2021 08:50:00 0.4 C 4.83 g/m*3 0.4 C 0 km/h
1548 02-01-2021 08:55:00 0.4 C 4.83 g/m*3 0.4 C 0 km/h
1549 02-01-2021 09:00:00 0.4 C 4.83 g/m*3 0.4 C 1.6 km/h
1550 02-01-2021 09:05:00 0.5 C 4.86 g/m*3 0.5 C 1.6 km/h
Sensor: Nr:Datum:Temp:Abs-Feuchte:Windchill:Wind:
Aussen-T/F 1551 02-01-2021 09:10:00 0.4 C 4.83 g/m*3 0.4 C 0 km/h
1552 02-01-2021 09:15:00 0.5 C 4.86 g/m*3 0.5 C 0 km/h
1553 02-01-2021 09:20:00 0.5 C 4.86 g/m*3 0.5 C 1.6 km/h
1554 02-01-2021 09:25:00 0.5 C 4.86 g/m*3 0.5 C 0 km/h
1555 02-01-2021 09:30:00 0.5 C 4.86 g/m*3 0.5 C 0 km/h
1556 02-01-2021 09:35:00 0.6 C 4.9 g/m*3 0.6 C 1.6 km/h
1557 02-01-2021 09:40:00 0.6 C 4.9 g/m*3 0.6 C 3.2 km/h
1558 02-01-2021 09:45:00 0.6 C 4.9 g/m*3 0.6 C 0 km/h
1559 02-01-2021 09:50:00 0.6 C 4.9 g/m*3 0.6 C 0 km/h
1560 02-01-2021 09:55:00 0.7 C 4.93 g/m*3 0.7 C 3.2 km/h
1561 02-01-2021 10:00:00 0.7 C 4.93 g/m*3 0.7 C 1.6 km/h
1562 02-01-2021 10:05:00 0.7 C 4.93 g/m*3 0.7 C 0 km/h
1563 02-01-2021 10:10:00 0.7 C 4.93 g/m*3 0.7 C 0 km/h
1564 02-01-2021 10:15:00 0.8 C 4.97 g/m*3 0.8 C 0 km/h
1565 02-01-2021 10:20:00 0.8 C 4.97 g/m*3 0.8 C 1.6 km/h
1566 02-01-2021 10:25:00 0.8 C 4.97 g/m*3 0.8 C 0 km/h
1567 02-01-2021 10:30:00 0.8 C 4.97 g/m*3 0.8 C 0 km/h
1568 02-01-2021 10:35:00 0.8 C 4.97 g/m*3 0.8 C 1.6 km/h
1569 02-01-2021 10:40:00 0.9 C 5 g/m*3 0.9 C 3.2 km/h
1570 02-01-2021 10:45:00 0.9 C 5 g/m*3 0.9 C 1.6 km/h
1571 02-01-2021 10:50:00 0.9 C 5 g/m*3 0.9 C 0 km/h
1572 02-01-2021 10:55:00 1 C 5.03 g/m*3 1 C 0 km/h
1573 02-01-2021 11:00:00 1.1 C 5.07 g/m*3 1.1 C 0 km/h
1574 02-01-2021 11:05:00 1.1 C 5.07 g/m*3 1.1 C 1.6 km/h
1575 02-01-2021 11:10:00 1.2 C 5.1 g/m*3 1.2 C 0 km/h
Sensor: Nr:Datum:Temp:Abs-Feuchte:Windchill:Wind:
Aussen-T/F 1576 02-01-2021 11:15:00 1.2 C 5.1 g/m*3 1.2 C 1.6 km/h
1577 02-01-2021 11:20:00 1.2 C 5.1 g/m*3 1.2 C 1.6 km/h
1578 02-01-2021 11:25:00 1.3 C 5.14 g/m*3 1.3 C 0 km/h
1579 02-01-2021 11:30:00 1.3 C 5.14 g/m*3 1.3 C 0 km/h
1580 02-01-2021 11:35:00 1.3 C 5.14 g/m*3 1.3 C 0 km/h
1581 02-01-2021 11:40:00 1.4 C 5.17 g/m*3 1.4 C 0 km/h
1582 02-01-2021 11:45:00 1.4 C 5.17 g/m*3 1.4 C 0 km/h
1583 02-01-2021 11:50:00 1.5 C 5.16 g/m*3 1.5 C 0 km/h
1584 02-01-2021 11:55:00 1.6 C 5.25 g/m*3 1.6 C 0 km/h
1585 02-01-2021 12:00:00 1.6 C 5.19 g/m*3 1.6 C 1.6 km/h
1586 02-01-2021 12:05:00 1.7 C 5.23 g/m*3 1.7 C 0 km/h
1587 02-01-2021 12:10:00 1.8 C 5.26 g/m*3 1.8 C 0 km/h
1588 02-01-2021 12:15:00 1.8 C 5.26 g/m*3 1.8 C 1.6 km/h
1589 02-01-2021 12:20:00 1.8 C 5.26 g/m*3 1.8 C 0 km/h
1590 02-01-2021 12:25:00 1.8 C 5.26 g/m*3 1.8 C 0 km/h
1591 02-01-2021 12:30:00 1.8 C 5.26 g/m*3 1.8 C 3.2 km/h
1592 02-01-2021 12:35:00 1.8 C 5.26 g/m*3 1.8 C 0 km/h
1593 02-01-2021 12:40:00 1.9 C 5.3 g/m*3 1.9 C 0 km/h
1594 02-01-2021 12:45:00 2 C 5.28 g/m*3 2 C 0 km/h
1595 02-01-2021 12:50:00 2.1 C 5.31 g/m*3 2.1 C 0 km/h
1596 02-01-2021 12:55:00 2.1 C 5.31 g/m*3 2.1 C 3.2 km/h
1597 02-01-2021 13:00:00 2.1 C 5.31 g/m*3 2.1 C 1.6 km/h
1598 02-01-2021 13:05:00 2.1 C 5.31 g/m*3 2.1 C 3.2 km/h
1599 02-01-2021 13:10:00 2.1 C 5.26 g/m*3 2.1 C 3.2 km/h
1600 02-01-2021 13:15:00 2.2 C 5.29 g/m*3 2.2 C 0 km/h
Sensor: Nr:Datum:Temp:Abs-Feuchte:Windchill:Wind:
Aussen-T/F 1601 02-01-2021 13:20:00 2.2 C 5.35 g/m*3 2.2 C 0 km/h
1602 02-01-2021 13:25:00 2.2 C 5.35 g/m*3 2.2 C 3.2 km/h
1603 02-01-2021 13:30:00 2.3 C 5.39 g/m*3 2.3 C 3.2 km/h
1604 02-01-2021 13:35:00 2.3 C 5.33 g/m*3 2.3 C 0 km/h
1605 02-01-2021 13:40:00 2.3 C 5.33 g/m*3 2.3 C 0 km/h
1606 02-01-2021 13:45:00 2.4 C 5.37 g/m*3 2.4 C 0 km/h
1607 02-01-2021 13:50:00 2.3 C 5.33 g/m*3 2.3 C 0 km/h
1608 02-01-2021 13:55:00 2.3 C 5.33 g/m*3 2.3 C 1.6 km/h
1609 02-01-2021 14:00:00 2.3 C 5.33 g/m*3 2.3 C 1.6 km/h
1610 02-01-2021 14:05:00 2.4 C 5.37 g/m*3 2.4 C 3.2 km/h
1611 02-01-2021 14:10:00 2.4 C 5.37 g/m*3 2.4 C 0 km/h
1612 02-01-2021 14:15:00 2.4 C 5.37 g/m*3 2.4 C 0 km/h
1613 02-01-2021 14:20:00 2.4 C 5.37 g/m*3 2.4 C 1.6 km/h
1614 02-01-2021 14:25:00 2.4 C 5.37 g/m*3 2.4 C 0 km/h
1615 02-01-2021 14:30:00 2.4 C 5.37 g/m*3 2.4 C 1.6 km/h
1616 02-01-2021 14:35:00 2.4 C 5.37 g/m*3 2.4 C 0 km/h
1617 02-01-2021 14:40:00 2.5 C 5.4 g/m*3 2.5 C 0 km/h
1618 02-01-2021 14:45:00 2.5 C 5.4 g/m*3 2.5 C 0 km/h
1619 02-01-2021 14:50:00 2.5 C 5.4 g/m*3 2.5 C 0 km/h
1620 02-01-2021 14:55:00 2.5 C 5.4 g/m*3 2.5 C 0 km/h
1621 02-01-2021 15:00:00 2.6 C 5.44 g/m*3 2.6 C 3.2 km/h
1622 02-01-2021 15:05:00 2.6 C 5.44 g/m*3 2.6 C 0 km/h
1623 02-01-2021 15:10:00 2.6 C 5.44 g/m*3 2.6 C 3.2 km/h
1624 02-01-2021 15:15:00 2.6 C 5.44 g/m*3 2.6 C 1.6 km/h
1625 02-01-2021 15:20:00 2.6 C 5.44 g/m*3 2.6 C 3.2 km/h
Sensor: Nr:Datum:Temp:Abs-Feuchte:Windchill:Wind:
Aussen-T/F 1626 02-01-2021 15:25:00 2.6 C 5.44 g/m*3 2.6 C 3.2 km/h
1627 02-01-2021 15:30:00 2.7 C 5.48 g/m*3 2.7 C 0 km/h
1628 02-01-2021 15:35:00 2.7 C 5.48 g/m*3 2.7 C 0 km/h
1629 02-01-2021 15:40:00 2.7 C 5.48 g/m*3 2.7 C 1.6 km/h
1630 02-01-2021 15:45:00 2.7 C 5.48 g/m*3 2.7 C 0 km/h
1631 02-01-2021 15:50:00 2.7 C 5.48 g/m*3 2.7 C 1.6 km/h
1632 02-01-2021 15:55:00 2.7 C 5.48 g/m*3 2.7 C 1.6 km/h
1633 02-01-2021 16:00:00 2.7 C 5.48 g/m*3 2.7 C 1.6 km/h
1634 02-01-2021 16:05:00 2.6 C 5.44 g/m*3 2.6 C 1.6 km/h
1635 02-01-2021 16:10:00 2.6 C 5.44 g/m*3 2.6 C 0 km/h
1636 02-01-2021 16:15:00 2.6 C 5.44 g/m*3 2.6 C 0 km/h
1637 02-01-2021 16:20:00 2.6 C 5.44 g/m*3 2.6 C 0 km/h
1638 02-01-2021 16:25:00 2.6 C 5.44 g/m*3 2.6 C 0 km/h
1639 02-01-2021 16:30:00 2.5 C 5.4 g/m*3 2.5 C 0 km/h
1640 02-01-2021 16:35:00 2.5 C 5.4 g/m*3 2.5 C 0 km/h
1641 02-01-2021 16:40:00 2.5 C 5.4 g/m*3 2.5 C 1.6 km/h
1642 02-01-2021 16:45:00 2.4 C 5.37 g/m*3 2.4 C 0 km/h
1643 02-01-2021 16:50:00 2.4 C 5.37 g/m*3 2.4 C 0 km/h
1644 02-01-2021 16:55:00 2.3 C 5.33 g/m*3 2.3 C 0 km/h
1645 02-01-2021 17:00:00 2.3 C 5.33 g/m*3 2.3 C 3.2 km/h
1646 02-01-2021 17:05:00 2.3 C 5.33 g/m*3 2.3 C 0 km/h
1647 02-01-2021 17:10:00 2.3 C 5.39 g/m*3 2.3 C 0 km/h
1648 02-01-2021 17:15:00 2.2 C 5.35 g/m*3 2.2 C 1.6 km/h
1649 02-01-2021 17:20:00 2.2 C 5.35 g/m*3 2.2 C 0 km/h
1650 02-01-2021 17:25:00 2.2 C 5.35 g/m*3 2.2 C 0 km/h
Sensor: Nr:Datum:Temp:Abs-Feuchte:Windchill:Wind:
Aussen-T/F 1651 02-01-2021 17:30:00 2.2 C 5.35 g/m*3 2.2 C 0 km/h
1652 02-01-2021 17:35:00 2.1 C 5.31 g/m*3 2.1 C 0 km/h
1653 02-01-2021 17:40:00 2.1 C 5.31 g/m*3 2.1 C 0 km/h
1654 02-01-2021 17:45:00 2.1 C 5.31 g/m*3 2.1 C 0 km/h
1655 02-01-2021 17:50:00 2.1 C 5.31 g/m*3 2.1 C 0 km/h
1656 02-01-2021 17:55:00 2.1 C 5.31 g/m*3 2.1 C 0 km/h
1657 02-01-2021 18:00:00 2.1 C 5.31 g/m*3 2.1 C 0 km/h
1658 02-01-2021 18:05:00 2.1 C 5.31 g/m*3 2.1 C 0 km/h
1659 02-01-2021 18:10:00 2.1 C 5.31 g/m*3 2.1 C 0 km/h
1660 02-01-2021 18:15:00 2.1 C 5.31 g/m*3 2.1 C 0 km/h
1661 02-01-2021 18:20:00 2 C 5.28 g/m*3 2 C 0 km/h
1662 02-01-2021 18:25:00 2 C 5.28 g/m*3 2 C 0 km/h
1663 02-01-2021 18:30:00 2 C 5.28 g/m*3 2 C 0 km/h
1664 02-01-2021 18:35:00 2 C 5.28 g/m*3 2 C 0 km/h
1665 02-01-2021 18:40:00 2 C 5.28 g/m*3 2 C 0 km/h
1666 02-01-2021 18:45:00 2 C 5.28 g/m*3 2 C 0 km/h
1667 02-01-2021 18:50:00 2 C 5.28 g/m*3 2 C 0 km/h
1668 02-01-2021 18:55:00 2 C 5.28 g/m*3 2 C 0 km/h
1669 02-01-2021 19:00:00 1.9 C 5.24 g/m*3 1.9 C 0 km/h
1670 02-01-2021 19:05:00 1.9 C 5.24 g/m*3 1.9 C 0 km/h
1671 02-01-2021 19:10:00 1.9 C 5.24 g/m*3 1.9 C 0 km/h
1672 02-01-2021 19:15:00 1.9 C 5.24 g/m*3 1.9 C 0 km/h
1673 02-01-2021 19:20:00 2 C 5.28 g/m*3 2 C 0 km/h
1674 02-01-2021 19:25:00 2 C 5.33 g/m*3 2 C 0 km/h
1675 02-01-2021 19:30:00 2 C 5.33 g/m*3 2 C 0 km/h
Sensor: Nr:Datum:Temp:Abs-Feuchte:Windchill:Wind:
Aussen-T/F 1676 02-01-2021 19:35:00 2 C 5.33 g/m*3 2 C 0 km/h
1677 02-01-2021 19:40:00 2 C 5.33 g/m*3 2 C 0 km/h
1678 02-01-2021 19:45:00 2 C 5.33 g/m*3 2 C 0 km/h
1679 02-01-2021 19:50:00 2 C 5.33 g/m*3 2 C 0 km/h
1680 02-01-2021 19:55:00 1.9 C 5.3 g/m*3 1.9 C 0 km/h
1681 02-01-2021 20:00:00 1.9 C 5.3 g/m*3 1.9 C 0 km/h
1682 02-01-2021 20:05:00 1.9 C 5.3 g/m*3 1.9 C 0 km/h
1683 02-01-2021 20:10:00 1.9 C 5.3 g/m*3 1.9 C 0 km/h
1684 02-01-2021 20:15:00 1.9 C 5.3 g/m*3 1.9 C 0 km/h
1685 02-01-2021 20:20:00 1.9 C 5.3 g/m*3 1.9 C 0 km/h
1686 02-01-2021 20:25:00 1.9 C 5.3 g/m*3 1.9 C 0 km/h
1687 02-01-2021 20:30:00 1.9 C 5.3 g/m*3 1.9 C 0 km/h
1688 02-01-2021 20:35:00 1.9 C 5.3 g/m*3 1.9 C 0 km/h
1689 02-01-2021 20:40:00 1.9 C 5.3 g/m*3 1.9 C 0 km/h
1690 02-01-2021 20:45:00 1.9 C 5.3 g/m*3 1.9 C 0 km/h
1691 02-01-2021 20:50:00 1.9 C 5.3 g/m*3 1.9 C 0 km/h
1692 02-01-2021 20:55:00 1.9 C 5.3 g/m*3 1.9 C 0 km/h
1693 02-01-2021 21:00:00 1.9 C 5.3 g/m*3 1.9 C 0 km/h
1694 02-01-2021 21:05:00 1.9 C 5.3 g/m*3 1.9 C 0 km/h
1695 02-01-2021 21:10:00 1.9 C 5.3 g/m*3 1.9 C 0 km/h
1696 02-01-2021 21:15:00 1.9 C 5.3 g/m*3 1.9 C 0 km/h
1697 02-01-2021 21:20:00 1.9 C 5.3 g/m*3 1.9 C 0 km/h
1698 02-01-2021 21:25:00 1.9 C 5.3 g/m*3 1.9 C 0 km/h
1699 02-01-2021 21:30:00 1.9 C 5.3 g/m*3 1.9 C 0 km/h
1700 02-01-2021 21:35:00 1.9 C 5.3 g/m*3 1.9 C 0 km/h
Sensor: Nr:Datum:Temp:Abs-Feuchte:Windchill:Wind:
Aussen-T/F 1701 02-01-2021 21:40:00 1.9 C 5.3 g/m*3 1.9 C 0 km/h
1702 02-01-2021 21:45:00 1.9 C 5.3 g/m*3 1.9 C 0 km/h
1703 02-01-2021 21:50:00 1.8 C 5.26 g/m*3 1.8 C 0 km/h
1704 02-01-2021 21:55:00 1.9 C 5.3 g/m*3 1.9 C 0 km/h
1705 02-01-2021 22:00:00 1.8 C 5.26 g/m*3 1.8 C 0 km/h
1706 02-01-2021 22:05:00 1.8 C 5.26 g/m*3 1.8 C 0 km/h
1707 02-01-2021 22:10:00 1.8 C 5.26 g/m*3 1.8 C 0 km/h
1708 02-01-2021 22:15:00 1.8 C 5.26 g/m*3 1.8 C 0 km/h
1709 02-01-2021 22:20:00 1.8 C 5.26 g/m*3 1.8 C 0 km/h
1710 02-01-2021 22:25:00 1.8 C 5.26 g/m*3 1.8 C 0 km/h
1711 02-01-2021 22:30:00 1.8 C 5.26 g/m*3 1.8 C 0 km/h
1712 02-01-2021 22:35:00 1.8 C 5.26 g/m*3 1.8 C 0 km/h
1713 02-01-2021 22:40:00 1.8 C 5.26 g/m*3 1.8 C 0 km/h
1714 02-01-2021 22:45:00 1.8 C 5.26 g/m*3 1.8 C 0 km/h
1715 02-01-2021 22:50:00 1.8 C 5.26 g/m*3 1.8 C 0 km/h
1716 02-01-2021 22:55:00 1.8 C 5.26 g/m*3 1.8 C 0 km/h
1717 02-01-2021 23:00:00 1.8 C 5.26 g/m*3 1.8 C 0 km/h
1718 02-01-2021 23:05:00 1.8 C 5.26 g/m*3 1.8 C 0 km/h
1719 02-01-2021 23:10:00 1.8 C 5.26 g/m*3 1.8 C 0 km/h
1720 02-01-2021 23:15:00 1.8 C 5.26 g/m*3 1.8 C 0 km/h
1721 02-01-2021 23:20:00 1.8 C 5.26 g/m*3 1.8 C 0 km/h
1722 02-01-2021 23:25:00 1.8 C 5.26 g/m*3 1.8 C 0 km/h
1723 02-01-2021 23:30:00 1.8 C 5.26 g/m*3 1.8 C 0 km/h
1724 02-01-2021 23:35:00 1.8 C 5.26 g/m*3 1.8 C 0 km/h
1725 02-01-2021 23:40:00 1.8 C 5.26 g/m*3 1.8 C 0 km/h
Sensor: Nr:Datum:Temp:Abs-Feuchte:Windchill:Wind:
Aussen-T/F 1726 02-01-2021 23:45:00 1.8 C 5.26 g/m*3 1.8 C 0 km/h
1727 02-01-2021 23:50:00 1.8 C 5.26 g/m*3 1.8 C 0 km/h
1728 02-01-2021 23:55:00 1.8 C 5.26 g/m*3 1.8 C 0 km/h
1729 03-01-2021 00:00:00 1.8 C 5.26 g/m*3 1.8 C 0 km/h
1730 03-01-2021 00:05:00 1.8 C 5.26 g/m*3 1.8 C 0 km/h
1731 03-01-2021 00:10:00 1.9 C 5.3 g/m*3 1.9 C 0 km/h
1732 03-01-2021 00:15:00 1.9 C 5.3 g/m*3 1.9 C 0 km/h
1733 03-01-2021 00:20:00 1.9 C 5.3 g/m*3 1.9 C 0 km/h
1734 03-01-2021 00:25:00 1.9 C 5.3 g/m*3 1.9 C 0 km/h
1735 03-01-2021 00:30:00 1.9 C 5.3 g/m*3 1.9 C 0 km/h
1736 03-01-2021 00:35:00 1.9 C 5.3 g/m*3 1.9 C 0 km/h
1737 03-01-2021 00:40:00 1.9 C 5.3 g/m*3 1.9 C 0 km/h
1738 03-01-2021 00:45:00 1.9 C 5.3 g/m*3 1.9 C 0 km/h
1739 03-01-2021 00:50:00 1.9 C 5.3 g/m*3 1.9 C 0 km/h
1740 03-01-2021 00:55:00 1.9 C 5.3 g/m*3 1.9 C 0 km/h
1741 03-01-2021 01:00:00 1.8 C 5.26 g/m*3 1.8 C 0 km/h
1742 03-01-2021 01:05:00 1.8 C 5.26 g/m*3 1.8 C 0 km/h
1743 03-01-2021 01:10:00 1.8 C 5.26 g/m*3 -0.1 C 6.4 km/h
1744 03-01-2021 01:15:00 1.8 C 5.26 g/m*3 1.8 C 1.6 km/h
1745 03-01-2021 01:20:00 1.8 C 5.26 g/m*3 1.8 C 1.6 km/h
1746 03-01-2021 01:25:00 1.8 C 5.26 g/m*3 1.8 C 3.2 km/h
1747 03-01-2021 01:30:00 1.8 C 5.26 g/m*3 1.8 C 1.6 km/h
1748 03-01-2021 01:35:00 1.8 C 5.26 g/m*3 1.8 C 3.2 km/h
1749 03-01-2021 01:40:00 1.8 C 5.26 g/m*3 1.8 C 3.2 km/h
1750 03-01-2021 01:45:00 1.8 C 5.26 g/m*3 1.8 C 4.8 km/h
Sensor: Nr:Datum:Temp:Abs-Feuchte:Windchill:Wind:
Aussen-T/F 1751 03-01-2021 01:50:00 1.8 C 5.26 g/m*3 1.8 C 4.8 km/h
1752 03-01-2021 01:55:00 1.8 C 5.26 g/m*3 -0.65 C 8.1 km/h
1753 03-01-2021 02:00:00 1.8 C 5.21 g/m*3 1.8 C 0 km/h
1754 03-01-2021 02:05:00 1.8 C 5.21 g/m*3 1.8 C 1.6 km/h
1755 03-01-2021 02:10:00 1.8 C 5.21 g/m*3 1.8 C 0 km/h
1756 03-01-2021 02:15:00 1.8 C 5.21 g/m*3 1.8 C 3.2 km/h
1757 03-01-2021 02:20:00 1.8 C 5.21 g/m*3 1.8 C 0 km/h
1758 03-01-2021 02:25:00 1.7 C 5.17 g/m*3 1.7 C 1.6 km/h
1759 03-01-2021 02:30:00 1.7 C 5.17 g/m*3 1.7 C 0 km/h
1760 03-01-2021 02:35:00 1.7 C 5.17 g/m*3 1.7 C 1.6 km/h
1761 03-01-2021 02:40:00 1.7 C 5.17 g/m*3 1.7 C 1.6 km/h
1762 03-01-2021 02:45:00 1.7 C 5.17 g/m*3 1.7 C 3.2 km/h
1763 03-01-2021 02:50:00 1.7 C 5.17 g/m*3 -0.22 C 6.4 km/h
1764 03-01-2021 02:55:00 1.7 C 5.12 g/m*3 1.7 C 1.6 km/h
1765 03-01-2021 03:00:00 1.7 C 5.06 g/m*3 1.7 C 4.8 km/h
1766 03-01-2021 03:05:00 1.8 C 5.04 g/m*3 1.8 C 3.2 km/h
1767 03-01-2021 03:10:00 1.9 C 5.02 g/m*3 1.9 C 1.6 km/h
1768 03-01-2021 03:15:00 1.9 C 5.02 g/m*3 1.9 C 0 km/h
1769 03-01-2021 03:20:00 2 C 5.06 g/m*3 2 C 3.2 km/h
1770 03-01-2021 03:25:00 2.1 C 5.04 g/m*3 2.1 C 4.8 km/h
1771 03-01-2021 03:30:00 2.1 C 5.04 g/m*3 2.1 C 1.6 km/h
1772 03-01-2021 03:35:00 2.2 C 5.01 g/m*3 2.2 C 3.2 km/h
1773 03-01-2021 03:40:00 2.2 C 5.01 g/m*3 2.2 C 1.6 km/h
1774 03-01-2021 03:45:00 2.2 C 5.07 g/m*3 2.2 C 1.6 km/h
1775 03-01-2021 03:50:00 2.2 C 5.07 g/m*3 2.2 C 3.2 km/h
Sensor: Nr:Datum:Temp:Abs-Feuchte:Windchill:Wind:
Aussen-T/F 1776 03-01-2021 03:55:00 2.2 C 5.07 g/m*3 2.2 C 1.6 km/h
1777 03-01-2021 04:00:00 2.2 C 5.01 g/m*3 2.2 C 3.2 km/h
1778 03-01-2021 04:05:00 2.2 C 5.01 g/m*3 2.2 C 3.2 km/h
1779 03-01-2021 04:10:00 2.3 C 5.05 g/m*3 2.3 C 1.6 km/h
1780 03-01-2021 04:15:00 2.3 C 5.05 g/m*3 2.3 C 1.6 km/h
1781 03-01-2021 04:20:00 2.3 C 5.05 g/m*3 2.3 C 3.2 km/h
1782 03-01-2021 04:25:00 2.3 C 5.05 g/m*3 2.3 C 4.8 km/h
1783 03-01-2021 04:30:00 2.3 C 5.05 g/m*3 2.3 C 0 km/h
1784 03-01-2021 04:35:00 2.3 C 5.1 g/m*3 2.3 C 3.2 km/h
1785 03-01-2021 04:40:00 2.3 C 5.1 g/m*3 2.3 C 1.6 km/h
1786 03-01-2021 04:45:00 2.3 C 5.1 g/m*3 2.3 C 1.6 km/h
1787 03-01-2021 04:50:00 2.2 C 5.07 g/m*3 2.2 C 1.6 km/h
1788 03-01-2021 04:55:00 2.2 C 5.07 g/m*3 0.36 C 6.4 km/h
1789 03-01-2021 05:00:00 2.2 C 5.07 g/m*3 2.2 C 0 km/h
1790 03-01-2021 05:05:00 2.2 C 5.13 g/m*3 2.2 C 0 km/h
1791 03-01-2021 05:10:00 2.1 C 5.09 g/m*3 2.1 C 1.6 km/h
1792 03-01-2021 05:15:00 2.1 C 5.09 g/m*3 2.1 C 0 km/h
1793 03-01-2021 05:20:00 2.1 C 5.09 g/m*3 2.1 C 0 km/h
1794 03-01-2021 05:25:00 2.1 C 5.09 g/m*3 2.1 C 0 km/h
1795 03-01-2021 05:30:00 2.1 C 5.09 g/m*3 2.1 C 0 km/h
1796 03-01-2021 05:35:00 2.1 C 5.09 g/m*3 2.1 C 1.6 km/h
1797 03-01-2021 05:40:00 2.1 C 5.09 g/m*3 2.1 C 1.6 km/h
1798 03-01-2021 05:45:00 2.1 C 5.09 g/m*3 2.1 C 1.6 km/h
1799 03-01-2021 05:50:00 2.1 C 5.09 g/m*3 2.1 C 0 km/h
1800 03-01-2021 05:55:00 2.1 C 5.09 g/m*3 2.1 C 1.6 km/h
Sensor: Nr:Datum:Temp:Abs-Feuchte:Windchill:Wind:
Aussen-T/F 1801 03-01-2021 06:00:00 2.1 C 5.09 g/m*3 2.1 C 1.6 km/h
1802 03-01-2021 06:05:00 2.1 C 5.09 g/m*3 2.1 C 1.6 km/h
1803 03-01-2021 06:10:00 2.1 C 5.09 g/m*3 2.1 C 0 km/h
1804 03-01-2021 06:15:00 2.1 C 5.09 g/m*3 2.1 C 1.6 km/h
1805 03-01-2021 06:20:00 2.1 C 5.09 g/m*3 2.1 C 0 km/h
1806 03-01-2021 06:25:00 2.1 C 5.09 g/m*3 2.1 C 0 km/h
1807 03-01-2021 06:30:00 2.1 C 5.09 g/m*3 2.1 C 0 km/h
1808 03-01-2021 06:35:00 2.1 C 5.15 g/m*3 2.1 C 1.6 km/h
1809 03-01-2021 06:40:00 2 C 5.11 g/m*3 2 C 3.2 km/h
1810 03-01-2021 06:45:00 2 C 5.11 g/m*3 2 C 0 km/h
1811 03-01-2021 06:50:00 2 C 5.11 g/m*3 2 C 0 km/h
1812 03-01-2021 06:55:00 1.9 C 5.02 g/m*3 1.9 C 1.6 km/h
1813 03-01-2021 07:00:00 1.9 C 5.02 g/m*3 1.9 C 1.6 km/h
1814 03-01-2021 07:05:00 1.9 C 5.02 g/m*3 1.9 C 0 km/h
1815 03-01-2021 07:10:00 1.9 C 5.02 g/m*3 1.9 C 1.6 km/h
1816 03-01-2021 07:15:00 1.9 C 5.02 g/m*3 1.9 C 3.2 km/h
1817 03-01-2021 07:20:00 2 C 5.06 g/m*3 2 C 1.6 km/h
1818 03-01-2021 07:25:00 2 C 5.06 g/m*3 2 C 1.6 km/h
1819 03-01-2021 07:30:00 2 C 5.06 g/m*3 2 C 0 km/h
1820 03-01-2021 07:35:00 2 C 5.06 g/m*3 2 C 1.6 km/h
1821 03-01-2021 07:40:00 2 C 5 g/m*3 2 C 0 km/h
1822 03-01-2021 07:45:00 2.1 C 5.04 g/m*3 2.1 C 3.2 km/h
1823 03-01-2021 07:50:00 2.1 C 4.98 g/m*3 2.1 C 3.2 km/h
1824 03-01-2021 07:55:00 2.1 C 4.98 g/m*3 2.1 C 0 km/h
1825 03-01-2021 08:00:00 2.2 C 5.01 g/m*3 2.2 C 0 km/h
Sensor: Nr:Datum:Temp:Abs-Feuchte:Windchill:Wind:
Aussen-T/F 1826 03-01-2021 08:05:00 2.2 C 5.01 g/m*3 2.2 C 3.2 km/h
1827 03-01-2021 08:10:00 2.2 C 4.96 g/m*3 2.2 C 1.6 km/h
1828 03-01-2021 08:15:00 2.2 C 4.96 g/m*3 2.2 C 1.6 km/h
1829 03-01-2021 08:20:00 2.3 C 4.99 g/m*3 2.3 C 3.2 km/h
1830 03-01-2021 08:25:00 2.3 C 4.99 g/m*3 2.3 C 1.6 km/h
1831 03-01-2021 08:30:00 2.3 C 4.99 g/m*3 2.3 C 3.2 km/h
1832 03-01-2021 08:35:00 2.3 C 4.99 g/m*3 2.3 C 1.6 km/h
1833 03-01-2021 08:40:00 2.3 C 4.93 g/m*3 2.3 C 1.6 km/h
1834 03-01-2021 08:45:00 2.4 C 5.02 g/m*3 2.4 C 1.6 km/h
1835 03-01-2021 08:50:00 2.4 C 5.02 g/m*3 2.4 C 1.6 km/h
1836 03-01-2021 08:55:00 2.4 C 4.97 g/m*3 2.4 C 0 km/h
1837 03-01-2021 09:00:00 2.4 C 5.02 g/m*3 2.4 C 0 km/h
1838 03-01-2021 09:05:00 2.4 C 5.08 g/m*3 2.4 C 0 km/h
1839 03-01-2021 09:10:00 2.4 C 5.08 g/m*3 2.4 C 0 km/h
1840 03-01-2021 09:15:00 2.4 C 5.08 g/m*3 2.4 C 0 km/h
1841 03-01-2021 09:20:00 2.4 C 5.08 g/m*3 2.4 C 0 km/h
1842 03-01-2021 09:25:00 2.3 C 5.05 g/m*3 2.3 C 0 km/h
1843 03-01-2021 09:30:00 2.3 C 5.1 g/m*3 2.3 C 0 km/h
1844 03-01-2021 09:35:00 2.4 C 5.08 g/m*3 2.4 C 0 km/h
1845 03-01-2021 09:40:00 2.4 C 5.14 g/m*3 2.4 C 0 km/h
1846 03-01-2021 09:45:00 2.3 C 5.1 g/m*3 2.3 C 0 km/h
1847 03-01-2021 09:50:00 2.4 C 5.14 g/m*3 2.4 C 0 km/h
1848 03-01-2021 09:55:00 2.4 C 5.14 g/m*3 2.4 C 0 km/h
1849 03-01-2021 10:00:00 2.4 C 5.14 g/m*3 2.4 C 0 km/h
1850 03-01-2021 10:05:00 2.4 C 5.14 g/m*3 2.4 C 1.6 km/h
Sensor: Nr:Datum:Temp:Abs-Feuchte:Windchill:Wind:
Aussen-T/F 1851 03-01-2021 10:10:00 2.5 C 5.17 g/m*3 2.5 C 1.6 km/h
1852 03-01-2021 10:15:00 2.5 C 5.12 g/m*3 2.5 C 1.6 km/h
1853 03-01-2021 10:20:00 2.6 C 5.15 g/m*3 2.6 C 1.6 km/h
1854 03-01-2021 10:25:00 2.6 C 5.09 g/m*3 0.29 C 8.1 km/h
1855 03-01-2021 10:30:00 2.6 C 5.09 g/m*3 2.6 C 1.6 km/h
1856 03-01-2021 10:35:00 2.7 C 5.13 g/m*3 2.7 C 0 km/h
1857 03-01-2021 10:40:00 2.7 C 5.13 g/m*3 2.7 C 1.6 km/h
1858 03-01-2021 10:45:00 2.7 C 5.07 g/m*3 2.7 C 1.6 km/h
1859 03-01-2021 10:50:00 2.8 C 5.1 g/m*3 2.8 C 0 km/h
1860 03-01-2021 10:55:00 2.8 C 5.1 g/m*3 2.8 C 0 km/h
1861 03-01-2021 11:00:00 2.8 C 5.1 g/m*3 2.8 C 1.6 km/h
1862 03-01-2021 11:05:00 2.9 C 5.14 g/m*3 2.9 C 0 km/h
1863 03-01-2021 11:10:00 2.9 C 5.14 g/m*3 2.9 C 3.2 km/h
1864 03-01-2021 11:15:00 2.9 C 5.14 g/m*3 2.9 C 4.8 km/h
1865 03-01-2021 11:20:00 3.1 C 5.21 g/m*3 3.1 C 1.6 km/h
1866 03-01-2021 11:25:00 3.1 C 5.15 g/m*3 0.87 C 8.1 km/h
1867 03-01-2021 11:30:00 3.1 C 5.15 g/m*3 3.1 C 4.8 km/h
1868 03-01-2021 11:35:00 3.2 C 5.18 g/m*3 3.2 C 4.8 km/h
1869 03-01-2021 11:40:00 3.2 C 5.18 g/m*3 1.51 C 6.4 km/h
1870 03-01-2021 11:45:00 3.2 C 5.18 g/m*3 3.2 C 4.8 km/h
1871 03-01-2021 11:50:00 3.3 C 5.22 g/m*3 3.3 C 4.8 km/h
1872 03-01-2021 11:55:00 3.3 C 5.22 g/m*3 3.3 C 1.6 km/h
1873 03-01-2021 12:00:00 3.3 C 5.22 g/m*3 3.3 C 4.8 km/h
1874 03-01-2021 12:05:00 3.3 C 5.22 g/m*3 1.11 C 8.1 km/h
1875 03-01-2021 12:10:00 3.3 C 5.16 g/m*3 1.63 C 6.4 km/h
Sensor: Nr:Datum:Temp:Abs-Feuchte:Windchill:Wind:
Aussen-T/F 1876 03-01-2021 12:15:00 3.4 C 5.19 g/m*3 1.23 C 8.1 km/h
1877 03-01-2021 12:20:00 3.4 C 5.19 g/m*3 1.23 C 8.1 km/h
1878 03-01-2021 12:25:00 3.4 C 5.25 g/m*3 1.75 C 6.4 km/h
1879 03-01-2021 12:30:00 3.4 C 5.19 g/m*3 3.4 C 4.8 km/h
1880 03-01-2021 12:35:00 3.4 C 5.19 g/m*3 1.75 C 6.4 km/h
1881 03-01-2021 12:40:00 3.4 C 5.19 g/m*3 3.4 C 4.8 km/h
1882 03-01-2021 12:45:00 3.4 C 5.25 g/m*3 1.23 C 8.1 km/h
1883 03-01-2021 12:50:00 3.4 C 5.19 g/m*3 1.75 C 6.4 km/h
1884 03-01-2021 12:55:00 3.4 C 5.19 g/m*3 0.46 C 11.3 km/h
1885 03-01-2021 13:00:00 3.4 C 5.19 g/m*3 0.46 C 11.3 km/h
1886 03-01-2021 13:05:00 3.4 C 5.19 g/m*3 3.4 C 3.2 km/h
1887 03-01-2021 13:10:00 3.5 C 5.23 g/m*3 3.5 C 4.8 km/h
1888 03-01-2021 13:15:00 3.5 C 5.29 g/m*3 3.5 C 3.2 km/h
1889 03-01-2021 13:20:00 3.4 C 5.19 g/m*3 3.4 C 4.8 km/h
1890 03-01-2021 13:25:00 3.5 C 5.23 g/m*3 3.5 C 4.8 km/h
1891 03-01-2021 13:30:00 3.4 C 5.25 g/m*3 3.4 C 1.6 km/h
1892 03-01-2021 13:35:00 3.5 C 5.29 g/m*3 3.5 C 4.8 km/h
1893 03-01-2021 13:40:00 3.5 C 5.29 g/m*3 3.5 C 0 km/h
1894 03-01-2021 13:45:00 3.6 C 5.39 g/m*3 3.6 C 1.6 km/h
1895 03-01-2021 13:50:00 3.6 C 5.32 g/m*3 3.6 C 0 km/h
1896 03-01-2021 13:55:00 3.6 C 5.32 g/m*3 3.6 C 4.8 km/h
1897 03-01-2021 14:00:00 3.6 C 5.32 g/m*3 3.6 C 1.6 km/h
1898 03-01-2021 14:05:00 3.6 C 5.39 g/m*3 3.6 C 4.8 km/h
1899 03-01-2021 14:10:00 3.6 C 5.32 g/m*3 3.6 C 4.8 km/h
1900 03-01-2021 14:15:00 3.6 C 5.32 g/m*3 1.98 C 6.4 km/h
Sensor: Nr:Datum:Temp:Abs-Feuchte:Windchill:Wind:
Aussen-T/F 1901 03-01-2021 14:20:00 3.7 C 5.3 g/m*3 2.09 C 6.4 km/h
1902 03-01-2021 14:25:00 3.7 C 5.36 g/m*3 3.7 C 4.8 km/h
1903 03-01-2021 14:30:00 3.8 C 5.33 g/m*3 2.21 C 6.4 km/h
1904 03-01-2021 14:35:00 3.8 C 5.33 g/m*3 3.8 C 4.8 km/h
1905 03-01-2021 14:40:00 3.8 C 5.33 g/m*3 3.8 C 3.2 km/h
1906 03-01-2021 14:45:00 3.8 C 5.4 g/m*3 2.21 C 6.4 km/h
1907 03-01-2021 14:50:00 3.8 C 5.4 g/m*3 1.29 C 9.7 km/h
1908 03-01-2021 14:55:00 3.8 C 5.33 g/m*3 1.7 C 8.1 km/h
1909 03-01-2021 15:00:00 3.8 C 5.4 g/m*3 2.21 C 6.4 km/h
1910 03-01-2021 15:05:00 3.8 C 5.4 g/m*3 2.21 C 6.4 km/h
1911 03-01-2021 15:10:00 3.8 C 5.4 g/m*3 3.8 C 4.8 km/h
1912 03-01-2021 15:15:00 3.8 C 5.4 g/m*3 3.8 C 3.2 km/h
1913 03-01-2021 15:20:00 3.8 C 5.4 g/m*3 3.8 C 3.2 km/h
1914 03-01-2021 15:25:00 3.8 C 5.46 g/m*3 3.8 C 1.6 km/h
1915 03-01-2021 15:30:00 3.8 C 5.46 g/m*3 3.8 C 1.6 km/h
1916 03-01-2021 15:35:00 3.7 C 5.42 g/m*3 3.7 C 0 km/h
1917 03-01-2021 15:40:00 3.7 C 5.42 g/m*3 3.7 C 0 km/h
1918 03-01-2021 15:45:00 3.7 C 5.42 g/m*3 3.7 C 1.6 km/h
1919 03-01-2021 15:50:00 3.7 C 5.48 g/m*3 3.7 C 4.8 km/h
1920 03-01-2021 15:55:00 3.6 C 5.39 g/m*3 3.6 C 4.8 km/h
1921 03-01-2021 16:00:00 3.6 C 5.45 g/m*3 3.6 C 4.8 km/h
1922 03-01-2021 16:05:00 3.6 C 5.45 g/m*3 3.6 C 3.2 km/h
1923 03-01-2021 16:10:00 3.6 C 5.45 g/m*3 1.98 C 6.4 km/h
1924 03-01-2021 16:15:00 3.6 C 5.45 g/m*3 1.98 C 6.4 km/h
1925 03-01-2021 16:20:00 3.6 C 5.45 g/m*3 1.98 C 6.4 km/h
Sensor: Nr:Datum:Temp:Abs-Feuchte:Windchill:Wind:
Aussen-T/F 1926 03-01-2021 16:25:00 3.6 C 5.45 g/m*3 1.46 C 8.1 km/h
1927 03-01-2021 16:30:00 3.5 C 5.41 g/m*3 3.5 C 4.8 km/h
1928 03-01-2021 16:35:00 3.5 C 5.41 g/m*3 3.5 C 4.8 km/h
1929 03-01-2021 16:40:00 3.4 C 5.37 g/m*3 3.4 C 1.6 km/h
1930 03-01-2021 16:45:00 3.4 C 5.37 g/m*3 3.4 C 1.6 km/h
1931 03-01-2021 16:50:00 3.4 C 5.44 g/m*3 3.4 C 0 km/h
1932 03-01-2021 16:55:00 3.4 C 5.44 g/m*3 3.4 C 0 km/h
1933 03-01-2021 17:00:00 3.4 C 5.44 g/m*3 3.4 C 1.6 km/h
1934 03-01-2021 17:05:00 3.4 C 5.44 g/m*3 3.4 C 1.6 km/h
1935 03-01-2021 17:10:00 3.3 C 5.4 g/m*3 3.3 C 3.2 km/h
1936 03-01-2021 17:15:00 3.3 C 5.4 g/m*3 3.3 C 1.6 km/h
1937 03-01-2021 17:20:00 3.3 C 5.46 g/m*3 3.3 C 0 km/h
1938 03-01-2021 17:25:00 3.3 C 5.46 g/m*3 3.3 C 0 km/h
1939 03-01-2021 17:30:00 3.3 C 5.46 g/m*3 3.3 C 1.6 km/h
1940 03-01-2021 17:35:00 3.2 C 5.42 g/m*3 3.2 C 1.6 km/h
1941 03-01-2021 17:40:00 3.2 C 5.42 g/m*3 3.2 C 0 km/h
1942 03-01-2021 17:45:00 3.2 C 5.42 g/m*3 3.2 C 0 km/h
1943 03-01-2021 17:50:00 3.1 C 5.45 g/m*3 3.1 C 0 km/h
1944 03-01-2021 17:55:00 3.1 C 5.45 g/m*3 3.1 C 0 km/h
1945 03-01-2021 18:00:00 3.1 C 5.45 g/m*3 3.1 C 1.6 km/h
1946 03-01-2021 18:05:00 3.1 C 5.45 g/m*3 3.1 C 1.6 km/h
1947 03-01-2021 18:10:00 3 C 5.41 g/m*3 3 C 0 km/h
1948 03-01-2021 18:15:00 3 C 5.47 g/m*3 3 C 0 km/h
1949 03-01-2021 18:20:00 2.9 C 5.43 g/m*3 2.9 C 0 km/h
1950 03-01-2021 18:25:00 2.9 C 5.43 g/m*3 2.9 C 0 km/h
Sensor: Nr:Datum:Temp:Abs-Feuchte:Windchill:Wind:
Aussen-T/F 1951 03-01-2021 18:30:00 2.9 C 5.43 g/m*3 2.9 C 0 km/h
1952 03-01-2021 18:35:00 2.9 C 5.43 g/m*3 2.9 C 0 km/h
1953 03-01-2021 18:40:00 2.9 C 5.43 g/m*3 2.9 C 0 km/h
1954 03-01-2021 18:45:00 2.8 C 5.4 g/m*3 2.8 C 0 km/h
1955 03-01-2021 18:50:00 2.8 C 5.4 g/m*3 2.8 C 0 km/h
1956 03-01-2021 18:55:00 2.8 C 5.4 g/m*3 2.8 C 0 km/h
1957 03-01-2021 19:00:00 2.8 C 5.46 g/m*3 2.8 C 0 km/h
1958 03-01-2021 19:05:00 2.7 C 5.42 g/m*3 2.7 C 0 km/h
1959 03-01-2021 19:10:00 2.7 C 5.42 g/m*3 2.7 C 1.6 km/h
1960 03-01-2021 19:15:00 2.7 C 5.42 g/m*3 2.7 C 3.2 km/h
1961 03-01-2021 19:20:00 2.7 C 5.42 g/m*3 2.7 C 1.6 km/h
1962 03-01-2021 19:25:00 2.7 C 5.42 g/m*3 2.7 C 0 km/h
1963 03-01-2021 19:30:00 2.7 C 5.42 g/m*3 2.7 C 0 km/h
1964 03-01-2021 19:35:00 2.6 C 5.38 g/m*3 2.6 C 0 km/h
1965 03-01-2021 19:40:00 2.6 C 5.38 g/m*3 2.6 C 0 km/h
1966 03-01-2021 19:45:00 2.6 C 5.38 g/m*3 2.6 C 0 km/h
1967 03-01-2021 19:50:00 2.6 C 5.44 g/m*3 2.6 C 0 km/h
1968 03-01-2021 19:55:00 2.6 C 5.38 g/m*3 2.6 C 0 km/h
1969 03-01-2021 20:00:00 2.6 C 5.44 g/m*3 2.6 C 0 km/h
1970 03-01-2021 20:05:00 2.5 C 5.4 g/m*3 2.5 C 0 km/h
1971 03-01-2021 20:10:00 2.5 C 5.4 g/m*3 2.5 C 0 km/h
1972 03-01-2021 20:15:00 2.5 C 5.4 g/m*3 2.5 C 1.6 km/h
1973 03-01-2021 20:20:00 2.5 C 5.4 g/m*3 2.5 C 0 km/h
1974 03-01-2021 20:25:00 2.5 C 5.4 g/m*3 2.5 C 0 km/h
1975 03-01-2021 20:30:00 2.5 C 5.4 g/m*3 2.5 C 0 km/h
Sensor: Nr:Datum:Temp:Abs-Feuchte:Windchill:Wind:
Aussen-T/F 1976 03-01-2021 20:35:00 2.5 C 5.4 g/m*3 2.5 C 0 km/h
1977 03-01-2021 20:40:00 2.6 C 5.44 g/m*3 2.6 C 0 km/h
1978 03-01-2021 20:45:00 2.5 C 5.4 g/m*3 2.5 C 0 km/h
1979 03-01-2021 20:50:00 2.5 C 5.4 g/m*3 2.5 C 0 km/h
1980 03-01-2021 20:55:00 2.5 C 5.4 g/m*3 2.5 C 0 km/h
1981 03-01-2021 21:00:00 2.5 C 5.4 g/m*3 2.5 C 0 km/h
1982 03-01-2021 21:05:00 2.5 C 5.4 g/m*3 2.5 C 1.6 km/h
1983 03-01-2021 21:10:00 2.5 C 5.4 g/m*3 2.5 C 0 km/h
1984 03-01-2021 21:15:00 2.5 C 5.4 g/m*3 2.5 C 0 km/h
1985 03-01-2021 21:20:00 2.4 C 5.37 g/m*3 2.4 C 0 km/h
1986 03-01-2021 21:25:00 2.5 C 5.4 g/m*3 2.5 C 3.2 km/h
1987 03-01-2021 21:30:00 2.5 C 5.4 g/m*3 2.5 C 0 km/h
1988 03-01-2021 21:35:00 2.5 C 5.4 g/m*3 2.5 C 0 km/h
1989 03-01-2021 21:40:00 2.5 C 5.4 g/m*3 2.5 C 0 km/h
1990 03-01-2021 21:45:00 2.4 C 5.37 g/m*3 2.4 C 0 km/h
1991 03-01-2021 21:50:00 2.4 C 5.37 g/m*3 2.4 C 0 km/h
1992 03-01-2021 21:55:00 2.4 C 5.37 g/m*3 2.4 C 0 km/h
1993 03-01-2021 22:00:00 2.4 C 5.37 g/m*3 2.4 C 0 km/h
1994 03-01-2021 22:05:00 2.4 C 5.37 g/m*3 2.4 C 0 km/h
1995 03-01-2021 22:10:00 2.4 C 5.37 g/m*3 2.4 C 0 km/h
1996 03-01-2021 22:15:00 2.4 C 5.37 g/m*3 2.4 C 0 km/h
1997 03-01-2021 22:20:00 2.4 C 5.37 g/m*3 2.4 C 0 km/h
1998 03-01-2021 22:25:00 2.4 C 5.37 g/m*3 2.4 C 0 km/h
1999 03-01-2021 22:30:00 2.4 C 5.37 g/m*3 2.4 C 0 km/h
2000 03-01-2021 22:35:00 2.4 C 5.37 g/m*3 2.4 C 0 km/h
Sensor: Nr:Datum:Temp:Abs-Feuchte:Windchill:Wind:
Aussen-T/F 2001 03-01-2021 22:40:00 2.4 C 5.37 g/m*3 2.4 C 0 km/h
2002 03-01-2021 22:45:00 2.3 C 5.33 g/m*3 2.3 C 0 km/h
2003 03-01-2021 22:50:00 2.3 C 5.33 g/m*3 2.3 C 0 km/h
2004 03-01-2021 22:55:00 2.3 C 5.33 g/m*3 2.3 C 0 km/h
2005 03-01-2021 23:00:00 2.3 C 5.33 g/m*3 2.3 C 0 km/h
2006 03-01-2021 23:05:00 2.3 C 5.33 g/m*3 2.3 C 0 km/h
2007 03-01-2021 23:10:00 2.3 C 5.33 g/m*3 2.3 C 0 km/h
2008 03-01-2021 23:15:00 2.3 C 5.33 g/m*3 2.3 C 0 km/h
2009 03-01-2021 23:20:00 2.3 C 5.33 g/m*3 2.3 C 0 km/h
2010 03-01-2021 23:25:00 2.3 C 5.33 g/m*3 2.3 C 0 km/h
2011 03-01-2021 23:30:00 2.3 C 5.33 g/m*3 2.3 C 0 km/h
2012 03-01-2021 23:35:00 2.3 C 5.33 g/m*3 2.3 C 0 km/h
2013 03-01-2021 23:40:00 2.3 C 5.33 g/m*3 2.3 C 0 km/h
2014 03-01-2021 23:45:00 2.3 C 5.39 g/m*3 2.3 C 0 km/h
2015 03-01-2021 23:50:00 2.3 C 5.39 g/m*3 2.3 C 0 km/h
2016 03-01-2021 23:55:00 2.3 C 5.39 g/m*3 2.3 C 0 km/h
2017 04-01-2021 00:00:00 2.3 C 5.39 g/m*3 2.3 C 0 km/h
2018 04-01-2021 00:05:00 2.3 C 5.39 g/m*3 2.3 C 0 km/h
2019 04-01-2021 00:10:00 2.3 C 5.39 g/m*3 2.3 C 0 km/h
2020 04-01-2021 00:15:00 2.2 C 5.35 g/m*3 2.2 C 0 km/h
2021 04-01-2021 00:20:00 2.2 C 5.35 g/m*3 2.2 C 0 km/h
2022 04-01-2021 00:25:00 2.2 C 5.35 g/m*3 2.2 C 0 km/h
2023 04-01-2021 00:30:00 2.2 C 5.35 g/m*3 2.2 C 0 km/h
2024 04-01-2021 00:35:00 2.2 C 5.35 g/m*3 2.2 C 0 km/h
2025 04-01-2021 00:40:00 2.2 C 5.35 g/m*3 2.2 C 0 km/h
Sensor: Nr:Datum:Temp:Abs-Feuchte:Windchill:Wind:
Aussen-T/F 2026 04-01-2021 00:45:00 2.2 C 5.35 g/m*3 2.2 C 0 km/h
2027 04-01-2021 00:50:00 2.2 C 5.35 g/m*3 2.2 C 0 km/h
2028 04-01-2021 00:55:00 2.2 C 5.35 g/m*3 2.2 C 0 km/h
2029 04-01-2021 01:00:00 2.2 C 5.35 g/m*3 2.2 C 0 km/h
2030 04-01-2021 01:05:00 2.1 C 5.31 g/m*3 2.1 C 0 km/h
2031 04-01-2021 01:10:00 2.2 C 5.35 g/m*3 2.2 C 0 km/h
2032 04-01-2021 01:15:00 2.1 C 5.31 g/m*3 2.1 C 0 km/h
2033 04-01-2021 01:20:00 2.1 C 5.31 g/m*3 2.1 C 0 km/h
2034 04-01-2021 01:25:00 2.1 C 5.31 g/m*3 2.1 C 0 km/h
2035 04-01-2021 01:30:00 2.1 C 5.31 g/m*3 2.1 C 0 km/h
2036 04-01-2021 01:35:00 2.1 C 5.31 g/m*3 2.1 C 0 km/h
2037 04-01-2021 01:40:00 2 C 5.28 g/m*3 2 C 0 km/h
2038 04-01-2021 01:45:00 2 C 5.28 g/m*3 2 C 0 km/h
2039 04-01-2021 01:50:00 1.9 C 5.24 g/m*3 1.9 C 0 km/h
2040 04-01-2021 01:55:00 1.9 C 5.24 g/m*3 1.9 C 0 km/h
2041 04-01-2021 02:00:00 1.9 C 5.24 g/m*3 1.9 C 0 km/h
2042 04-01-2021 02:05:00 1.9 C 5.24 g/m*3 1.9 C 0 km/h
2043 04-01-2021 02:10:00 1.9 C 5.24 g/m*3 1.9 C 0 km/h
2044 04-01-2021 02:15:00 1.9 C 5.24 g/m*3 1.9 C 0 km/h
2045 04-01-2021 02:20:00 1.9 C 5.24 g/m*3 1.9 C 0 km/h
2046 04-01-2021 02:25:00 1.9 C 5.24 g/m*3 1.9 C 1.6 km/h
2047 04-01-2021 02:30:00 1.8 C 5.21 g/m*3 1.8 C 0 km/h
2048 04-01-2021 02:35:00 1.9 C 5.24 g/m*3 1.9 C 0 km/h
2049 04-01-2021 02:40:00 1.8 C 5.21 g/m*3 1.8 C 0 km/h
2050 04-01-2021 02:45:00 1.8 C 5.21 g/m*3 1.8 C 0 km/h
Sensor: Nr:Datum:Temp:Abs-Feuchte:Windchill:Wind:
Aussen-T/F 2051 04-01-2021 02:50:00 1.8 C 5.21 g/m*3 1.8 C 0 km/h
2052 04-01-2021 02:55:00 1.8 C 5.21 g/m*3 1.8 C 0 km/h
2053 04-01-2021 03:00:00 1.8 C 5.21 g/m*3 1.8 C 1.6 km/h
2054 04-01-2021 03:05:00 1.8 C 5.21 g/m*3 1.8 C 0 km/h
2055 04-01-2021 03:10:00 1.8 C 5.21 g/m*3 1.8 C 0 km/h
2056 04-01-2021 03:15:00 1.8 C 5.21 g/m*3 1.8 C 0 km/h
2057 04-01-2021 03:20:00 1.8 C 5.21 g/m*3 1.8 C 0 km/h
2058 04-01-2021 03:25:00 1.8 C 5.21 g/m*3 1.8 C 0 km/h
2059 04-01-2021 03:30:00 1.8 C 5.21 g/m*3 1.8 C 0 km/h
2060 04-01-2021 03:35:00 1.8 C 5.21 g/m*3 1.8 C 0 km/h
2061 04-01-2021 03:40:00 1.8 C 5.21 g/m*3 1.8 C 0 km/h
2062 04-01-2021 03:45:00 1.8 C 5.21 g/m*3 1.8 C 0 km/h
2063 04-01-2021 03:50:00 1.7 C 5.17 g/m*3 1.7 C 0 km/h
2064 04-01-2021 03:55:00 1.7 C 5.17 g/m*3 1.7 C 0 km/h
2065 04-01-2021 04:00:00 1.7 C 5.17 g/m*3 1.7 C 0 km/h
2066 04-01-2021 04:05:00 1.7 C 5.17 g/m*3 1.7 C 0 km/h
2067 04-01-2021 04:10:00 1.7 C 5.17 g/m*3 1.7 C 0 km/h
2068 04-01-2021 04:15:00 1.7 C 5.23 g/m*3 1.7 C 0 km/h
2069 04-01-2021 04:20:00 1.6 C 5.19 g/m*3 1.6 C 0 km/h
2070 04-01-2021 04:25:00 1.6 C 5.19 g/m*3 1.6 C 0 km/h
2071 04-01-2021 04:30:00 1.6 C 5.19 g/m*3 1.6 C 0 km/h
2072 04-01-2021 04:35:00 1.6 C 5.19 g/m*3 1.6 C 0 km/h
2073 04-01-2021 04:40:00 1.6 C 5.19 g/m*3 1.6 C 0 km/h
2074 04-01-2021 04:45:00 1.6 C 5.19 g/m*3 1.6 C 0 km/h
2075 04-01-2021 04:50:00 1.6 C 5.19 g/m*3 1.6 C 0 km/h
Sensor: Nr:Datum:Temp:Abs-Feuchte:Windchill:Wind:
Aussen-T/F 2076 04-01-2021 04:55:00 1.6 C 5.19 g/m*3 1.6 C 0 km/h
2077 04-01-2021 05:00:00 1.6 C 5.19 g/m*3 1.6 C 0 km/h
2078 04-01-2021 05:05:00 1.5 C 5.16 g/m*3 1.5 C 0 km/h
2079 04-01-2021 05:10:00 1.5 C 5.16 g/m*3 1.5 C 0 km/h
2080 04-01-2021 05:15:00 1.5 C 5.16 g/m*3 1.5 C 0 km/h
2081 04-01-2021 05:20:00 1.5 C 5.1 g/m*3 1.5 C 0 km/h
2082 04-01-2021 05:25:00 1.4 C 5.07 g/m*3 1.4 C 0 km/h
2083 04-01-2021 05:30:00 1.4 C 5.07 g/m*3 1.4 C 0 km/h
2084 04-01-2021 05:35:00 1.3 C 5.03 g/m*3 1.3 C 0 km/h
2085 04-01-2021 05:40:00 1.3 C 5.03 g/m*3 1.3 C 0 km/h
2086 04-01-2021 05:45:00 1.3 C 5.09 g/m*3 1.3 C 0 km/h
2087 04-01-2021 05:50:00 1.2 C 5.05 g/m*3 1.2 C 0 km/h
2088 04-01-2021 05:55:00 1.2 C 5.05 g/m*3 1.2 C 0 km/h
2089 04-01-2021 06:00:00 1.2 C 5.05 g/m*3 1.2 C 0 km/h
2090 04-01-2021 06:05:00 1.1 C 5.02 g/m*3 1.1 C 0 km/h
2091 04-01-2021 06:10:00 1.1 C 4.96 g/m*3 1.1 C 0 km/h
2092 04-01-2021 06:15:00 1.1 C 4.96 g/m*3 1.1 C 0 km/h
2093 04-01-2021 06:20:00 1.1 C 4.96 g/m*3 1.1 C 0 km/h
2094 04-01-2021 06:25:00 1.1 C 5.02 g/m*3 1.1 C 0 km/h
2095 04-01-2021 06:30:00 1.1 C 5.02 g/m*3 1.1 C 0 km/h
2096 04-01-2021 06:35:00 1 C 4.98 g/m*3 1 C 0 km/h
2097 04-01-2021 06:40:00 1 C 4.98 g/m*3 1 C 0 km/h
2098 04-01-2021 06:45:00 1 C 4.98 g/m*3 1 C 0 km/h
2099 04-01-2021 06:50:00 1 C 4.98 g/m*3 1 C 0 km/h
2100 04-01-2021 06:55:00 1 C 4.98 g/m*3 1 C 0 km/h
Sensor: Nr:Datum:Temp:Abs-Feuchte:Windchill:Wind:
Aussen-T/F 2101 04-01-2021 07:00:00 1 C 4.98 g/m*3 1 C 0 km/h
2102 04-01-2021 07:05:00 0.9 C 4.95 g/m*3 0.9 C 0 km/h
2103 04-01-2021 07:10:00 0.9 C 4.95 g/m*3 0.9 C 0 km/h
2104 04-01-2021 07:15:00 0.9 C 4.95 g/m*3 0.9 C 0 km/h
2105 04-01-2021 07:20:00 0.9 C 4.95 g/m*3 0.9 C 0 km/h
2106 04-01-2021 07:25:00 0.9 C 4.95 g/m*3 0.9 C 0 km/h
2107 04-01-2021 07:30:00 0.9 C 4.95 g/m*3 0.9 C 0 km/h
2108 04-01-2021 07:35:00 0.9 C 4.95 g/m*3 0.9 C 0 km/h
2109 04-01-2021 07:40:00 0.9 C 4.95 g/m*3 0.9 C 0 km/h
2110 04-01-2021 07:45:00 0.9 C 4.95 g/m*3 0.9 C 0 km/h
2111 04-01-2021 07:50:00 0.9 C 4.95 g/m*3 0.9 C 0 km/h
2112 04-01-2021 07:55:00 0.9 C 4.95 g/m*3 0.9 C 0 km/h
2113 04-01-2021 08:00:00 0.9 C 4.95 g/m*3 0.9 C 0 km/h
2114 04-01-2021 08:05:00 0.9 C 4.95 g/m*3 0.9 C 0 km/h
2115 04-01-2021 08:10:00 0.9 C 4.95 g/m*3 0.9 C 0 km/h
2116 04-01-2021 08:15:00 0.9 C 4.95 g/m*3 0.9 C 0 km/h
2117 04-01-2021 08:20:00 0.9 C 4.95 g/m*3 0.9 C 0 km/h
2118 04-01-2021 08:25:00 1 C 4.98 g/m*3 1 C 0 km/h
2119 04-01-2021 08:30:00 1 C 4.98 g/m*3 1 C 0 km/h
2120 04-01-2021 08:35:00 1 C 4.98 g/m*3 1 C 0 km/h
2121 04-01-2021 08:40:00 1 C 4.98 g/m*3 1 C 0 km/h
2122 04-01-2021 08:45:00 1 C 4.98 g/m*3 1 C 0 km/h
2123 04-01-2021 08:50:00 1 C 4.98 g/m*3 1 C 0 km/h
2124 04-01-2021 08:55:00 1.1 C 5.02 g/m*3 1.1 C 0 km/h
2125 04-01-2021 09:00:00 1.1 C 5.02 g/m*3 1.1 C 0 km/h
Sensor: Nr:Datum:Temp:Abs-Feuchte:Windchill:Wind:
Aussen-T/F 2126 04-01-2021 09:05:00 1.1 C 5.02 g/m*3 1.1 C 0 km/h
2127 04-01-2021 09:10:00 1.1 C 5.02 g/m*3 1.1 C 0 km/h
2128 04-01-2021 09:15:00 1.1 C 5.02 g/m*3 1.1 C 0 km/h
2129 04-01-2021 09:20:00 1.1 C 5.02 g/m*3 1.1 C 0 km/h
2130 04-01-2021 09:25:00 1.1 C 5.02 g/m*3 1.1 C 0 km/h
2131 04-01-2021 09:30:00 1.1 C 5.02 g/m*3 1.1 C 0 km/h
2132 04-01-2021 09:35:00 1.2 C 5.05 g/m*3 1.2 C 0 km/h
2133 04-01-2021 09:40:00 1.2 C 5.05 g/m*3 1.2 C 0 km/h
2134 04-01-2021 09:45:00 1.2 C 5.05 g/m*3 1.2 C 0 km/h
2135 04-01-2021 09:50:00 1.2 C 5.05 g/m*3 1.2 C 0 km/h
2136 04-01-2021 09:55:00 1.2 C 5.05 g/m*3 1.2 C 0 km/h
2137 04-01-2021 10:00:00 1.2 C 5.05 g/m*3 1.2 C 0 km/h
2138 04-01-2021 10:05:00 1.2 C 5.05 g/m*3 1.2 C 1.6 km/h
2139 04-01-2021 10:10:00 1.3 C 5.09 g/m*3 1.3 C 0 km/h
2140 04-01-2021 10:15:00 1.3 C 5.09 g/m*3 1.3 C 0 km/h
2141 04-01-2021 10:20:00 1.3 C 5.09 g/m*3 1.3 C 0 km/h
2142 04-01-2021 10:25:00 1.3 C 5.09 g/m*3 1.3 C 0 km/h
2143 04-01-2021 10:30:00 1.3 C 5.09 g/m*3 1.3 C 0 km/h
2144 04-01-2021 10:35:00 1.3 C 5.09 g/m*3 1.3 C 0 km/h
2145 04-01-2021 10:40:00 1.4 C 5.12 g/m*3 1.4 C 0 km/h
2146 04-01-2021 10:45:00 1.4 C 5.12 g/m*3 1.4 C 0 km/h
2147 04-01-2021 10:50:00 1.4 C 5.12 g/m*3 1.4 C 0 km/h
2148 04-01-2021 10:55:00 1.4 C 5.12 g/m*3 1.4 C 0 km/h
2149 04-01-2021 11:00:00 1.4 C 5.12 g/m*3 1.4 C 0 km/h
2150 04-01-2021 11:05:00 1.5 C 5.16 g/m*3 1.5 C 0 km/h
Sensor: Nr:Datum:Temp:Abs-Feuchte:Windchill:Wind:
Aussen-T/F 2151 04-01-2021 11:10:00 1.5 C 5.16 g/m*3 1.5 C 0 km/h
2152 04-01-2021 11:15:00 1.6 C 5.19 g/m*3 1.6 C 0 km/h
2153 04-01-2021 11:20:00 1.6 C 5.25 g/m*3 1.6 C 0 km/h
2154 04-01-2021 11:25:00 1.6 C 5.25 g/m*3 1.6 C 0 km/h
2155 04-01-2021 11:30:00 1.6 C 5.25 g/m*3 1.6 C 0 km/h
2156 04-01-2021 11:35:00 1.7 C 5.28 g/m*3 1.7 C 0 km/h
2157 04-01-2021 11:40:00 1.7 C 5.28 g/m*3 1.7 C 0 km/h
2158 04-01-2021 11:45:00 1.7 C 5.28 g/m*3 1.7 C 0 km/h
2159 04-01-2021 11:50:00 1.7 C 5.28 g/m*3 1.7 C 0 km/h
2160 04-01-2021 11:55:00 1.7 C 5.28 g/m*3 1.7 C 0 km/h
2161 04-01-2021 12:00:00 1.7 C 5.28 g/m*3 1.7 C 0 km/h
2162 04-01-2021 12:05:00 1.7 C 5.28 g/m*3 1.7 C 0 km/h
2163 04-01-2021 12:10:00 1.8 C 5.32 g/m*3 1.8 C 1.6 km/h
2164 04-01-2021 12:15:00 1.8 C 5.32 g/m*3 1.8 C 0 km/h
2165 04-01-2021 12:20:00 1.8 C 5.32 g/m*3 1.8 C 0 km/h
2166 04-01-2021 12:25:00 1.8 C 5.32 g/m*3 1.8 C 0 km/h
2167 04-01-2021 12:30:00 1.8 C 5.32 g/m*3 1.8 C 0 km/h
2168 04-01-2021 12:35:00 1.8 C 5.32 g/m*3 1.8 C 0 km/h
2169 04-01-2021 12:40:00 1.9 C 5.35 g/m*3 1.9 C 0 km/h
2170 04-01-2021 12:45:00 1.9 C 5.35 g/m*3 1.9 C 0 km/h
2171 04-01-2021 12:50:00 1.9 C 5.35 g/m*3 1.9 C 0 km/h
2172 04-01-2021 12:55:00 1.9 C 5.35 g/m*3 1.9 C 0 km/h
2173 04-01-2021 13:00:00 1.9 C 5.35 g/m*3 1.9 C 0 km/h
2174 04-01-2021 13:05:00 1.9 C 5.35 g/m*3 1.9 C 3.2 km/h
2175 04-01-2021 13:10:00 1.9 C 5.35 g/m*3 1.9 C 0 km/h
Sensor: Nr:Datum:Temp:Abs-Feuchte:Windchill:Wind:
Aussen-T/F 2176 04-01-2021 13:15:00 2 C 5.39 g/m*3 2 C 0 km/h
2177 04-01-2021 13:20:00 2 C 5.39 g/m*3 2 C 0 km/h
2178 04-01-2021 13:25:00 2 C 5.39 g/m*3 2 C 0 km/h
2179 04-01-2021 13:30:00 2 C 5.39 g/m*3 2 C 1.6 km/h
2180 04-01-2021 13:35:00 2 C 5.39 g/m*3 2 C 0 km/h
2181 04-01-2021 13:40:00 2 C 5.39 g/m*3 2 C 0 km/h
2182 04-01-2021 13:45:00 2 C 5.39 g/m*3 2 C 0 km/h
2183 04-01-2021 13:50:00 2 C 5.39 g/m*3 2 C 0 km/h
2184 04-01-2021 13:55:00 2 C 5.39 g/m*3 2 C 1.6 km/h
2185 04-01-2021 14:00:00 2 C 5.39 g/m*3 2 C 0 km/h
2186 04-01-2021 14:05:00 2 C 5.39 g/m*3 2 C 0 km/h
2187 04-01-2021 14:10:00 2.1 C 5.43 g/m*3 2.1 C 0 km/h
2188 04-01-2021 14:15:00 2.1 C 5.43 g/m*3 2.1 C 0 km/h
2189 04-01-2021 14:20:00 2.1 C 5.43 g/m*3 2.1 C 0 km/h
2190 04-01-2021 14:25:00 2 C 5.39 g/m*3 2 C 1.6 km/h
2191 04-01-2021 14:30:00 2 C 5.39 g/m*3 2 C 0 km/h
2192 04-01-2021 14:35:00 2 C 5.39 g/m*3 2 C 1.6 km/h
2193 04-01-2021 14:40:00 2 C 5.39 g/m*3 2 C 0 km/h
2194 04-01-2021 14:45:00 2 C 5.39 g/m*3 2 C 0 km/h
2195 04-01-2021 14:50:00 2 C 5.39 g/m*3 2 C 0 km/h
2196 04-01-2021 14:55:00 2 C 5.39 g/m*3 2 C 0 km/h
2197 04-01-2021 15:00:00 2 C 5.39 g/m*3 2 C 0 km/h
2198 04-01-2021 15:05:00 2 C 5.39 g/m*3 2 C 0 km/h
2199 04-01-2021 15:10:00 2 C 5.39 g/m*3 2 C 0 km/h
2200 04-01-2021 15:15:00 2 C 5.39 g/m*3 2 C 0 km/h
Sensor: Nr:Datum:Temp:Abs-Feuchte:Windchill:Wind:
Aussen-T/F 2201 04-01-2021 15:20:00 2 C 5.39 g/m*3 2 C 0 km/h
2202 04-01-2021 15:25:00 2 C 5.39 g/m*3 2 C 0 km/h
2203 04-01-2021 15:30:00 2 C 5.39 g/m*3 2 C 0 km/h
2204 04-01-2021 15:35:00 2 C 5.39 g/m*3 2 C 0 km/h
2205 04-01-2021 15:40:00 2 C 5.39 g/m*3 2 C 1.6 km/h
2206 04-01-2021 15:45:00 2 C 5.39 g/m*3 2 C 0 km/h
2207 04-01-2021 15:50:00 2 C 5.39 g/m*3 2 C 1.6 km/h
2208 04-01-2021 15:55:00 2 C 5.39 g/m*3 2 C 0 km/h
2209 04-01-2021 16:00:00 2 C 5.39 g/m*3 2 C 0 km/h
2210 04-01-2021 16:05:00 2 C 5.39 g/m*3 2 C 0 km/h
2211 04-01-2021 16:10:00 2 C 5.39 g/m*3 2 C 0 km/h
2212 04-01-2021 16:15:00 2 C 5.39 g/m*3 2 C 0 km/h
2213 04-01-2021 16:20:00 1.9 C 5.35 g/m*3 1.9 C 0 km/h
2214 04-01-2021 16:25:00 1.9 C 5.35 g/m*3 1.9 C 0 km/h
2215 04-01-2021 16:30:00 1.9 C 5.35 g/m*3 1.9 C 0 km/h
2216 04-01-2021 16:35:00 1.9 C 5.35 g/m*3 1.9 C 0 km/h
2217 04-01-2021 16:40:00 1.9 C 5.35 g/m*3 1.9 C 0 km/h
2218 04-01-2021 16:45:00 1.9 C 5.35 g/m*3 1.9 C 0 km/h
2219 04-01-2021 16:50:00 1.9 C 5.35 g/m*3 1.9 C 0 km/h
2220 04-01-2021 16:55:00 1.9 C 5.35 g/m*3 1.9 C 0 km/h
2221 04-01-2021 17:00:00 1.9 C 5.35 g/m*3 1.9 C 0 km/h
2222 04-01-2021 17:05:00 1.8 C 5.32 g/m*3 1.8 C 0 km/h
2223 04-01-2021 17:10:00 1.8 C 5.32 g/m*3 1.8 C 0 km/h
2224 04-01-2021 17:15:00 1.8 C 5.32 g/m*3 1.8 C 0 km/h
2225 04-01-2021 17:20:00 1.8 C 5.32 g/m*3 1.8 C 0 km/h
Sensor: Nr:Datum:Temp:Abs-Feuchte:Windchill:Wind:
Aussen-T/F 2226 04-01-2021 17:25:00 1.8 C 5.32 g/m*3 1.8 C 0 km/h
2227 04-01-2021 17:30:00 1.8 C 5.32 g/m*3 1.8 C 0 km/h
2228 04-01-2021 17:35:00 1.8 C 5.32 g/m*3 1.8 C 0 km/h
2229 04-01-2021 17:40:00 1.8 C 5.32 g/m*3 1.8 C 0 km/h
2230 04-01-2021 17:45:00 1.8 C 5.32 g/m*3 1.8 C 0 km/h
2231 04-01-2021 17:50:00 1.8 C 5.32 g/m*3 1.8 C 0 km/h
2232 04-01-2021 17:55:00 1.8 C 5.32 g/m*3 1.8 C 0 km/h
2233 04-01-2021 18:00:00 1.8 C 5.32 g/m*3 1.8 C 0 km/h
2234 04-01-2021 18:05:00 1.8 C 5.32 g/m*3 1.8 C 0 km/h
2235 04-01-2021 18:10:00 1.8 C 5.32 g/m*3 1.8 C 1.6 km/h
2236 04-01-2021 18:15:00 1.8 C 5.32 g/m*3 1.8 C 3.2 km/h
2237 04-01-2021 18:20:00 1.8 C 5.32 g/m*3 1.8 C 3.2 km/h
2238 04-01-2021 18:25:00 1.8 C 5.32 g/m*3 1.8 C 0 km/h
2239 04-01-2021 18:30:00 1.8 C 5.32 g/m*3 1.8 C 0 km/h
2240 04-01-2021 18:35:00 1.8 C 5.32 g/m*3 1.8 C 0 km/h
2241 04-01-2021 18:40:00 1.8 C 5.32 g/m*3 1.8 C 0 km/h
2242 04-01-2021 18:45:00 1.8 C 5.32 g/m*3 1.8 C 0 km/h
2243 04-01-2021 18:50:00 1.8 C 5.32 g/m*3 1.8 C 0 km/h
2244 04-01-2021 18:55:00 1.8 C 5.32 g/m*3 1.8 C 0 km/h
2245 04-01-2021 19:00:00 1.8 C 5.32 g/m*3 1.8 C 0 km/h
2246 04-01-2021 19:05:00 1.8 C 5.32 g/m*3 1.8 C 3.2 km/h
2247 04-01-2021 19:10:00 1.8 C 5.32 g/m*3 1.8 C 3.2 km/h
2248 04-01-2021 19:15:00 1.8 C 5.32 g/m*3 1.8 C 1.6 km/h
2249 04-01-2021 19:20:00 1.8 C 5.32 g/m*3 1.8 C 3.2 km/h
2250 04-01-2021 19:25:00 1.8 C 5.32 g/m*3 1.8 C 1.6 km/h
Sensor: Nr:Datum:Temp:Abs-Feuchte:Windchill:Wind:
Aussen-T/F 2251 04-01-2021 19:30:00 1.8 C 5.32 g/m*3 1.8 C 0 km/h
2252 04-01-2021 19:35:00 1.8 C 5.32 g/m*3 1.8 C 0 km/h
2253 04-01-2021 19:40:00 1.8 C 5.32 g/m*3 1.8 C 0 km/h
2254 04-01-2021 19:45:00 1.8 C 5.32 g/m*3 1.8 C 0 km/h
2255 04-01-2021 19:50:00 1.8 C 5.32 g/m*3 1.8 C 0 km/h
2256 04-01-2021 19:55:00 1.8 C 5.32 g/m*3 1.8 C 0 km/h
2257 04-01-2021 20:00:00 1.8 C 5.32 g/m*3 1.8 C 0 km/h
2258 04-01-2021 20:05:00 1.8 C 5.32 g/m*3 1.8 C 0 km/h
2259 04-01-2021 20:10:00 1.8 C 5.32 g/m*3 1.8 C 0 km/h
2260 04-01-2021 20:15:00 1.8 C 5.32 g/m*3 1.8 C 0 km/h
2261 04-01-2021 20:20:00 1.7 C 5.28 g/m*3 1.7 C 0 km/h
2262 04-01-2021 20:25:00 1.7 C 5.28 g/m*3 1.7 C 0 km/h
2263 04-01-2021 20:30:00 1.7 C 5.28 g/m*3 1.7 C 0 km/h
2264 04-01-2021 20:35:00 1.8 C 5.32 g/m*3 1.8 C 0 km/h
2265 04-01-2021 20:40:00 1.8 C 5.32 g/m*3 1.8 C 0 km/h
2266 04-01-2021 20:45:00 1.7 C 5.28 g/m*3 1.7 C 0 km/h
2267 04-01-2021 20:50:00 1.7 C 5.28 g/m*3 1.7 C 0 km/h
2268 04-01-2021 20:55:00 1.7 C 5.28 g/m*3 1.7 C 0 km/h
2269 04-01-2021 21:00:00 1.7 C 5.28 g/m*3 1.7 C 0 km/h
2270 04-01-2021 21:05:00 1.7 C 5.28 g/m*3 1.7 C 0 km/h
2271 04-01-2021 21:10:00 1.7 C 5.28 g/m*3 1.7 C 0 km/h
2272 04-01-2021 21:15:00 1.7 C 5.28 g/m*3 1.7 C 0 km/h
2273 04-01-2021 21:20:00 1.7 C 5.28 g/m*3 1.7 C 0 km/h
2274 04-01-2021 21:25:00 1.7 C 5.28 g/m*3 1.7 C 0 km/h
2275 04-01-2021 21:30:00 1.7 C 5.28 g/m*3 1.7 C 0 km/h
Sensor: Nr:Datum:Temp:Abs-Feuchte:Windchill:Wind:
Aussen-T/F 2276 04-01-2021 21:35:00 1.8 C 5.32 g/m*3 1.8 C 0 km/h
2277 04-01-2021 21:40:00 1.7 C 5.28 g/m*3 1.7 C 0 km/h
2278 04-01-2021 21:45:00 1.7 C 5.28 g/m*3 1.7 C 0 km/h
2279 04-01-2021 21:50:00 1.7 C 5.28 g/m*3 1.7 C 0 km/h
2280 04-01-2021 21:55:00 1.7 C 5.28 g/m*3 1.7 C 0 km/h
2281 04-01-2021 22:00:00 1.7 C 5.28 g/m*3 1.7 C 0 km/h
2282 04-01-2021 22:05:00 1.7 C 5.28 g/m*3 1.7 C 0 km/h
2283 04-01-2021 22:10:00 1.7 C 5.28 g/m*3 1.7 C 0 km/h
2284 04-01-2021 22:15:00 1.8 C 5.32 g/m*3 1.8 C 0 km/h
2285 04-01-2021 22:20:00 1.8 C 5.32 g/m*3 1.8 C 0 km/h
2286 04-01-2021 22:25:00 1.8 C 5.32 g/m*3 1.8 C 0 km/h
2287 04-01-2021 22:30:00 1.8 C 5.32 g/m*3 1.8 C 0 km/h
2288 04-01-2021 22:35:00 1.8 C 5.32 g/m*3 1.8 C 0 km/h
2289 04-01-2021 22:40:00 1.8 C 5.32 g/m*3 1.8 C 0 km/h
2290 04-01-2021 22:45:00 1.8 C 5.32 g/m*3 1.8 C 0 km/h
2291 04-01-2021 22:50:00 1.8 C 5.32 g/m*3 1.8 C 0 km/h
2292 04-01-2021 22:55:00 1.8 C 5.32 g/m*3 1.8 C 0 km/h
2293 04-01-2021 23:00:00 1.8 C 5.32 g/m*3 1.8 C 0 km/h
2294 04-01-2021 23:05:00 1.8 C 5.32 g/m*3 1.8 C 0 km/h
2295 04-01-2021 23:10:00 1.8 C 5.32 g/m*3 1.8 C 0 km/h
2296 04-01-2021 23:15:00 1.8 C 5.32 g/m*3 1.8 C 0 km/h
2297 04-01-2021 23:20:00 1.8 C 5.32 g/m*3 1.8 C 0 km/h
2298 04-01-2021 23:25:00 1.8 C 5.32 g/m*3 1.8 C 0 km/h
2299 04-01-2021 23:30:00 1.8 C 5.32 g/m*3 1.8 C 0 km/h
2300 04-01-2021 23:35:00 1.8 C 5.32 g/m*3 1.8 C 0 km/h
Sensor: Nr:Datum:Temp:Abs-Feuchte:Windchill:Wind:
Aussen-T/F 2301 04-01-2021 23:40:00 1.8 C 5.32 g/m*3 1.8 C 0 km/h
2302 04-01-2021 23:45:00 1.8 C 5.32 g/m*3 1.8 C 1.6 km/h
2303 04-01-2021 23:50:00 1.8 C 5.32 g/m*3 1.8 C 0 km/h
2304 04-01-2021 23:55:00 1.8 C 5.32 g/m*3 1.8 C 4.8 km/h
2305 05-01-2021 00:00:00 1.8 C 5.32 g/m*3 1.8 C 3.2 km/h
2306 05-01-2021 00:05:00 1.8 C 5.32 g/m*3 1.8 C 1.6 km/h
2307 05-01-2021 00:10:00 1.8 C 5.32 g/m*3 1.8 C 0 km/h
2308 05-01-2021 00:15:00 1.8 C 5.32 g/m*3 1.8 C 0 km/h
2309 05-01-2021 00:20:00 1.8 C 5.32 g/m*3 1.8 C 0 km/h
2310 05-01-2021 00:25:00 1.8 C 5.32 g/m*3 1.8 C 0 km/h
2311 05-01-2021 00:30:00 1.8 C 5.32 g/m*3 1.8 C 0 km/h
2312 05-01-2021 00:35:00 1.9 C 5.35 g/m*3 1.9 C 0 km/h
2313 05-01-2021 00:40:00 1.9 C 5.35 g/m*3 1.9 C 0 km/h
2314 05-01-2021 00:45:00 1.9 C 5.35 g/m*3 1.9 C 0 km/h
2315 05-01-2021 00:50:00 1.9 C 5.35 g/m*3 1.9 C 0 km/h
2316 05-01-2021 00:55:00 1.9 C 5.35 g/m*3 1.9 C 0 km/h
2317 05-01-2021 01:00:00 1.9 C 5.35 g/m*3 1.9 C 0 km/h
2318 05-01-2021 01:05:00 1.9 C 5.35 g/m*3 1.9 C 0 km/h
2319 05-01-2021 01:10:00 1.9 C 5.35 g/m*3 1.9 C 1.6 km/h
2320 05-01-2021 01:15:00 1.9 C 5.35 g/m*3 1.9 C 0 km/h
2321 05-01-2021 01:20:00 1.9 C 5.35 g/m*3 1.9 C 1.6 km/h
2322 05-01-2021 01:25:00 1.9 C 5.35 g/m*3 1.9 C 0 km/h
2323 05-01-2021 01:30:00 1.9 C 5.35 g/m*3 1.9 C 0 km/h
2324 05-01-2021 01:35:00 1.9 C 5.35 g/m*3 1.9 C 0 km/h
2325 05-01-2021 01:40:00 1.9 C 5.35 g/m*3 1.9 C 0 km/h
Sensor: Nr:Datum:Temp:Abs-Feuchte:Windchill:Wind:
Aussen-T/F 2326 05-01-2021 01:45:00 1.9 C 5.35 g/m*3 1.9 C 0 km/h
2327 05-01-2021 01:50:00 1.9 C 5.35 g/m*3 1.9 C 0 km/h
2328 05-01-2021 01:55:00 1.9 C 5.35 g/m*3 1.9 C 1.6 km/h
2329 05-01-2021 02:00:00 1.9 C 5.35 g/m*3 1.9 C 0 km/h
2330 05-01-2021 02:05:00 1.9 C 5.35 g/m*3 1.9 C 0 km/h
2331 05-01-2021 02:10:00 1.9 C 5.35 g/m*3 1.9 C 1.6 km/h
2332 05-01-2021 02:15:00 1.9 C 5.35 g/m*3 1.9 C 0 km/h
2333 05-01-2021 02:20:00 1.9 C 5.35 g/m*3 1.9 C 0 km/h
2334 05-01-2021 02:25:00 1.9 C 5.35 g/m*3 1.9 C 0 km/h
2335 05-01-2021 02:30:00 1.9 C 5.35 g/m*3 1.9 C 1.6 km/h
2336 05-01-2021 02:35:00 1.9 C 5.35 g/m*3 1.9 C 3.2 km/h
2337 05-01-2021 02:40:00 1.9 C 5.35 g/m*3 1.9 C 0 km/h
2338 05-01-2021 02:45:00 1.9 C 5.35 g/m*3 1.9 C 0 km/h
2339 05-01-2021 02:50:00 1.9 C 5.35 g/m*3 1.9 C 0 km/h
2340 05-01-2021 02:55:00 1.9 C 5.35 g/m*3 1.9 C 0 km/h
2341 05-01-2021 03:00:00 2 C 5.39 g/m*3 2 C 0 km/h
2342 05-01-2021 03:05:00 2 C 5.39 g/m*3 2 C 0 km/h
2343 05-01-2021 03:10:00 2 C 5.39 g/m*3 2 C 0 km/h
2344 05-01-2021 03:15:00 2 C 5.39 g/m*3 2 C 0 km/h
2345 05-01-2021 03:20:00 1.9 C 5.35 g/m*3 1.9 C 0 km/h
2346 05-01-2021 03:25:00 2 C 5.39 g/m*3 2 C 0 km/h
2347 05-01-2021 03:30:00 2 C 5.39 g/m*3 2 C 0 km/h
2348 05-01-2021 03:35:00 2 C 5.39 g/m*3 2 C 0 km/h
2349 05-01-2021 03:40:00 2 C 5.39 g/m*3 2 C 0 km/h
2350 05-01-2021 03:45:00 2 C 5.39 g/m*3 2 C 0 km/h
Sensor: Nr:Datum:Temp:Abs-Feuchte:Windchill:Wind:
Aussen-T/F 2351 05-01-2021 03:50:00 2 C 5.33 g/m*3 2 C 1.6 km/h
2352 05-01-2021 03:55:00 2 C 5.33 g/m*3 2 C 0 km/h
2353 05-01-2021 04:00:00 2.1 C 5.37 g/m*3 2.1 C 0 km/h
2354 05-01-2021 04:05:00 2.1 C 5.37 g/m*3 2.1 C 0 km/h
2355 05-01-2021 04:10:00 2.1 C 5.37 g/m*3 2.1 C 0 km/h
2356 05-01-2021 04:15:00 2.1 C 5.37 g/m*3 2.1 C 0 km/h
2357 05-01-2021 04:20:00 2.1 C 5.37 g/m*3 2.1 C 0 km/h
2358 05-01-2021 04:25:00 2.1 C 5.37 g/m*3 2.1 C 0 km/h
2359 05-01-2021 04:30:00 2.1 C 5.37 g/m*3 2.1 C 0 km/h
2360 05-01-2021 04:35:00 2.1 C 5.37 g/m*3 2.1 C 0 km/h
2361 05-01-2021 04:40:00 2.1 C 5.37 g/m*3 2.1 C 0 km/h
2362 05-01-2021 04:45:00 2.1 C 5.37 g/m*3 2.1 C 0 km/h
2363 05-01-2021 04:50:00 2.1 C 5.37 g/m*3 2.1 C 0 km/h
2364 05-01-2021 04:55:00 2.1 C 5.37 g/m*3 2.1 C 0 km/h
2365 05-01-2021 05:00:00 2 C 5.33 g/m*3 2 C 0 km/h
2366 05-01-2021 05:05:00 2 C 5.33 g/m*3 2 C 0 km/h
2367 05-01-2021 05:10:00 2.1 C 5.37 g/m*3 2.1 C 0 km/h
2368 05-01-2021 05:15:00 2.1 C 5.37 g/m*3 2.1 C 0 km/h
2369 05-01-2021 05:20:00 2.1 C 5.37 g/m*3 2.1 C 0 km/h
2370 05-01-2021 05:25:00 2.1 C 5.37 g/m*3 2.1 C 0 km/h
2371 05-01-2021 05:30:00 2.1 C 5.37 g/m*3 2.1 C 0 km/h
2372 05-01-2021 05:35:00 2.1 C 5.37 g/m*3 2.1 C 0 km/h
2373 05-01-2021 05:40:00 2.1 C 5.37 g/m*3 2.1 C 0 km/h
2374 05-01-2021 05:45:00 2.1 C 5.37 g/m*3 2.1 C 0 km/h
2375 05-01-2021 05:50:00 2.1 C 5.37 g/m*3 2.1 C 0 km/h
Sensor: Nr:Datum:Temp:Abs-Feuchte:Windchill:Wind:
Aussen-T/F 2376 05-01-2021 05:55:00 2.1 C 5.37 g/m*3 2.1 C 0 km/h
2377 05-01-2021 06:00:00 2.1 C 5.37 g/m*3 2.1 C 0 km/h
2378 05-01-2021 06:05:00 2.1 C 5.37 g/m*3 2.1 C 0 km/h
2379 05-01-2021 06:10:00 2.1 C 5.37 g/m*3 2.1 C 0 km/h
2380 05-01-2021 06:15:00 2.1 C 5.37 g/m*3 2.1 C 0 km/h
2381 05-01-2021 06:20:00 2.1 C 5.37 g/m*3 2.1 C 0 km/h
2382 05-01-2021 06:25:00 2.1 C 5.37 g/m*3 2.1 C 0 km/h
2383 05-01-2021 06:30:00 2.1 C 5.37 g/m*3 2.1 C 0 km/h
2384 05-01-2021 06:35:00 2.1 C 5.37 g/m*3 2.1 C 0 km/h
2385 05-01-2021 06:40:00 2.1 C 5.37 g/m*3 2.1 C 0 km/h
2386 05-01-2021 06:45:00 2.1 C 5.37 g/m*3 2.1 C 0 km/h
2387 05-01-2021 06:50:00 2.1 C 5.37 g/m*3 2.1 C 0 km/h
2388 05-01-2021 06:55:00 2.1 C 5.37 g/m*3 2.1 C 0 km/h
2389 05-01-2021 07:00:00 2.1 C 5.37 g/m*3 2.1 C 0 km/h
2390 05-01-2021 07:05:00 2.1 C 5.37 g/m*3 2.1 C 0 km/h
2391 05-01-2021 07:10:00 2.1 C 5.37 g/m*3 2.1 C 1.6 km/h
2392 05-01-2021 07:15:00 2.1 C 5.37 g/m*3 2.1 C 0 km/h
2393 05-01-2021 07:20:00 2.1 C 5.37 g/m*3 2.1 C 0 km/h
2394 05-01-2021 07:25:00 2.1 C 5.37 g/m*3 2.1 C 0 km/h
2395 05-01-2021 07:30:00 2.1 C 5.37 g/m*3 2.1 C 0 km/h
2396 05-01-2021 07:35:00 2.1 C 5.37 g/m*3 2.1 C 0 km/h
2397 05-01-2021 07:40:00 2.1 C 5.37 g/m*3 2.1 C 1.6 km/h
2398 05-01-2021 07:45:00 2.1 C 5.37 g/m*3 2.1 C 0 km/h
2399 05-01-2021 07:50:00 2 C 5.33 g/m*3 2 C 0 km/h
2400 05-01-2021 07:55:00 2 C 5.33 g/m*3 2 C 0 km/h
Sensor: Nr:Datum:Temp:Abs-Feuchte:Windchill:Wind:
Aussen-T/F 2401 05-01-2021 08:00:00 2 C 5.33 g/m*3 2 C 0 km/h
2402 05-01-2021 08:05:00 2 C 5.33 g/m*3 2 C 0 km/h
2403 05-01-2021 08:10:00 2 C 5.33 g/m*3 2 C 0 km/h
2404 05-01-2021 08:15:00 2 C 5.33 g/m*3 2 C 0 km/h
2405 05-01-2021 08:20:00 2 C 5.33 g/m*3 2 C 0 km/h
2406 05-01-2021 08:25:00 2 C 5.33 g/m*3 2 C 0 km/h
2407 05-01-2021 08:30:00 2.1 C 5.37 g/m*3 2.1 C 1.6 km/h
2408 05-01-2021 08:35:00 2.1 C 5.37 g/m*3 2.1 C 0 km/h
2409 05-01-2021 08:40:00 2.1 C 5.37 g/m*3 2.1 C 0 km/h
2410 05-01-2021 08:45:00 2.1 C 5.37 g/m*3 2.1 C 0 km/h
2411 05-01-2021 08:50:00 2.1 C 5.37 g/m*3 2.1 C 0 km/h
2412 05-01-2021 08:55:00 2.1 C 5.37 g/m*3 2.1 C 0 km/h
2413 05-01-2021 09:00:00 2.1 C 5.37 g/m*3 2.1 C 0 km/h
2414 05-01-2021 09:05:00 2.1 C 5.37 g/m*3 2.1 C 0 km/h
2415 05-01-2021 09:10:00 2.1 C 5.37 g/m*3 2.1 C 0 km/h
2416 05-01-2021 09:15:00 2.1 C 5.37 g/m*3 2.1 C 0 km/h
2417 05-01-2021 09:20:00 2.1 C 5.37 g/m*3 2.1 C 0 km/h
2418 05-01-2021 09:25:00 2.1 C 5.37 g/m*3 2.1 C 0 km/h
2419 05-01-2021 09:30:00 2.2 C 5.41 g/m*3 2.2 C 0 km/h
2420 05-01-2021 09:35:00 2.2 C 5.41 g/m*3 2.2 C 0 km/h
2421 05-01-2021 09:40:00 2.2 C 5.46 g/m*3 2.2 C 0 km/h
2422 05-01-2021 09:45:00 2.2 C 5.41 g/m*3 2.2 C 0 km/h
2423 05-01-2021 09:50:00 2.2 C 5.41 g/m*3 2.2 C 0 km/h
2424 05-01-2021 09:55:00 2.2 C 5.41 g/m*3 2.2 C 1.6 km/h
2425 05-01-2021 10:00:00 2.2 C 5.41 g/m*3 2.2 C 1.6 km/h
Sensor: Nr:Datum:Temp:Abs-Feuchte:Windchill:Wind:
Aussen-T/F 2426 05-01-2021 10:05:00 2.3 C 5.44 g/m*3 2.3 C 1.6 km/h
2427 05-01-2021 10:10:00 2.3 C 5.44 g/m*3 2.3 C 0 km/h
2428 05-01-2021 10:15:00 2.3 C 5.44 g/m*3 2.3 C 0 km/h
2429 05-01-2021 10:20:00 2.3 C 5.44 g/m*3 2.3 C 0 km/h
2430 05-01-2021 10:25:00 2.3 C 5.44 g/m*3 2.3 C 1.6 km/h
2431 05-01-2021 10:30:00 2.3 C 5.44 g/m*3 2.3 C 0 km/h
2432 05-01-2021 10:35:00 2.4 C 5.48 g/m*3 2.4 C 0 km/h
2433 05-01-2021 10:40:00 2.4 C 5.48 g/m*3 2.4 C 0 km/h
2434 05-01-2021 10:45:00 2.4 C 5.48 g/m*3 2.4 C 3.2 km/h
2435 05-01-2021 10:50:00 2.4 C 5.48 g/m*3 2.4 C 3.2 km/h
2436 05-01-2021 10:55:00 2.5 C 5.52 g/m*3 2.5 C 0 km/h
2437 05-01-2021 11:00:00 2.5 C 5.46 g/m*3 2.5 C 3.2 km/h
2438 05-01-2021 11:05:00 2.6 C 5.5 g/m*3 2.6 C 0 km/h
2439 05-01-2021 11:10:00 2.6 C 5.5 g/m*3 2.6 C 0 km/h
2440 05-01-2021 11:15:00 2.6 C 5.5 g/m*3 2.6 C 0 km/h
2441 05-01-2021 11:20:00 2.6 C 5.5 g/m*3 2.6 C 1.6 km/h
2442 05-01-2021 11:25:00 2.6 C 5.5 g/m*3 2.6 C 1.6 km/h
2443 05-01-2021 11:30:00 2.7 C 5.48 g/m*3 2.7 C 0 km/h
2444 05-01-2021 11:35:00 2.7 C 5.48 g/m*3 2.7 C 0 km/h
2445 05-01-2021 11:40:00 2.7 C 5.48 g/m*3 2.7 C 0 km/h
2446 05-01-2021 11:45:00 2.7 C 5.48 g/m*3 2.7 C 1.6 km/h
2447 05-01-2021 11:50:00 2.8 C 5.46 g/m*3 2.8 C 1.6 km/h
2448 05-01-2021 11:55:00 2.8 C 5.51 g/m*3 2.8 C 4.8 km/h
2449 05-01-2021 12:00:00 2.8 C 5.46 g/m*3 2.8 C 4.8 km/h
2450 05-01-2021 12:05:00 2.8 C 5.46 g/m*3 2.8 C 4.8 km/h
Sensor: Nr:Datum:Temp:Abs-Feuchte:Windchill:Wind:
Aussen-T/F 2451 05-01-2021 12:10:00 2.9 C 5.49 g/m*3 2.9 C 3.2 km/h
2452 05-01-2021 12:15:00 2.9 C 5.49 g/m*3 2.9 C 3.2 km/h
2453 05-01-2021 12:20:00 2.9 C 5.49 g/m*3 2.9 C 1.6 km/h
2454 05-01-2021 12:25:00 2.9 C 5.49 g/m*3 2.9 C 3.2 km/h
2455 05-01-2021 12:30:00 2.9 C 5.49 g/m*3 2.9 C 3.2 km/h
2456 05-01-2021 12:35:00 2.9 C 5.49 g/m*3 1.17 C 6.4 km/h
2457 05-01-2021 12:40:00 2.9 C 5.43 g/m*3 0.64 C 8.1 km/h
2458 05-01-2021 12:45:00 2.9 C 5.49 g/m*3 1.17 C 6.4 km/h
2459 05-01-2021 12:50:00 2.9 C 5.49 g/m*3 2.9 C 4.8 km/h
2460 05-01-2021 12:55:00 2.9 C 5.49 g/m*3 2.9 C 4.8 km/h
2461 05-01-2021 13:00:00 2.9 C 5.49 g/m*3 2.9 C 3.2 km/h
2462 05-01-2021 13:05:00 2.9 C 5.49 g/m*3 2.9 C 0 km/h
2463 05-01-2021 13:10:00 3 C 5.53 g/m*3 3 C 0 km/h
2464 05-01-2021 13:15:00 3 C 5.53 g/m*3 3 C 0 km/h
2465 05-01-2021 13:20:00 3 C 5.53 g/m*3 3 C 0 km/h
2466 05-01-2021 13:25:00 3 C 5.53 g/m*3 3 C 0 km/h
2467 05-01-2021 13:30:00 3.1 C 5.57 g/m*3 3.1 C 0 km/h
2468 05-01-2021 13:35:00 3.1 C 5.57 g/m*3 3.1 C 0 km/h
2469 05-01-2021 13:40:00 3.1 C 5.57 g/m*3 3.1 C 0 km/h
2470 05-01-2021 13:45:00 3.1 C 5.57 g/m*3 3.1 C 0 km/h
2471 05-01-2021 13:50:00 3.1 C 5.57 g/m*3 3.1 C 0 km/h
2472 05-01-2021 13:55:00 3.1 C 5.57 g/m*3 3.1 C 0 km/h
2473 05-01-2021 14:00:00 3.2 C 5.6 g/m*3 3.2 C 0 km/h
2474 05-01-2021 14:05:00 3.2 C 5.6 g/m*3 3.2 C 0 km/h
2475 05-01-2021 14:10:00 3.2 C 5.6 g/m*3 3.2 C 0 km/h
Sensor: Nr:Datum:Temp:Abs-Feuchte:Windchill:Wind:
Aussen-T/F 2476 05-01-2021 14:15:00 3.2 C 5.6 g/m*3 3.2 C 0 km/h
2477 05-01-2021 14:20:00 3.2 C 5.6 g/m*3 3.2 C 0 km/h
2478 05-01-2021 14:25:00 3.2 C 5.6 g/m*3 3.2 C 0 km/h
2479 05-01-2021 14:30:00 3.3 C 5.64 g/m*3 3.3 C 0 km/h
2480 05-01-2021 14:35:00 3.3 C 5.64 g/m*3 3.3 C 0 km/h
2481 05-01-2021 14:40:00 3.3 C 5.64 g/m*3 3.3 C 0 km/h
2482 05-01-2021 14:45:00 3.3 C 5.64 g/m*3 3.3 C 0 km/h
2483 05-01-2021 14:50:00 3.3 C 5.64 g/m*3 3.3 C 0 km/h
2484 05-01-2021 14:55:00 3.3 C 5.64 g/m*3 3.3 C 0 km/h
2485 05-01-2021 15:00:00 3.3 C 5.64 g/m*3 3.3 C 0 km/h
2486 05-01-2021 15:05:00 3.3 C 5.64 g/m*3 3.3 C 0 km/h
2487 05-01-2021 15:10:00 3.3 C 5.64 g/m*3 3.3 C 0 km/h
2488 05-01-2021 15:15:00 3.3 C 5.64 g/m*3 3.3 C 0 km/h
2489 05-01-2021 15:20:00 3.3 C 5.64 g/m*3 3.3 C 0 km/h
2490 05-01-2021 15:25:00 3.3 C 5.64 g/m*3 3.3 C 0 km/h
2491 05-01-2021 15:30:00 3.3 C 5.64 g/m*3 3.3 C 0 km/h
2492 05-01-2021 15:35:00 3.3 C 5.64 g/m*3 3.3 C 0 km/h
2493 05-01-2021 15:40:00 3.3 C 5.64 g/m*3 3.3 C 0 km/h
2494 05-01-2021 15:45:00 3.3 C 5.64 g/m*3 3.3 C 0 km/h
2495 05-01-2021 15:50:00 3.3 C 5.64 g/m*3 3.3 C 0 km/h
2496 05-01-2021 15:55:00 3.3 C 5.64 g/m*3 3.3 C 0 km/h
2497 05-01-2021 16:00:00 3.3 C 5.64 g/m*3 3.3 C 0 km/h
2498 05-01-2021 16:05:00 3.3 C 5.64 g/m*3 3.3 C 0 km/h
2499 05-01-2021 16:10:00 3.3 C 5.64 g/m*3 3.3 C 0 km/h
2500 05-01-2021 16:15:00 3.3 C 5.64 g/m*3 3.3 C 0 km/h
Sensor: Nr:Datum:Temp:Abs-Feuchte:Windchill:Wind:
Aussen-T/F 2501 05-01-2021 16:20:00 3.2 C 5.66 g/m*3 3.2 C 0 km/h
2502 05-01-2021 16:25:00 3.2 C 5.6 g/m*3 3.2 C 0 km/h
2503 05-01-2021 16:30:00 3.2 C 5.6 g/m*3 3.2 C 0 km/h
2504 05-01-2021 16:35:00 3.2 C 5.6 g/m*3 3.2 C 0 km/h
2505 05-01-2021 16:40:00 3.2 C 5.6 g/m*3 3.2 C 0 km/h
2506 05-01-2021 16:45:00 3.1 C 5.57 g/m*3 3.1 C 0 km/h
2507 05-01-2021 16:50:00 3.1 C 5.57 g/m*3 3.1 C 0 km/h
2508 05-01-2021 16:55:00 3.1 C 5.57 g/m*3 3.1 C 0 km/h
2509 05-01-2021 17:00:00 3.1 C 5.57 g/m*3 3.1 C 0 km/h
2510 05-01-2021 17:05:00 3.1 C 5.57 g/m*3 3.1 C 0 km/h
2511 05-01-2021 17:10:00 3.1 C 5.57 g/m*3 3.1 C 0 km/h
2512 05-01-2021 17:15:00 3.1 C 5.63 g/m*3 3.1 C 0 km/h
2513 05-01-2021 17:20:00 3.1 C 5.63 g/m*3 3.1 C 0 km/h
2514 05-01-2021 17:25:00 3.1 C 5.63 g/m*3 3.1 C 0 km/h
2515 05-01-2021 17:30:00 3 C 5.59 g/m*3 3 C 0 km/h
2516 05-01-2021 17:35:00 3 C 5.59 g/m*3 3 C 0 km/h
2517 05-01-2021 17:40:00 3 C 5.59 g/m*3 3 C 0 km/h
2518 05-01-2021 17:45:00 3 C 5.59 g/m*3 3 C 0 km/h
2519 05-01-2021 17:50:00 3 C 5.59 g/m*3 3 C 0 km/h
2520 05-01-2021 17:55:00 3 C 5.59 g/m*3 3 C 0 km/h
2521 05-01-2021 18:00:00 3 C 5.59 g/m*3 3 C 0 km/h
2522 05-01-2021 18:05:00 2.9 C 5.55 g/m*3 2.9 C 0 km/h
2523 05-01-2021 18:10:00 2.9 C 5.55 g/m*3 2.9 C 0 km/h
2524 05-01-2021 18:15:00 2.9 C 5.55 g/m*3 2.9 C 0 km/h
2525 05-01-2021 18:20:00 2.9 C 5.55 g/m*3 2.9 C 0 km/h
Sensor: Nr:Datum:Temp:Abs-Feuchte:Windchill:Wind:
Aussen-T/F 2526 05-01-2021 18:25:00 2.9 C 5.55 g/m*3 2.9 C 0 km/h
2527 05-01-2021 18:30:00 2.9 C 5.55 g/m*3 2.9 C 0 km/h
2528 05-01-2021 18:35:00 2.9 C 5.55 g/m*3 2.9 C 0 km/h
2529 05-01-2021 18:40:00 2.9 C 5.55 g/m*3 2.9 C 0 km/h
2530 05-01-2021 18:45:00 2.9 C 5.55 g/m*3 2.9 C 0 km/h
2531 05-01-2021 18:50:00 2.9 C 5.61 g/m*3 2.9 C 0 km/h
2532 05-01-2021 18:55:00 2.9 C 5.61 g/m*3 2.9 C 0 km/h
2533 05-01-2021 19:00:00 2.9 C 5.61 g/m*3 2.9 C 0 km/h
2534 05-01-2021 19:05:00 2.9 C 5.61 g/m*3 2.9 C 0 km/h
2535 05-01-2021 19:10:00 2.9 C 5.61 g/m*3 2.9 C 0 km/h
2536 05-01-2021 19:15:00 2.9 C 5.61 g/m*3 2.9 C 0 km/h
2537 05-01-2021 19:20:00 2.9 C 5.61 g/m*3 2.9 C 0 km/h
2538 05-01-2021 19:25:00 2.9 C 5.61 g/m*3 2.9 C 0 km/h
2539 05-01-2021 19:30:00 2.9 C 5.61 g/m*3 2.9 C 0 km/h
2540 05-01-2021 19:35:00 2.9 C 5.61 g/m*3 2.9 C 0 km/h
2541 05-01-2021 19:40:00 2.9 C 5.61 g/m*3 2.9 C 0 km/h
2542 05-01-2021 19:45:00 2.9 C 5.61 g/m*3 2.9 C 0 km/h
2543 05-01-2021 19:50:00 2.9 C 5.61 g/m*3 2.9 C 0 km/h
2544 05-01-2021 19:55:00 2.9 C 5.61 g/m*3 2.9 C 0 km/h
2545 05-01-2021 20:00:00 2.9 C 5.61 g/m*3 2.9 C 0 km/h
2546 05-01-2021 20:05:00 2.9 C 5.61 g/m*3 2.9 C 0 km/h
2547 05-01-2021 20:10:00 2.9 C 5.61 g/m*3 2.9 C 0 km/h
2548 05-01-2021 20:15:00 2.9 C 5.61 g/m*3 2.9 C 0 km/h
2549 05-01-2021 20:20:00 2.9 C 5.61 g/m*3 2.9 C 0 km/h
2550 05-01-2021 20:25:00 2.9 C 5.61 g/m*3 2.9 C 0 km/h
Sensor: Nr:Datum:Temp:Abs-Feuchte:Windchill:Wind:
Aussen-T/F 2551 05-01-2021 20:30:00 2.9 C 5.61 g/m*3 2.9 C 0 km/h
2552 05-01-2021 20:35:00 2.9 C 5.61 g/m*3 2.9 C 0 km/h
2553 05-01-2021 20:40:00 2.9 C 5.61 g/m*3 2.9 C 0 km/h
2554 05-01-2021 20:45:00 2.9 C 5.61 g/m*3 2.9 C 0 km/h
2555 05-01-2021 20:50:00 2.9 C 5.61 g/m*3 2.9 C 0 km/h
2556 05-01-2021 20:55:00 2.9 C 5.61 g/m*3 2.9 C 0 km/h
2557 05-01-2021 21:00:00 2.9 C 5.61 g/m*3 2.9 C 0 km/h
2558 05-01-2021 21:05:00 2.9 C 5.61 g/m*3 2.9 C 0 km/h
2559 05-01-2021 21:10:00 2.9 C 5.61 g/m*3 2.9 C 0 km/h
2560 05-01-2021 21:15:00 2.9 C 5.61 g/m*3 2.9 C 0 km/h
2561 05-01-2021 21:20:00 2.9 C 5.61 g/m*3 2.9 C 0 km/h
2562 05-01-2021 21:25:00 2.9 C 5.61 g/m*3 2.9 C 0 km/h
2563 05-01-2021 21:30:00 2.9 C 5.61 g/m*3 2.9 C 0 km/h
2564 05-01-2021 21:35:00 2.9 C 5.61 g/m*3 2.9 C 0 km/h
2565 05-01-2021 21:40:00 2.9 C 5.61 g/m*3 2.9 C 0 km/h
2566 05-01-2021 21:45:00 2.9 C 5.61 g/m*3 2.9 C 0 km/h
2567 05-01-2021 21:50:00 2.9 C 5.61 g/m*3 2.9 C 0 km/h
2568 05-01-2021 21:55:00 2.9 C 5.61 g/m*3 2.9 C 0 km/h
2569 05-01-2021 22:00:00 2.9 C 5.61 g/m*3 2.9 C 0 km/h
2570 05-01-2021 22:05:00 2.9 C 5.61 g/m*3 2.9 C 0 km/h
2571 05-01-2021 22:10:00 2.9 C 5.61 g/m*3 2.9 C 0 km/h
2572 05-01-2021 22:15:00 2.9 C 5.61 g/m*3 2.9 C 0 km/h
2573 05-01-2021 22:20:00 2.8 C 5.57 g/m*3 2.8 C 0 km/h
2574 05-01-2021 22:25:00 2.8 C 5.57 g/m*3 2.8 C 0 km/h
2575 05-01-2021 22:30:00 2.8 C 5.57 g/m*3 2.8 C 0 km/h
Sensor: Nr:Datum:Temp:Abs-Feuchte:Windchill:Wind:
Aussen-T/F 2576 05-01-2021 22:35:00 2.7 C 5.54 g/m*3 2.7 C 0 km/h
2577 05-01-2021 22:40:00 2.6 C 5.5 g/m*3 2.6 C 0 km/h
2578 05-01-2021 22:45:00 2.4 C 5.37 g/m*3 2.4 C 0 km/h
2579 05-01-2021 22:50:00 2.3 C 5.33 g/m*3 2.3 C 0 km/h
2580 05-01-2021 22:55:00 2.2 C 5.35 g/m*3 2.2 C 0 km/h
2581 05-01-2021 23:00:00 2.2 C 5.35 g/m*3 2.2 C 0 km/h
2582 05-01-2021 23:05:00 2.2 C 5.35 g/m*3 2.2 C 0 km/h
2583 05-01-2021 23:10:00 2.2 C 5.35 g/m*3 2.2 C 0 km/h
2584 05-01-2021 23:15:00 2.2 C 5.35 g/m*3 2.2 C 0 km/h
2585 05-01-2021 23:20:00 2.3 C 5.39 g/m*3 2.3 C 0 km/h
2586 05-01-2021 23:25:00 2.3 C 5.39 g/m*3 2.3 C 0 km/h
2587 05-01-2021 23:30:00 2.4 C 5.42 g/m*3 2.4 C 3.2 km/h
2588 05-01-2021 23:35:00 2.4 C 5.42 g/m*3 2.4 C 0 km/h
2589 05-01-2021 23:40:00 2.5 C 5.52 g/m*3 2.5 C 0 km/h
2590 05-01-2021 23:45:00 2.5 C 5.52 g/m*3 2.5 C 0 km/h
2591 05-01-2021 23:50:00 2.6 C 5.56 g/m*3 2.6 C 0 km/h
2592 05-01-2021 23:55:00 2.6 C 5.56 g/m*3 2.6 C 0 km/h
2593 06-01-2021 00:00:00 2.6 C 5.56 g/m*3 2.6 C 0 km/h
2594 06-01-2021 00:05:00 2.6 C 5.56 g/m*3 2.6 C 0 km/h
2595 06-01-2021 00:10:00 2.6 C 5.56 g/m*3 2.6 C 0 km/h
2596 06-01-2021 00:15:00 2.6 C 5.5 g/m*3 2.6 C 0 km/h
2597 06-01-2021 00:20:00 2.7 C 5.54 g/m*3 2.7 C 0 km/h
2598 06-01-2021 00:25:00 2.7 C 5.54 g/m*3 2.7 C 0 km/h
2599 06-01-2021 00:30:00 2.7 C 5.54 g/m*3 2.7 C 0 km/h
2600 06-01-2021 00:35:00 2.7 C 5.54 g/m*3 2.7 C 0 km/h
Sensor: Nr:Datum:Temp:Abs-Feuchte:Windchill:Wind:
Aussen-T/F 2601 06-01-2021 00:40:00 2.7 C 5.54 g/m*3 2.7 C 0 km/h
2602 06-01-2021 00:45:00 2.7 C 5.54 g/m*3 2.7 C 0 km/h
2603 06-01-2021 00:50:00 2.7 C 5.54 g/m*3 2.7 C 0 km/h
2604 06-01-2021 00:55:00 2.7 C 5.59 g/m*3 2.7 C 0 km/h
2605 06-01-2021 01:00:00 2.7 C 5.59 g/m*3 2.7 C 0 km/h
2606 06-01-2021 01:05:00 2.7 C 5.54 g/m*3 2.7 C 0 km/h
2607 06-01-2021 01:10:00 2.7 C 5.54 g/m*3 2.7 C 0 km/h
2608 06-01-2021 01:15:00 2.7 C 5.59 g/m*3 2.7 C 0 km/h
2609 06-01-2021 01:20:00 2.7 C 5.59 g/m*3 2.7 C 4.8 km/h
2610 06-01-2021 01:25:00 2.7 C 5.54 g/m*3 2.7 C 3.2 km/h
2611 06-01-2021 01:30:00 2.7 C 5.54 g/m*3 2.7 C 4.8 km/h
2612 06-01-2021 01:35:00 2.7 C 5.54 g/m*3 2.7 C 4.8 km/h
2613 06-01-2021 01:40:00 2.7 C 5.54 g/m*3 0.94 C 6.4 km/h
2614 06-01-2021 01:45:00 2.7 C 5.54 g/m*3 0.4 C 8.1 km/h
2615 06-01-2021 01:50:00 2.7 C 5.54 g/m*3 -0.71 C 12.9 km/h
2616 06-01-2021 01:55:00 2.6 C 5.5 g/m*3 0.29 C 8.1 km/h
2617 06-01-2021 02:00:00 2.5 C 5.46 g/m*3 0.71 C 6.4 km/h
2618 06-01-2021 02:05:00 2.5 C 5.46 g/m*3 2.5 C 4.8 km/h
2619 06-01-2021 02:10:00 2.4 C 5.42 g/m*3 2.4 C 4.8 km/h
2620 06-01-2021 02:15:00 2.4 C 5.42 g/m*3 2.4 C 4.8 km/h
2621 06-01-2021 02:20:00 2.4 C 5.42 g/m*3 2.4 C 4.8 km/h
2622 06-01-2021 02:25:00 2.3 C 5.39 g/m*3 0.47 C 6.4 km/h
2623 06-01-2021 02:30:00 2.3 C 5.39 g/m*3 2.3 C 1.6 km/h
2624 06-01-2021 02:35:00 2.3 C 5.39 g/m*3 2.3 C 0 km/h
2625 06-01-2021 02:40:00 2.3 C 5.39 g/m*3 2.3 C 0 km/h
Sensor: Nr:Datum:Temp:Abs-Feuchte:Windchill:Wind:
Aussen-T/F 2626 06-01-2021 02:45:00 2.3 C 5.39 g/m*3 2.3 C 0 km/h
2627 06-01-2021 02:50:00 2.3 C 5.39 g/m*3 2.3 C 0 km/h
2628 06-01-2021 02:55:00 2.2 C 5.35 g/m*3 2.2 C 0 km/h
2629 06-01-2021 03:00:00 2.2 C 5.41 g/m*3 2.2 C 0 km/h
2630 06-01-2021 03:05:00 2.2 C 5.41 g/m*3 2.2 C 0 km/h
2631 06-01-2021 03:10:00 2.2 C 5.41 g/m*3 2.2 C 0 km/h
2632 06-01-2021 03:15:00 2.2 C 5.41 g/m*3 2.2 C 1.6 km/h
2633 06-01-2021 03:20:00 2.2 C 5.35 g/m*3 2.2 C 0 km/h
2634 06-01-2021 03:25:00 2.2 C 5.41 g/m*3 2.2 C 0 km/h
2635 06-01-2021 03:30:00 2.2 C 5.41 g/m*3 2.2 C 0 km/h
2636 06-01-2021 03:35:00 2.2 C 5.41 g/m*3 2.2 C 0 km/h
2637 06-01-2021 03:40:00 2.2 C 5.41 g/m*3 2.2 C 0 km/h
2638 06-01-2021 03:45:00 2.1 C 5.31 g/m*3 2.1 C 0 km/h
2639 06-01-2021 03:50:00 2 C 5.28 g/m*3 2 C 0 km/h
2640 06-01-2021 03:55:00 1.9 C 5.24 g/m*3 1.9 C 0 km/h
2641 06-01-2021 04:00:00 1.8 C 5.21 g/m*3 1.8 C 0 km/h
2642 06-01-2021 04:05:00 1.7 C 5.17 g/m*3 1.7 C 0 km/h
2643 06-01-2021 04:10:00 1.7 C 5.17 g/m*3 1.7 C 0 km/h
2644 06-01-2021 04:15:00 1.6 C 5.14 g/m*3 1.6 C 0 km/h
2645 06-01-2021 04:20:00 1.6 C 5.19 g/m*3 1.6 C 0 km/h
2646 06-01-2021 04:25:00 1.6 C 5.19 g/m*3 1.6 C 0 km/h
2647 06-01-2021 04:30:00 1.6 C 5.19 g/m*3 1.6 C 0 km/h
2648 06-01-2021 04:35:00 1.7 C 5.23 g/m*3 1.7 C 0 km/h
2649 06-01-2021 04:40:00 1.7 C 5.23 g/m*3 1.7 C 0 km/h
2650 06-01-2021 04:45:00 1.7 C 5.23 g/m*3 1.7 C 0 km/h
Sensor: Nr:Datum:Temp:Abs-Feuchte:Windchill:Wind:
Aussen-T/F 2651 06-01-2021 04:50:00 1.7 C 5.23 g/m*3 1.7 C 0 km/h
2652 06-01-2021 04:55:00 1.8 C 5.26 g/m*3 1.8 C 0 km/h
2653 06-01-2021 05:00:00 1.8 C 5.26 g/m*3 1.8 C 1.6 km/h
2654 06-01-2021 05:05:00 1.8 C 5.26 g/m*3 1.8 C 0 km/h
2655 06-01-2021 05:10:00 1.9 C 5.3 g/m*3 1.9 C 0 km/h
2656 06-01-2021 05:15:00 1.9 C 5.3 g/m*3 1.9 C 0 km/h
2657 06-01-2021 05:20:00 1.9 C 5.3 g/m*3 1.9 C 1.6 km/h
2658 06-01-2021 05:25:00 1.9 C 5.3 g/m*3 1.9 C 0 km/h
2659 06-01-2021 05:30:00 2 C 5.33 g/m*3 2 C 0 km/h
2660 06-01-2021 05:35:00 2 C 5.33 g/m*3 2 C 0 km/h
2661 06-01-2021 05:40:00 2 C 5.33 g/m*3 2 C 0 km/h
2662 06-01-2021 05:45:00 2.1 C 5.37 g/m*3 2.1 C 0 km/h
2663 06-01-2021 05:50:00 2.1 C 5.37 g/m*3 2.1 C 0 km/h
2664 06-01-2021 05:55:00 2.1 C 5.37 g/m*3 2.1 C 0 km/h
2665 06-01-2021 06:00:00 2.1 C 5.37 g/m*3 2.1 C 0 km/h
2666 06-01-2021 06:05:00 2.1 C 5.37 g/m*3 2.1 C 0 km/h
2667 06-01-2021 06:10:00 2.1 C 5.37 g/m*3 2.1 C 0 km/h
2668 06-01-2021 06:15:00 2.1 C 5.37 g/m*3 2.1 C 0 km/h
2669 06-01-2021 06:20:00 2.1 C 5.37 g/m*3 2.1 C 0 km/h
2670 06-01-2021 06:25:00 2.1 C 5.37 g/m*3 2.1 C 0 km/h
2671 06-01-2021 06:30:00 2.1 C 5.37 g/m*3 2.1 C 0 km/h
2672 06-01-2021 06:35:00 2.2 C 5.41 g/m*3 2.2 C 0 km/h
2673 06-01-2021 06:40:00 2.2 C 5.41 g/m*3 2.2 C 0 km/h
2674 06-01-2021 06:45:00 2.2 C 5.41 g/m*3 2.2 C 0 km/h
2675 06-01-2021 06:50:00 2.2 C 5.41 g/m*3 2.2 C 0 km/h
Sensor: Nr:Datum:Temp:Abs-Feuchte:Windchill:Wind:
Aussen-T/F 2676 06-01-2021 06:55:00 2.2 C 5.46 g/m*3 2.2 C 0 km/h
2677 06-01-2021 07:00:00 2.2 C 5.41 g/m*3 2.2 C 0 km/h
2678 06-01-2021 07:05:00 2.2 C 5.41 g/m*3 2.2 C 0 km/h
2679 06-01-2021 07:10:00 2.2 C 5.46 g/m*3 2.2 C 0 km/h
2680 06-01-2021 07:15:00 2.2 C 5.46 g/m*3 2.2 C 1.6 km/h
2681 06-01-2021 07:20:00 2.2 C 5.46 g/m*3 2.2 C 0 km/h
2682 06-01-2021 07:25:00 2.2 C 5.46 g/m*3 2.2 C 0 km/h
2683 06-01-2021 07:30:00 2.2 C 5.41 g/m*3 2.2 C 0 km/h
2684 06-01-2021 07:35:00 2.2 C 5.46 g/m*3 2.2 C 4.8 km/h
2685 06-01-2021 07:40:00 2.2 C 5.41 g/m*3 2.2 C 1.6 km/h
2686 06-01-2021 07:45:00 2.2 C 5.41 g/m*3 2.2 C 1.6 km/h
2687 06-01-2021 07:50:00 2.2 C 5.46 g/m*3 2.2 C 4.8 km/h
2688 06-01-2021 07:55:00 2.2 C 5.41 g/m*3 2.2 C 0 km/h
2689 06-01-2021 08:00:00 2.2 C 5.41 g/m*3 2.2 C 0 km/h
2690 06-01-2021 08:05:00 2.2 C 5.46 g/m*3 2.2 C 0 km/h
2691 06-01-2021 08:10:00 2.2 C 5.46 g/m*3 2.2 C 0 km/h
2692 06-01-2021 08:15:00 2.2 C 5.46 g/m*3 2.2 C 0 km/h
2693 06-01-2021 08:20:00 2.2 C 5.46 g/m*3 2.2 C 0 km/h
2694 06-01-2021 08:25:00 2.2 C 5.41 g/m*3 2.2 C 0 km/h
2695 06-01-2021 08:30:00 2.1 C 5.37 g/m*3 2.1 C 0 km/h
2696 06-01-2021 08:35:00 2.1 C 5.37 g/m*3 2.1 C 0 km/h
2697 06-01-2021 08:40:00 2.1 C 5.37 g/m*3 2.1 C 0 km/h
2698 06-01-2021 08:45:00 2.1 C 5.37 g/m*3 2.1 C 0 km/h
2699 06-01-2021 08:50:00 2.1 C 5.37 g/m*3 2.1 C 0 km/h
2700 06-01-2021 08:55:00 2.1 C 5.37 g/m*3 2.1 C 0 km/h
Sensor: Nr:Datum:Temp:Abs-Feuchte:Windchill:Wind:
Aussen-T/F 2701 06-01-2021 09:00:00 2.1 C 5.37 g/m*3 2.1 C 0 km/h
2702 06-01-2021 09:05:00 2.2 C 5.46 g/m*3 2.2 C 0 km/h
2703 06-01-2021 09:10:00 2.2 C 5.46 g/m*3 2.2 C 0 km/h
2704 06-01-2021 09:15:00 2.2 C 5.46 g/m*3 2.2 C 0 km/h
2705 06-01-2021 09:20:00 2.2 C 5.46 g/m*3 2.2 C 0 km/h
2706 06-01-2021 09:25:00 2.2 C 5.46 g/m*3 2.2 C 0 km/h
2707 06-01-2021 09:30:00 2.2 C 5.46 g/m*3 2.2 C 0 km/h
2708 06-01-2021 09:35:00 2.3 C 5.5 g/m*3 2.3 C 0 km/h
2709 06-01-2021 09:40:00 2.3 C 5.5 g/m*3 2.3 C 0 km/h
2710 06-01-2021 09:45:00 2.3 C 5.5 g/m*3 2.3 C 0 km/h
2711 06-01-2021 09:50:00 2.3 C 5.5 g/m*3 2.3 C 0 km/h
2712 06-01-2021 09:55:00 2.4 C 5.54 g/m*3 2.4 C 0 km/h
2713 06-01-2021 10:00:00 2.4 C 5.54 g/m*3 2.4 C 0 km/h
2714 06-01-2021 10:05:00 2.5 C 5.58 g/m*3 2.5 C 0 km/h
2715 06-01-2021 10:10:00 2.5 C 5.58 g/m*3 2.5 C 0 km/h
2716 06-01-2021 10:15:00 2.6 C 5.61 g/m*3 2.6 C 0 km/h
2717 06-01-2021 10:20:00 2.6 C 5.61 g/m*3 2.6 C 0 km/h
2718 06-01-2021 10:25:00 2.7 C 5.65 g/m*3 2.7 C 0 km/h
2719 06-01-2021 10:30:00 2.7 C 5.65 g/m*3 2.7 C 0 km/h
2720 06-01-2021 10:35:00 2.7 C 5.65 g/m*3 2.7 C 0 km/h
2721 06-01-2021 10:40:00 2.8 C 5.69 g/m*3 2.8 C 0 km/h
2722 06-01-2021 10:45:00 2.8 C 5.69 g/m*3 2.8 C 1.6 km/h
2723 06-01-2021 10:50:00 2.8 C 5.69 g/m*3 2.8 C 0 km/h
2724 06-01-2021 10:55:00 2.8 C 5.69 g/m*3 2.8 C 0 km/h
2725 06-01-2021 11:00:00 2.9 C 5.73 g/m*3 2.9 C 0 km/h
Sensor: Nr:Datum:Temp:Abs-Feuchte:Windchill:Wind:
Aussen-T/F 2726 06-01-2021 11:05:00 2.9 C 5.73 g/m*3 2.9 C 0 km/h
2727 06-01-2021 11:10:00 3 C 5.77 g/m*3 3 C 1.6 km/h
2728 06-01-2021 11:15:00 3 C 5.77 g/m*3 3 C 1.6 km/h
2729 06-01-2021 11:20:00 3.1 C 5.81 g/m*3 3.1 C 0 km/h
2730 06-01-2021 11:25:00 3.2 C 5.85 g/m*3 3.2 C 0 km/h
2731 06-01-2021 11:30:00 3.2 C 5.85 g/m*3 3.2 C 0 km/h
2732 06-01-2021 11:35:00 3.3 C 5.88 g/m*3 3.3 C 0 km/h
2733 06-01-2021 11:40:00 3.4 C 5.92 g/m*3 3.4 C 0 km/h
2734 06-01-2021 11:45:00 3.4 C 5.92 g/m*3 3.4 C 0 km/h
2735 06-01-2021 11:50:00 3.4 C 5.92 g/m*3 3.4 C 1.6 km/h
2736 06-01-2021 11:55:00 3.3 C 5.82 g/m*3 3.3 C 0 km/h
2737 06-01-2021 12:00:00 3.4 C 5.92 g/m*3 3.4 C 1.6 km/h
2738 06-01-2021 12:05:00 3.4 C 5.86 g/m*3 3.4 C 0 km/h
2739 06-01-2021 12:10:00 3.4 C 5.86 g/m*3 3.4 C 0 km/h
2740 06-01-2021 12:15:00 3.4 C 5.86 g/m*3 3.4 C 3.2 km/h
2741 06-01-2021 12:20:00 3.4 C 5.86 g/m*3 3.4 C 3.2 km/h
2742 06-01-2021 12:25:00 3.5 C 5.9 g/m*3 3.5 C 0 km/h
2743 06-01-2021 12:30:00 3.5 C 5.9 g/m*3 3.5 C 0 km/h
2744 06-01-2021 12:35:00 3.6 C 5.94 g/m*3 3.6 C 0 km/h
2745 06-01-2021 12:40:00 3.6 C 5.94 g/m*3 3.6 C 0 km/h
2746 06-01-2021 12:45:00 3.7 C 5.92 g/m*3 3.7 C 3.2 km/h
2747 06-01-2021 12:50:00 3.7 C 5.92 g/m*3 3.7 C 4.8 km/h
2748 06-01-2021 12:55:00 3.7 C 5.92 g/m*3 2.09 C 6.4 km/h
2749 06-01-2021 13:00:00 3.7 C 5.92 g/m*3 2.09 C 6.4 km/h
2750 06-01-2021 13:05:00 3.7 C 5.86 g/m*3 1.18 C 9.7 km/h
Sensor: Nr:Datum:Temp:Abs-Feuchte:Windchill:Wind:
Aussen-T/F 2751 06-01-2021 13:10:00 3.7 C 5.86 g/m*3 2.09 C 6.4 km/h
2752 06-01-2021 13:15:00 3.7 C 5.86 g/m*3 3.7 C 4.8 km/h
2753 06-01-2021 13:20:00 3.8 C 5.9 g/m*3 3.8 C 4.8 km/h
2754 06-01-2021 13:25:00 3.8 C 5.9 g/m*3 2.21 C 6.4 km/h
2755 06-01-2021 13:30:00 3.8 C 5.83 g/m*3 2.21 C 6.4 km/h
2756 06-01-2021 13:35:00 3.8 C 5.83 g/m*3 3.8 C 4.8 km/h
2757 06-01-2021 13:40:00 3.8 C 5.83 g/m*3 2.21 C 6.4 km/h
2758 06-01-2021 13:45:00 3.8 C 5.83 g/m*3 1.7 C 8.1 km/h
2759 06-01-2021 13:50:00 3.8 C 5.83 g/m*3 3.8 C 3.2 km/h
2760 06-01-2021 13:55:00 3.8 C 5.77 g/m*3 2.21 C 6.4 km/h
2761 06-01-2021 14:00:00 3.8 C 5.77 g/m*3 1.29 C 9.7 km/h
2762 06-01-2021 14:05:00 3.8 C 5.77 g/m*3 1.7 C 8.1 km/h
2763 06-01-2021 14:10:00 3.8 C 5.71 g/m*3 2.21 C 6.4 km/h
2764 06-01-2021 14:15:00 3.8 C 5.71 g/m*3 2.21 C 6.4 km/h
2765 06-01-2021 14:20:00 3.8 C 5.71 g/m*3 1.7 C 8.1 km/h
2766 06-01-2021 14:25:00 3.8 C 5.71 g/m*3 3.8 C 4.8 km/h
2767 06-01-2021 14:30:00 3.8 C 5.71 g/m*3 3.8 C 4.8 km/h
2768 06-01-2021 14:35:00 3.8 C 5.71 g/m*3 1.7 C 8.1 km/h
2769 06-01-2021 14:40:00 3.8 C 5.71 g/m*3 3.8 C 4.8 km/h
2770 06-01-2021 14:45:00 3.8 C 5.71 g/m*3 3.8 C 3.2 km/h
2771 06-01-2021 14:50:00 3.8 C 5.71 g/m*3 3.8 C 3.2 km/h
2772 06-01-2021 14:55:00 3.8 C 5.71 g/m*3 3.8 C 3.2 km/h
2773 06-01-2021 15:00:00 3.8 C 5.71 g/m*3 3.8 C 1.6 km/h
2774 06-01-2021 15:05:00 3.9 C 5.75 g/m*3 3.9 C 4.8 km/h
2775 06-01-2021 15:10:00 3.9 C 5.75 g/m*3 3.9 C 3.2 km/h
Sensor: Nr:Datum:Temp:Abs-Feuchte:Windchill:Wind:
Aussen-T/F 2776 06-01-2021 15:15:00 3.9 C 5.75 g/m*3 3.9 C 4.8 km/h
2777 06-01-2021 15:20:00 3.9 C 5.75 g/m*3 3.9 C 0 km/h
2778 06-01-2021 15:25:00 3.9 C 5.75 g/m*3 3.9 C 0 km/h
2779 06-01-2021 15:30:00 3.9 C 5.75 g/m*3 3.9 C 0 km/h
2780 06-01-2021 15:35:00 3.9 C 5.75 g/m*3 3.9 C 4.8 km/h
2781 06-01-2021 15:40:00 3.9 C 5.75 g/m*3 3.9 C 3.2 km/h
2782 06-01-2021 15:45:00 3.9 C 5.75 g/m*3 3.9 C 3.2 km/h
2783 06-01-2021 15:50:00 3.8 C 5.71 g/m*3 3.8 C 4.8 km/h
2784 06-01-2021 15:55:00 3.8 C 5.71 g/m*3 3.8 C 4.8 km/h
2785 06-01-2021 16:00:00 3.8 C 5.71 g/m*3 2.21 C 6.4 km/h
2786 06-01-2021 16:05:00 3.8 C 5.71 g/m*3 3.8 C 3.2 km/h
2787 06-01-2021 16:10:00 3.7 C 5.67 g/m*3 3.7 C 4.8 km/h
2788 06-01-2021 16:15:00 3.7 C 5.67 g/m*3 3.7 C 4.8 km/h
2789 06-01-2021 16:20:00 3.7 C 5.67 g/m*3 3.7 C 3.2 km/h
2790 06-01-2021 16:25:00 3.7 C 5.67 g/m*3 3.7 C 4.8 km/h
2791 06-01-2021 16:30:00 3.6 C 5.63 g/m*3 1.98 C 6.4 km/h
2792 06-01-2021 16:35:00 3.6 C 5.69 g/m*3 3.6 C 3.2 km/h
2793 06-01-2021 16:40:00 3.6 C 5.69 g/m*3 3.6 C 1.6 km/h
2794 06-01-2021 16:45:00 3.6 C 5.63 g/m*3 1.98 C 6.4 km/h
2795 06-01-2021 16:50:00 3.6 C 5.63 g/m*3 1.98 C 6.4 km/h
2796 06-01-2021 16:55:00 3.5 C 5.66 g/m*3 3.5 C 4.8 km/h
2797 06-01-2021 17:00:00 3.5 C 5.66 g/m*3 3.5 C 3.2 km/h
2798 06-01-2021 17:05:00 3.4 C 5.62 g/m*3 3.4 C 3.2 km/h
2799 06-01-2021 17:10:00 3.4 C 5.62 g/m*3 1.75 C 6.4 km/h
2800 06-01-2021 17:15:00 3.4 C 5.62 g/m*3 3.4 C 3.2 km/h
Sensor: Nr:Datum:Temp:Abs-Feuchte:Windchill:Wind:
Aussen-T/F 2801 06-01-2021 17:20:00 3.4 C 5.62 g/m*3 1.23 C 8.1 km/h
2802 06-01-2021 17:25:00 3.3 C 5.58 g/m*3 3.3 C 3.2 km/h
2803 06-01-2021 17:30:00 3.3 C 5.58 g/m*3 3.3 C 0 km/h
2804 06-01-2021 17:35:00 3.3 C 5.58 g/m*3 3.3 C 3.2 km/h
2805 06-01-2021 17:40:00 3.3 C 5.58 g/m*3 3.3 C 3.2 km/h
2806 06-01-2021 17:45:00 3.2 C 5.54 g/m*3 3.2 C 3.2 km/h
2807 06-01-2021 17:50:00 3.2 C 5.54 g/m*3 1.51 C 6.4 km/h
2808 06-01-2021 17:55:00 3.2 C 5.54 g/m*3 3.2 C 4.8 km/h
2809 06-01-2021 18:00:00 3.2 C 5.54 g/m*3 3.2 C 4.8 km/h
2810 06-01-2021 18:05:00 3.1 C 5.51 g/m*3 3.1 C 4.8 km/h
2811 06-01-2021 18:10:00 3.1 C 5.51 g/m*3 3.1 C 4.8 km/h
2812 06-01-2021 18:15:00 3.1 C 5.51 g/m*3 3.1 C 4.8 km/h
2813 06-01-2021 18:20:00 3.1 C 5.51 g/m*3 1.4 C 6.4 km/h
2814 06-01-2021 18:25:00 3 C 5.47 g/m*3 1.28 C 6.4 km/h
2815 06-01-2021 18:30:00 2.9 C 5.43 g/m*3 1.17 C 6.4 km/h
2816 06-01-2021 18:35:00 2.9 C 5.43 g/m*3 2.9 C 4.8 km/h
2817 06-01-2021 18:40:00 2.9 C 5.43 g/m*3 2.9 C 3.2 km/h
2818 06-01-2021 18:45:00 2.9 C 5.43 g/m*3 2.9 C 0 km/h
2819 06-01-2021 18:50:00 2.9 C 5.49 g/m*3 2.9 C 0 km/h
2820 06-01-2021 18:55:00 2.8 C 5.4 g/m*3 2.8 C 4.8 km/h
2821 06-01-2021 19:00:00 2.8 C 5.46 g/m*3 2.8 C 3.2 km/h
2822 06-01-2021 19:05:00 2.8 C 5.46 g/m*3 2.8 C 3.2 km/h
2823 06-01-2021 19:10:00 2.8 C 5.46 g/m*3 2.8 C 1.6 km/h
2824 06-01-2021 19:15:00 2.8 C 5.46 g/m*3 2.8 C 4.8 km/h
2825 06-01-2021 19:20:00 2.8 C 5.46 g/m*3 2.8 C 3.2 km/h
Sensor: Nr:Datum:Temp:Abs-Feuchte:Windchill:Wind:
Aussen-T/F 2826 06-01-2021 19:25:00 2.8 C 5.46 g/m*3 1.05 C 6.4 km/h
2827 06-01-2021 19:30:00 2.8 C 5.46 g/m*3 2.8 C 4.8 km/h
2828 06-01-2021 19:35:00 2.8 C 5.46 g/m*3 2.8 C 3.2 km/h
2829 06-01-2021 19:40:00 2.8 C 5.46 g/m*3 2.8 C 4.8 km/h
2830 06-01-2021 19:45:00 2.8 C 5.46 g/m*3 2.8 C 4.8 km/h
2831 06-01-2021 19:50:00 2.8 C 5.4 g/m*3 1.05 C 6.4 km/h
2832 06-01-2021 19:55:00 2.8 C 5.4 g/m*3 1.05 C 6.4 km/h
2833 06-01-2021 20:00:00 2.8 C 5.4 g/m*3 1.05 C 6.4 km/h
2834 06-01-2021 20:05:00 2.8 C 5.4 g/m*3 2.8 C 3.2 km/h
2835 06-01-2021 20:10:00 2.8 C 5.4 g/m*3 2.8 C 4.8 km/h
2836 06-01-2021 20:15:00 2.8 C 5.4 g/m*3 2.8 C 3.2 km/h
2837 06-01-2021 20:20:00 2.8 C 5.4 g/m*3 2.8 C 3.2 km/h
2838 06-01-2021 20:25:00 2.8 C 5.4 g/m*3 2.8 C 3.2 km/h
2839 06-01-2021 20:30:00 2.7 C 5.36 g/m*3 2.7 C 3.2 km/h
2840 06-01-2021 20:35:00 2.7 C 5.36 g/m*3 2.7 C 3.2 km/h
2841 06-01-2021 20:40:00 2.7 C 5.36 g/m*3 0.4 C 8.1 km/h
2842 06-01-2021 20:45:00 2.7 C 5.36 g/m*3 -0.02 C 9.7 km/h
2843 06-01-2021 20:50:00 2.7 C 5.36 g/m*3 2.7 C 4.8 km/h
2844 06-01-2021 20:55:00 2.7 C 5.36 g/m*3 -0.02 C 9.7 km/h
2845 06-01-2021 21:00:00 2.6 C 5.32 g/m*3 -0.5 C 11.3 km/h
2846 06-01-2021 21:05:00 2.6 C 5.32 g/m*3 0.29 C 8.1 km/h
2847 06-01-2021 21:10:00 2.6 C 5.32 g/m*3 2.6 C 1.6 km/h
2848 06-01-2021 21:15:00 2.6 C 5.32 g/m*3 2.6 C 0 km/h
2849 06-01-2021 21:20:00 2.6 C 5.32 g/m*3 2.6 C 0 km/h
2850 06-01-2021 21:25:00 2.5 C 5.29 g/m*3 2.5 C 0 km/h
Sensor: Nr:Datum:Temp:Abs-Feuchte:Windchill:Wind:
Aussen-T/F 2851 06-01-2021 21:30:00 2.5 C 5.29 g/m*3 0.71 C 6.4 km/h
2852 06-01-2021 21:35:00 2.4 C 5.25 g/m*3 2.4 C 4.8 km/h
2853 06-01-2021 21:40:00 2.4 C 5.25 g/m*3 0.59 C 6.4 km/h
2854 06-01-2021 21:45:00 2.4 C 5.25 g/m*3 2.4 C 4.8 km/h
2855 06-01-2021 21:50:00 2.4 C 5.2 g/m*3 2.4 C 4.8 km/h
2856 06-01-2021 21:55:00 2.4 C 5.2 g/m*3 0.59 C 6.4 km/h
2857 06-01-2021 22:00:00 2.4 C 5.2 g/m*3 2.4 C 4.8 km/h
2858 06-01-2021 22:05:00 2.4 C 5.2 g/m*3 2.4 C 0 km/h
2859 06-01-2021 22:10:00 2.4 C 5.2 g/m*3 -0.37 C 9.7 km/h
2860 06-01-2021 22:15:00 2.4 C 5.2 g/m*3 2.4 C 0 km/h
2861 06-01-2021 22:20:00 2.4 C 5.2 g/m*3 2.4 C 3.2 km/h
2862 06-01-2021 22:25:00 2.4 C 5.2 g/m*3 2.4 C 4.8 km/h
2863 06-01-2021 22:30:00 2.3 C 5.16 g/m*3 -0.49 C 9.7 km/h
2864 06-01-2021 22:35:00 2.3 C 5.16 g/m*3 -0.07 C 8.1 km/h
2865 06-01-2021 22:40:00 2.3 C 5.1 g/m*3 -0.07 C 8.1 km/h
2866 06-01-2021 22:45:00 2.3 C 5.1 g/m*3 0.47 C 6.4 km/h
2867 06-01-2021 22:50:00 2.3 C 5.1 g/m*3 2.3 C 4.8 km/h
2868 06-01-2021 22:55:00 2.3 C 5.1 g/m*3 2.3 C 3.2 km/h
2869 06-01-2021 23:00:00 2.3 C 5.1 g/m*3 2.3 C 0 km/h
2870 06-01-2021 23:05:00 2.3 C 5.1 g/m*3 2.3 C 1.6 km/h
2871 06-01-2021 23:10:00 2.2 C 5.07 g/m*3 2.2 C 3.2 km/h
2872 06-01-2021 23:15:00 2.2 C 5.07 g/m*3 2.2 C 1.6 km/h
2873 06-01-2021 23:20:00 2.2 C 5.07 g/m*3 -0.61 C 9.7 km/h
2874 06-01-2021 23:25:00 2.2 C 5.07 g/m*3 2.2 C 3.2 km/h
2875 06-01-2021 23:30:00 2.2 C 5.07 g/m*3 2.2 C 1.6 km/h
Sensor: Nr:Datum:Temp:Abs-Feuchte:Windchill:Wind:
Aussen-T/F 2876 06-01-2021 23:35:00 2.2 C 5.07 g/m*3 0.36 C 6.4 km/h
2877 06-01-2021 23:40:00 2.2 C 5.07 g/m*3 2.2 C 3.2 km/h
2878 06-01-2021 23:45:00 2.1 C 5.04 g/m*3 2.1 C 4.8 km/h
2879 06-01-2021 23:50:00 2.1 C 5.04 g/m*3 2.1 C 3.2 km/h
2880 06-01-2021 23:55:00 2.1 C 5.04 g/m*3 2.1 C 3.2 km/h
2881 07-01-2021 00:00:00 2.1 C 5.04 g/m*3 -0.3 C 8.1 km/h
2882 07-01-2021 00:05:00 2.1 C 5.04 g/m*3 2.1 C 4.8 km/h
2883 07-01-2021 00:10:00 2.1 C 5.04 g/m*3 2.1 C 4.8 km/h
2884 07-01-2021 00:15:00 2.1 C 5.04 g/m*3 2.1 C 4.8 km/h
2885 07-01-2021 00:20:00 2.1 C 4.98 g/m*3 2.1 C 4.8 km/h
2886 07-01-2021 00:25:00 2.1 C 4.98 g/m*3 -1.44 C 12.9 km/h
2887 07-01-2021 00:30:00 2.1 C 4.98 g/m*3 -0.73 C 9.7 km/h
2888 07-01-2021 00:35:00 2.1 C 4.98 g/m*3 2.1 C 4.8 km/h
2889 07-01-2021 00:40:00 2.1 C 4.98 g/m*3 2.1 C 4.8 km/h
2890 07-01-2021 00:45:00 2.1 C 4.98 g/m*3 -1.44 C 12.9 km/h
2891 07-01-2021 00:50:00 2.1 C 4.98 g/m*3 0.24 C 6.4 km/h
2892 07-01-2021 00:55:00 2 C 4.95 g/m*3 -0.42 C 8.1 km/h
2893 07-01-2021 01:00:00 2 C 5 g/m*3 2 C 4.8 km/h
2894 07-01-2021 01:05:00 2 C 5 g/m*3 2 C 0 km/h
2895 07-01-2021 01:10:00 1.9 C 4.97 g/m*3 1.9 C 1.6 km/h
2896 07-01-2021 01:15:00 1.9 C 4.97 g/m*3 0.01 C 6.4 km/h
2897 07-01-2021 01:20:00 1.9 C 4.97 g/m*3 1.9 C 1.6 km/h
2898 07-01-2021 01:25:00 1.8 C 4.99 g/m*3 1.8 C 0 km/h
2899 07-01-2021 01:30:00 1.8 C 4.99 g/m*3 1.8 C 1.6 km/h
2900 07-01-2021 01:35:00 1.8 C 4.99 g/m*3 1.8 C 0 km/h
Sensor: Nr:Datum:Temp:Abs-Feuchte:Windchill:Wind:
Aussen-T/F 2901 07-01-2021 01:40:00 1.8 C 4.99 g/m*3 1.8 C 0 km/h
2902 07-01-2021 01:45:00 1.7 C 4.95 g/m*3 1.7 C 0 km/h
2903 07-01-2021 01:50:00 1.7 C 4.95 g/m*3 1.7 C 0 km/h
2904 07-01-2021 01:55:00 1.7 C 5.01 g/m*3 1.7 C 0 km/h
2905 07-01-2021 02:00:00 1.6 C 4.97 g/m*3 1.6 C 0 km/h
2906 07-01-2021 02:05:00 1.6 C 4.97 g/m*3 1.6 C 0 km/h
2907 07-01-2021 02:10:00 1.6 C 4.97 g/m*3 1.6 C 0 km/h
2908 07-01-2021 02:15:00 1.5 C 4.94 g/m*3 1.5 C 0 km/h
2909 07-01-2021 02:20:00 1.5 C 4.94 g/m*3 1.5 C 1.6 km/h
2910 07-01-2021 02:25:00 1.4 C 4.91 g/m*3 1.4 C 0 km/h
2911 07-01-2021 02:30:00 1.4 C 4.91 g/m*3 1.4 C 3.2 km/h
2912 07-01-2021 02:35:00 1.4 C 4.91 g/m*3 1.4 C 1.6 km/h
2913 07-01-2021 02:40:00 1.4 C 4.96 g/m*3 1.4 C 0 km/h
2914 07-01-2021 02:45:00 1.4 C 4.96 g/m*3 1.4 C 0 km/h
2915 07-01-2021 02:50:00 1.4 C 4.96 g/m*3 1.4 C 1.6 km/h
2916 07-01-2021 02:55:00 1.3 C 4.93 g/m*3 1.3 C 0 km/h
2917 07-01-2021 03:00:00 1.3 C 4.93 g/m*3 1.3 C 0 km/h
2918 07-01-2021 03:05:00 1.3 C 4.93 g/m*3 1.3 C 0 km/h
2919 07-01-2021 03:10:00 1.3 C 4.93 g/m*3 1.3 C 0 km/h
2920 07-01-2021 03:15:00 1.3 C 4.93 g/m*3 1.3 C 0 km/h
2921 07-01-2021 03:20:00 1.3 C 4.93 g/m*3 1.3 C 0 km/h
2922 07-01-2021 03:25:00 1.3 C 4.93 g/m*3 1.3 C 0 km/h
2923 07-01-2021 03:30:00 1.3 C 4.93 g/m*3 1.3 C 0 km/h
2924 07-01-2021 03:35:00 1.2 C 4.89 g/m*3 1.2 C 0 km/h
2925 07-01-2021 03:40:00 1.2 C 4.89 g/m*3 1.2 C 0 km/h
Sensor: Nr:Datum:Temp:Abs-Feuchte:Windchill:Wind:
Aussen-T/F 2926 07-01-2021 03:45:00 1.2 C 4.89 g/m*3 1.2 C 0 km/h
2927 07-01-2021 03:50:00 1.2 C 4.89 g/m*3 1.2 C 0 km/h
2928 07-01-2021 03:55:00 1.2 C 4.89 g/m*3 1.2 C 0 km/h
2929 07-01-2021 04:00:00 1.2 C 4.89 g/m*3 1.2 C 0 km/h
2930 07-01-2021 04:05:00 1.2 C 4.89 g/m*3 1.2 C 0 km/h
2931 07-01-2021 04:10:00 1.2 C 4.89 g/m*3 1.2 C 0 km/h
2932 07-01-2021 04:15:00 1.2 C 4.89 g/m*3 1.2 C 0 km/h
2933 07-01-2021 04:20:00 1.2 C 4.89 g/m*3 1.2 C 0 km/h
2934 07-01-2021 04:25:00 1.2 C 4.95 g/m*3 1.2 C 0 km/h
2935 07-01-2021 04:30:00 1.2 C 4.95 g/m*3 1.2 C 0 km/h
2936 07-01-2021 04:35:00 1.2 C 4.95 g/m*3 1.2 C 0 km/h
2937 07-01-2021 04:40:00 1.2 C 4.95 g/m*3 1.2 C 0 km/h
2938 07-01-2021 04:45:00 1.2 C 4.95 g/m*3 1.2 C 0 km/h
2939 07-01-2021 04:50:00 1.3 C 4.98 g/m*3 1.3 C 0 km/h
2940 07-01-2021 04:55:00 1.3 C 4.98 g/m*3 1.3 C 0 km/h
2941 07-01-2021 05:00:00 1.3 C 4.98 g/m*3 1.3 C 0 km/h
2942 07-01-2021 05:05:00 1.3 C 4.98 g/m*3 1.3 C 1.6 km/h
2943 07-01-2021 05:10:00 1.3 C 4.98 g/m*3 1.3 C 1.6 km/h
2944 07-01-2021 05:15:00 1.3 C 4.98 g/m*3 1.3 C 3.2 km/h
2945 07-01-2021 05:20:00 1.3 C 4.98 g/m*3 1.3 C 0 km/h
2946 07-01-2021 05:25:00 1.3 C 4.98 g/m*3 1.3 C 0 km/h
2947 07-01-2021 05:30:00 1.3 C 4.98 g/m*3 1.3 C 0 km/h
2948 07-01-2021 05:35:00 1.4 C 5.01 g/m*3 1.4 C 0 km/h
2949 07-01-2021 05:40:00 1.4 C 5.01 g/m*3 1.4 C 0 km/h
2950 07-01-2021 05:45:00 1.4 C 4.96 g/m*3 1.4 C 1.6 km/h
Sensor: Nr:Datum:Temp:Abs-Feuchte:Windchill:Wind:
Aussen-T/F 2951 07-01-2021 05:50:00 1.4 C 4.96 g/m*3 1.4 C 3.2 km/h
2952 07-01-2021 05:55:00 1.4 C 4.96 g/m*3 1.4 C 1.6 km/h
2953 07-01-2021 06:00:00 1.4 C 4.96 g/m*3 1.4 C 3.2 km/h
2954 07-01-2021 06:05:00 1.4 C 4.96 g/m*3 1.4 C 3.2 km/h
2955 07-01-2021 06:10:00 1.4 C 4.96 g/m*3 1.4 C 3.2 km/h
2956 07-01-2021 06:15:00 1.4 C 4.96 g/m*3 1.4 C 1.6 km/h
2957 07-01-2021 06:20:00 1.5 C 4.99 g/m*3 1.5 C 1.6 km/h
2958 07-01-2021 06:25:00 1.5 C 4.99 g/m*3 1.5 C 3.2 km/h
2959 07-01-2021 06:30:00 1.5 C 4.94 g/m*3 -0.45 C 6.4 km/h
2960 07-01-2021 06:35:00 1.5 C 4.94 g/m*3 1.5 C 1.6 km/h
2961 07-01-2021 06:40:00 1.6 C 4.97 g/m*3 1.6 C 3.2 km/h
2962 07-01-2021 06:45:00 1.6 C 4.97 g/m*3 1.6 C 1.6 km/h
2963 07-01-2021 06:50:00 1.6 C 4.97 g/m*3 1.6 C 3.2 km/h
2964 07-01-2021 06:55:00 1.6 C 4.97 g/m*3 1.6 C 4.8 km/h
2965 07-01-2021 07:00:00 1.6 C 4.97 g/m*3 1.6 C 4.8 km/h
2966 07-01-2021 07:05:00 1.7 C 5.01 g/m*3 1.7 C 4.8 km/h
2967 07-01-2021 07:10:00 1.7 C 5.01 g/m*3 1.7 C 4.8 km/h
2968 07-01-2021 07:15:00 1.7 C 4.95 g/m*3 -0.22 C 6.4 km/h
2969 07-01-2021 07:20:00 1.7 C 4.95 g/m*3 1.7 C 4.8 km/h
2970 07-01-2021 07:25:00 1.7 C 4.95 g/m*3 -1.21 C 9.7 km/h
2971 07-01-2021 07:30:00 1.7 C 4.95 g/m*3 1.7 C 3.2 km/h
2972 07-01-2021 07:35:00 1.8 C 4.99 g/m*3 1.8 C 4.8 km/h
2973 07-01-2021 07:40:00 1.8 C 4.99 g/m*3 -0.1 C 6.4 km/h
2974 07-01-2021 07:45:00 1.8 C 4.99 g/m*3 1.8 C 4.8 km/h
2975 07-01-2021 07:50:00 1.8 C 4.99 g/m*3 1.8 C 4.8 km/h
Sensor: Nr:Datum:Temp:Abs-Feuchte:Windchill:Wind:
Aussen-T/F 2976 07-01-2021 07:55:00 1.8 C 4.99 g/m*3 -0.1 C 6.4 km/h
2977 07-01-2021 08:00:00 1.7 C 4.95 g/m*3 -0.22 C 6.4 km/h
2978 07-01-2021 08:05:00 1.7 C 4.95 g/m*3 1.7 C 4.8 km/h
2979 07-01-2021 08:10:00 1.7 C 4.95 g/m*3 -1.21 C 9.7 km/h
2980 07-01-2021 08:15:00 1.7 C 4.95 g/m*3 -0.22 C 6.4 km/h
2981 07-01-2021 08:20:00 1.7 C 4.95 g/m*3 1.7 C 3.2 km/h
2982 07-01-2021 08:25:00 1.7 C 4.95 g/m*3 1.7 C 4.8 km/h
2983 07-01-2021 08:30:00 1.7 C 4.9 g/m*3 -1.21 C 9.7 km/h
2984 07-01-2021 08:35:00 1.7 C 4.9 g/m*3 1.7 C 4.8 km/h
2985 07-01-2021 08:40:00 1.8 C 4.93 g/m*3 1.8 C 4.8 km/h
2986 07-01-2021 08:45:00 1.8 C 4.93 g/m*3 -0.1 C 6.4 km/h
2987 07-01-2021 08:50:00 1.8 C 4.93 g/m*3 1.8 C 4.8 km/h
2988 07-01-2021 08:55:00 1.8 C 4.93 g/m*3 -1.09 C 9.7 km/h
2989 07-01-2021 09:00:00 1.8 C 4.93 g/m*3 -0.1 C 6.4 km/h
2990 07-01-2021 09:05:00 1.8 C 4.93 g/m*3 -1.09 C 9.7 km/h
2991 07-01-2021 09:10:00 1.9 C 4.91 g/m*3 0.01 C 6.4 km/h
2992 07-01-2021 09:15:00 1.9 C 4.91 g/m*3 0.01 C 6.4 km/h
2993 07-01-2021 09:20:00 1.9 C 4.91 g/m*3 -0.54 C 8.1 km/h
2994 07-01-2021 09:25:00 1.9 C 4.91 g/m*3 1.9 C 3.2 km/h
2995 07-01-2021 09:30:00 1.9 C 4.97 g/m*3 1.9 C 3.2 km/h
2996 07-01-2021 09:35:00 1.9 C 4.97 g/m*3 -0.54 C 8.1 km/h
2997 07-01-2021 09:40:00 1.9 C 4.97 g/m*3 1.9 C 4.8 km/h
2998 07-01-2021 09:45:00 1.9 C 4.97 g/m*3 1.9 C 3.2 km/h
2999 07-01-2021 09:50:00 2 C 5 g/m*3 2 C 3.2 km/h
3000 07-01-2021 09:55:00 2 C 5 g/m*3 2 C 4.8 km/h
Sensor: Nr:Datum:Temp:Abs-Feuchte:Windchill:Wind:
Aussen-T/F 3001 07-01-2021 10:00:00 2 C 5 g/m*3 2 C 1.6 km/h
3002 07-01-2021 10:05:00 2 C 5 g/m*3 2 C 1.6 km/h
3003 07-01-2021 10:10:00 2.1 C 5.04 g/m*3 0.24 C 6.4 km/h
3004 07-01-2021 10:15:00 2.1 C 5.04 g/m*3 2.1 C 3.2 km/h
3005 07-01-2021 10:20:00 2.1 C 5.04 g/m*3 2.1 C 1.6 km/h
3006 07-01-2021 10:25:00 2.1 C 5.04 g/m*3 2.1 C 1.6 km/h
3007 07-01-2021 10:30:00 2.2 C 5.01 g/m*3 2.2 C 4.8 km/h
3008 07-01-2021 10:35:00 2.2 C 5.01 g/m*3 2.2 C 4.8 km/h
3009 07-01-2021 10:40:00 2.3 C 5.05 g/m*3 0.47 C 6.4 km/h
3010 07-01-2021 10:45:00 2.3 C 5.05 g/m*3 2.3 C 4.8 km/h
3011 07-01-2021 10:50:00 2.4 C 5.08 g/m*3 0.05 C 8.1 km/h
3012 07-01-2021 10:55:00 2.4 C 5.08 g/m*3 2.4 C 3.2 km/h
3013 07-01-2021 11:00:00 2.5 C 5.12 g/m*3 0.71 C 6.4 km/h
3014 07-01-2021 11:05:00 2.5 C 5.12 g/m*3 2.5 C 4.8 km/h
3015 07-01-2021 11:10:00 2.6 C 5.09 g/m*3 0.82 C 6.4 km/h
3016 07-01-2021 11:15:00 2.6 C 5.15 g/m*3 2.6 C 4.8 km/h
3017 07-01-2021 11:20:00 2.7 C 5.13 g/m*3 2.7 C 4.8 km/h
3018 07-01-2021 11:25:00 2.7 C 5.13 g/m*3 0.94 C 6.4 km/h
3019 07-01-2021 11:30:00 2.8 C 5.16 g/m*3 2.8 C 4.8 km/h
3020 07-01-2021 11:35:00 2.8 C 5.1 g/m*3 -0.26 C 11.3 km/h
3021 07-01-2021 11:40:00 2.8 C 5.1 g/m*3 0.1 C 9.7 km/h
3022 07-01-2021 11:45:00 2.8 C 5.16 g/m*3 1.05 C 6.4 km/h
3023 07-01-2021 11:50:00 2.8 C 5.1 g/m*3 0.52 C 8.1 km/h
3024 07-01-2021 11:55:00 2.8 C 5.16 g/m*3 0.52 C 8.1 km/h
3025 07-01-2021 12:00:00 2.9 C 5.14 g/m*3 -0.14 C 11.3 km/h
Sensor: Nr:Datum:Temp:Abs-Feuchte:Windchill:Wind:
Aussen-T/F 3026 07-01-2021 12:05:00 2.8 C 5.1 g/m*3 -0.26 C 11.3 km/h
3027 07-01-2021 12:10:00 2.9 C 5.2 g/m*3 0.22 C 9.7 km/h
3028 07-01-2021 12:15:00 2.9 C 5.2 g/m*3 0.64 C 8.1 km/h
3029 07-01-2021 12:20:00 2.9 C 5.2 g/m*3 2.9 C 4.8 km/h
3030 07-01-2021 12:25:00 2.9 C 5.2 g/m*3 0.22 C 9.7 km/h
3031 07-01-2021 12:30:00 2.8 C 5.16 g/m*3 -0.59 C 12.9 km/h
3032 07-01-2021 12:35:00 2.7 C 5.13 g/m*3 -0.02 C 9.7 km/h
3033 07-01-2021 12:40:00 2.6 C 5.15 g/m*3 -0.5 C 11.3 km/h
3034 07-01-2021 12:45:00 2.4 C 5.14 g/m*3 0.05 C 8.1 km/h
3035 07-01-2021 12:50:00 2.4 C 5.2 g/m*3 0.59 C 6.4 km/h
3036 07-01-2021 12:55:00 2.4 C 5.2 g/m*3 -0.37 C 9.7 km/h
3037 07-01-2021 13:00:00 2.5 C 5.29 g/m*3 0.71 C 6.4 km/h
3038 07-01-2021 13:05:00 2.6 C 5.32 g/m*3 -0.5 C 11.3 km/h
3039 07-01-2021 13:10:00 2.5 C 5.29 g/m*3 0.17 C 8.1 km/h
3040 07-01-2021 13:15:00 2.5 C 5.29 g/m*3 0.71 C 6.4 km/h
3041 07-01-2021 13:20:00 2.6 C 5.38 g/m*3 0.29 C 8.1 km/h
3042 07-01-2021 13:25:00 2.6 C 5.32 g/m*3 -0.14 C 9.7 km/h
3043 07-01-2021 13:30:00 2.7 C 5.42 g/m*3 0.4 C 8.1 km/h
3044 07-01-2021 13:35:00 2.7 C 5.42 g/m*3 2.7 C 4.8 km/h
3045 07-01-2021 13:40:00 2.8 C 5.46 g/m*3 0.52 C 8.1 km/h
3046 07-01-2021 13:45:00 2.8 C 5.4 g/m*3 1.05 C 6.4 km/h
3047 07-01-2021 13:50:00 2.9 C 5.49 g/m*3 1.17 C 6.4 km/h
3048 07-01-2021 13:55:00 3 C 5.53 g/m*3 0.76 C 8.1 km/h
3049 07-01-2021 14:00:00 3 C 5.47 g/m*3 0.34 C 9.7 km/h
3050 07-01-2021 14:05:00 3 C 5.47 g/m*3 1.28 C 6.4 km/h
Sensor: Nr:Datum:Temp:Abs-Feuchte:Windchill:Wind:
Aussen-T/F 3051 07-01-2021 14:10:00 3 C 5.47 g/m*3 0.76 C 8.1 km/h
3052 07-01-2021 14:15:00 2.9 C 5.37 g/m*3 -0.14 C 11.3 km/h
3053 07-01-2021 14:20:00 2.9 C 5.43 g/m*3 2.9 C 4.8 km/h
3054 07-01-2021 14:25:00 2.8 C 5.4 g/m*3 0.1 C 9.7 km/h
3055 07-01-2021 14:30:00 2.8 C 5.4 g/m*3 1.05 C 6.4 km/h
3056 07-01-2021 14:35:00 2.8 C 5.4 g/m*3 0.52 C 8.1 km/h
3057 07-01-2021 14:40:00 2.8 C 5.4 g/m*3 1.05 C 6.4 km/h
3058 07-01-2021 14:45:00 2.7 C 5.36 g/m*3 0.94 C 6.4 km/h
3059 07-01-2021 14:50:00 2.7 C 5.42 g/m*3 2.7 C 4.8 km/h
3060 07-01-2021 14:55:00 2.7 C 5.42 g/m*3 2.7 C 4.8 km/h
3061 07-01-2021 15:00:00 2.6 C 5.38 g/m*3 2.6 C 3.2 km/h
3062 07-01-2021 15:05:00 2.6 C 5.38 g/m*3 0.82 C 6.4 km/h
3063 07-01-2021 15:10:00 2.5 C 5.35 g/m*3 -0.95 C 12.9 km/h
3064 07-01-2021 15:15:00 2.5 C 5.35 g/m*3 0.17 C 8.1 km/h
3065 07-01-2021 15:20:00 2.4 C 5.31 g/m*3 0.05 C 8.1 km/h
3066 07-01-2021 15:25:00 2.4 C 5.31 g/m*3 0.59 C 6.4 km/h
3067 07-01-2021 15:30:00 2.4 C 5.31 g/m*3 2.4 C 4.8 km/h
3068 07-01-2021 15:35:00 2.4 C 5.31 g/m*3 0.59 C 6.4 km/h
3069 07-01-2021 15:40:00 2.4 C 5.31 g/m*3 0.05 C 8.1 km/h
3070 07-01-2021 15:45:00 2.4 C 5.31 g/m*3 2.4 C 4.8 km/h
3071 07-01-2021 15:50:00 2.4 C 5.31 g/m*3 0.05 C 8.1 km/h
3072 07-01-2021 15:55:00 2.4 C 5.31 g/m*3 0.59 C 6.4 km/h
3073 07-01-2021 16:00:00 2.4 C 5.31 g/m*3 0.59 C 6.4 km/h
3074 07-01-2021 16:05:00 2.4 C 5.31 g/m*3 0.59 C 6.4 km/h
3075 07-01-2021 16:10:00 2.4 C 5.31 g/m*3 0.59 C 6.4 km/h
Sensor: Nr:Datum:Temp:Abs-Feuchte:Windchill:Wind:
Aussen-T/F 3076 07-01-2021 16:15:00 2.4 C 5.31 g/m*3 0.05 C 8.1 km/h
3077 07-01-2021 16:20:00 2.4 C 5.31 g/m*3 0.59 C 6.4 km/h
3078 07-01-2021 16:25:00 2.4 C 5.31 g/m*3 2.4 C 4.8 km/h
3079 07-01-2021 16:30:00 2.4 C 5.31 g/m*3 0.59 C 6.4 km/h
3080 07-01-2021 16:35:00 2.4 C 5.31 g/m*3 -0.37 C 9.7 km/h
3081 07-01-2021 16:40:00 2.4 C 5.31 g/m*3 -0.37 C 9.7 km/h
3082 07-01-2021 16:45:00 2.4 C 5.31 g/m*3 -1.37 C 14.5 km/h
3083 07-01-2021 16:50:00 2.4 C 5.31 g/m*3 0.05 C 8.1 km/h
3084 07-01-2021 16:55:00 2.4 C 5.31 g/m*3 0.05 C 8.1 km/h
3085 07-01-2021 17:00:00 2.4 C 5.31 g/m*3 0.05 C 8.1 km/h
3086 07-01-2021 17:05:00 2.4 C 5.31 g/m*3 -0.74 C 11.3 km/h
3087 07-01-2021 17:10:00 2.4 C 5.31 g/m*3 -0.37 C 9.7 km/h
3088 07-01-2021 17:15:00 2.4 C 5.31 g/m*3 2.4 C 3.2 km/h
3089 07-01-2021 17:20:00 2.4 C 5.31 g/m*3 2.4 C 3.2 km/h
3090 07-01-2021 17:25:00 2.3 C 5.27 g/m*3 2.3 C 3.2 km/h
3091 07-01-2021 17:30:00 2.3 C 5.33 g/m*3 0.47 C 6.4 km/h
3092 07-01-2021 17:35:00 2.3 C 5.33 g/m*3 0.47 C 6.4 km/h
3093 07-01-2021 17:40:00 2.3 C 5.33 g/m*3 -0.07 C 8.1 km/h
3094 07-01-2021 17:45:00 2.4 C 5.37 g/m*3 2.4 C 4.8 km/h
3095 07-01-2021 17:50:00 2.4 C 5.37 g/m*3 0.59 C 6.4 km/h
3096 07-01-2021 17:55:00 2.4 C 5.37 g/m*3 0.05 C 8.1 km/h
3097 07-01-2021 18:00:00 2.4 C 5.37 g/m*3 0.59 C 6.4 km/h
3098 07-01-2021 18:05:00 2.4 C 5.31 g/m*3 2.4 C 4.8 km/h
3099 07-01-2021 18:10:00 2.4 C 5.31 g/m*3 0.59 C 6.4 km/h
3100 07-01-2021 18:15:00 2.4 C 5.37 g/m*3 0.05 C 8.1 km/h
Sensor: Nr:Datum:Temp:Abs-Feuchte:Windchill:Wind:
Aussen-T/F 3101 07-01-2021 18:20:00 2.4 C 5.37 g/m*3 0.59 C 6.4 km/h
3102 07-01-2021 18:25:00 2.4 C 5.37 g/m*3 0.05 C 8.1 km/h
3103 07-01-2021 18:30:00 2.4 C 5.37 g/m*3 -0.37 C 9.7 km/h
3104 07-01-2021 18:35:00 2.4 C 5.37 g/m*3 -0.74 C 11.3 km/h
3105 07-01-2021 18:40:00 2.4 C 5.37 g/m*3 0.05 C 8.1 km/h
3106 07-01-2021 18:45:00 2.3 C 5.33 g/m*3 -0.87 C 11.3 km/h
3107 07-01-2021 18:50:00 2.3 C 5.33 g/m*3 0.47 C 6.4 km/h
3108 07-01-2021 18:55:00 2.3 C 5.33 g/m*3 -0.49 C 9.7 km/h
3109 07-01-2021 19:00:00 2.2 C 5.29 g/m*3 0.36 C 6.4 km/h
3110 07-01-2021 19:05:00 2.2 C 5.29 g/m*3 0.36 C 6.4 km/h
3111 07-01-2021 19:10:00 2.2 C 5.29 g/m*3 0.36 C 6.4 km/h
3112 07-01-2021 19:15:00 2.2 C 5.29 g/m*3 -0.18 C 8.1 km/h
3113 07-01-2021 19:20:00 2.2 C 5.35 g/m*3 -0.18 C 8.1 km/h
3114 07-01-2021 19:25:00 2.2 C 5.35 g/m*3 0.36 C 6.4 km/h
3115 07-01-2021 19:30:00 2.2 C 5.35 g/m*3 0.36 C 6.4 km/h
3116 07-01-2021 19:35:00 2.2 C 5.35 g/m*3 0.36 C 6.4 km/h
3117 07-01-2021 19:40:00 2.2 C 5.35 g/m*3 0.36 C 6.4 km/h
3118 07-01-2021 19:45:00 2.2 C 5.35 g/m*3 -0.61 C 9.7 km/h
3119 07-01-2021 19:50:00 2.2 C 5.35 g/m*3 2.2 C 4.8 km/h
3120 07-01-2021 19:55:00 2.2 C 5.35 g/m*3 -0.99 C 11.3 km/h
3121 07-01-2021 20:00:00 2.2 C 5.35 g/m*3 2.2 C 4.8 km/h
3122 07-01-2021 20:05:00 2.1 C 5.31 g/m*3 2.1 C 4.8 km/h
3123 07-01-2021 20:10:00 2.1 C 5.31 g/m*3 -0.3 C 8.1 km/h
3124 07-01-2021 20:15:00 2.1 C 5.31 g/m*3 -1.11 C 11.3 km/h
3125 07-01-2021 20:20:00 2.1 C 5.31 g/m*3 2.1 C 3.2 km/h
Sensor: Nr:Datum:Temp:Abs-Feuchte:Windchill:Wind:
Aussen-T/F 3126 07-01-2021 20:25:00 2.1 C 5.31 g/m*3 2.1 C 3.2 km/h
3127 07-01-2021 20:30:00 2.1 C 5.31 g/m*3 0.24 C 6.4 km/h
3128 07-01-2021 20:35:00 2.1 C 5.31 g/m*3 -0.73 C 9.7 km/h
3129 07-01-2021 20:40:00 2.1 C 5.31 g/m*3 0.24 C 6.4 km/h
3130 07-01-2021 20:45:00 2.1 C 5.31 g/m*3 2.1 C 4.8 km/h
3131 07-01-2021 20:50:00 2.1 C 5.31 g/m*3 0.24 C 6.4 km/h
3132 07-01-2021 20:55:00 2 C 5.22 g/m*3 -0.85 C 9.7 km/h
3133 07-01-2021 21:00:00 2 C 5.22 g/m*3 -1.23 C 11.3 km/h
3134 07-01-2021 21:05:00 2 C 5.22 g/m*3 -0.42 C 8.1 km/h
3135 07-01-2021 21:10:00 2 C 5.22 g/m*3 0.13 C 6.4 km/h
3136 07-01-2021 21:15:00 1.9 C 5.19 g/m*3 1.9 C 4.8 km/h
3137 07-01-2021 21:20:00 1.9 C 5.24 g/m*3 0.01 C 6.4 km/h
3138 07-01-2021 21:25:00 1.9 C 5.24 g/m*3 -0.97 C 9.7 km/h
3139 07-01-2021 21:30:00 1.9 C 5.19 g/m*3 -0.54 C 8.1 km/h
3140 07-01-2021 21:35:00 1.9 C 5.19 g/m*3 0.01 C 6.4 km/h
3141 07-01-2021 21:40:00 1.8 C 5.15 g/m*3 -1.09 C 9.7 km/h
3142 07-01-2021 21:45:00 1.8 C 5.15 g/m*3 -1.47 C 11.3 km/h
3143 07-01-2021 21:50:00 1.8 C 5.15 g/m*3 -0.65 C 8.1 km/h
3144 07-01-2021 21:55:00 1.8 C 5.15 g/m*3 -0.65 C 8.1 km/h
3145 07-01-2021 22:00:00 1.8 C 5.15 g/m*3 -1.09 C 9.7 km/h
3146 07-01-2021 22:05:00 1.9 C 5.19 g/m*3 -0.97 C 9.7 km/h
3147 07-01-2021 22:10:00 1.9 C 5.19 g/m*3 -1.68 C 12.9 km/h
3148 07-01-2021 22:15:00 1.9 C 5.19 g/m*3 -1.35 C 11.3 km/h
3149 07-01-2021 22:20:00 1.9 C 5.19 g/m*3 -0.97 C 9.7 km/h
3150 07-01-2021 22:25:00 1.9 C 5.13 g/m*3 -1.35 C 11.3 km/h
Sensor: Nr:Datum:Temp:Abs-Feuchte:Windchill:Wind:
Aussen-T/F 3151 07-01-2021 22:30:00 1.9 C 5.13 g/m*3 1.9 C 4.8 km/h
3152 07-01-2021 22:35:00 1.9 C 5.13 g/m*3 -1.35 C 11.3 km/h
3153 07-01-2021 22:40:00 2 C 5.17 g/m*3 0.13 C 6.4 km/h
3154 07-01-2021 22:45:00 1.9 C 5.13 g/m*3 -0.54 C 8.1 km/h
3155 07-01-2021 22:50:00 1.9 C 5.13 g/m*3 0.01 C 6.4 km/h
3156 07-01-2021 22:55:00 1.9 C 5.13 g/m*3 1.9 C 3.2 km/h
3157 07-01-2021 23:00:00 1.9 C 5.13 g/m*3 -1.35 C 11.3 km/h
3158 07-01-2021 23:05:00 1.9 C 5.13 g/m*3 -0.54 C 8.1 km/h
3159 07-01-2021 23:10:00 2 C 5.17 g/m*3 -0.85 C 9.7 km/h
3160 07-01-2021 23:15:00 2 C 5.17 g/m*3 -1.56 C 12.9 km/h
3161 07-01-2021 23:20:00 2 C 5.17 g/m*3 -1.23 C 11.3 km/h
3162 07-01-2021 23:25:00 2.1 C 5.2 g/m*3 -0.3 C 8.1 km/h
3163 07-01-2021 23:30:00 2 C 5.17 g/m*3 2 C 4.8 km/h
3164 07-01-2021 23:35:00 1.9 C 5.13 g/m*3 0.01 C 6.4 km/h
3165 07-01-2021 23:40:00 1.9 C 5.13 g/m*3 -1.68 C 12.9 km/h
3166 07-01-2021 23:45:00 1.9 C 5.13 g/m*3 -0.54 C 8.1 km/h
3167 07-01-2021 23:50:00 1.8 C 5.1 g/m*3 -0.65 C 8.1 km/h
3168 07-01-2021 23:55:00 1.8 C 5.1 g/m*3 -0.1 C 6.4 km/h
3169 08-01-2021 00:00:00 1.8 C 5.1 g/m*3 -0.65 C 8.1 km/h
3170 08-01-2021 00:05:00 1.8 C 5.15 g/m*3 -0.1 C 6.4 km/h
3171 08-01-2021 00:10:00 1.8 C 5.15 g/m*3 -1.09 C 9.7 km/h
3172 08-01-2021 00:15:00 1.8 C 5.15 g/m*3 -1.8 C 12.9 km/h
3173 08-01-2021 00:20:00 1.8 C 5.15 g/m*3 -2.38 C 16.1 km/h
3174 08-01-2021 00:25:00 1.7 C 5.12 g/m*3 -1.59 C 11.3 km/h
3175 08-01-2021 00:30:00 1.7 C 5.12 g/m*3 -0.77 C 8.1 km/h
Sensor: Nr:Datum:Temp:Abs-Feuchte:Windchill:Wind:
Aussen-T/F 3176 08-01-2021 00:35:00 1.7 C 5.12 g/m*3 -1.21 C 9.7 km/h
3177 08-01-2021 00:40:00 1.7 C 5.12 g/m*3 -1.93 C 12.9 km/h
3178 08-01-2021 00:45:00 1.7 C 5.12 g/m*3 -0.22 C 6.4 km/h
3179 08-01-2021 00:50:00 1.7 C 5.12 g/m*3 -0.77 C 8.1 km/h
3180 08-01-2021 00:55:00 1.6 C 5.08 g/m*3 -1.71 C 11.3 km/h
3181 08-01-2021 01:00:00 1.7 C 5.12 g/m*3 -1.93 C 12.9 km/h
3182 08-01-2021 01:05:00 1.7 C 5.12 g/m*3 1.7 C 3.2 km/h
3183 08-01-2021 01:10:00 1.6 C 5.08 g/m*3 1.6 C 1.6 km/h
3184 08-01-2021 01:15:00 1.6 C 5.08 g/m*3 1.6 C 3.2 km/h
3185 08-01-2021 01:20:00 1.6 C 5.08 g/m*3 -1.33 C 9.7 km/h
3186 08-01-2021 01:25:00 1.6 C 5.14 g/m*3 1.6 C 3.2 km/h
3187 08-01-2021 01:30:00 1.6 C 5.14 g/m*3 1.6 C 4.8 km/h
3188 08-01-2021 01:35:00 1.6 C 5.14 g/m*3 -1.71 C 11.3 km/h
3189 08-01-2021 01:40:00 1.6 C 5.14 g/m*3 -1.71 C 11.3 km/h
3190 08-01-2021 01:45:00 1.6 C 5.14 g/m*3 -1.33 C 9.7 km/h
3191 08-01-2021 01:50:00 1.7 C 5.17 g/m*3 -1.59 C 11.3 km/h
3192 08-01-2021 01:55:00 1.7 C 5.17 g/m*3 -1.21 C 9.7 km/h
3193 08-01-2021 02:00:00 1.7 C 5.17 g/m*3 -1.21 C 9.7 km/h
3194 08-01-2021 02:05:00 1.7 C 5.12 g/m*3 -0.77 C 8.1 km/h
3195 08-01-2021 02:10:00 1.7 C 5.12 g/m*3 1.7 C 4.8 km/h
3196 08-01-2021 02:15:00 1.7 C 5.12 g/m*3 -0.77 C 8.1 km/h
3197 08-01-2021 02:20:00 1.8 C 5.15 g/m*3 -0.1 C 6.4 km/h
3198 08-01-2021 02:25:00 1.8 C 5.15 g/m*3 -0.1 C 6.4 km/h
3199 08-01-2021 02:30:00 1.8 C 5.15 g/m*3 1.8 C 4.8 km/h
3200 08-01-2021 02:35:00 1.8 C 5.15 g/m*3 1.8 C 3.2 km/h
Sensor: Nr:Datum:Temp:Abs-Feuchte:Windchill:Wind:
Aussen-T/F 3201 08-01-2021 02:40:00 1.8 C 5.15 g/m*3 -1.09 C 9.7 km/h
3202 08-01-2021 02:45:00 1.8 C 5.15 g/m*3 -0.65 C 8.1 km/h
3203 08-01-2021 02:50:00 1.8 C 5.15 g/m*3 -0.65 C 8.1 km/h
3204 08-01-2021 02:55:00 1.8 C 5.15 g/m*3 -0.65 C 8.1 km/h
3205 08-01-2021 03:00:00 1.8 C 5.15 g/m*3 -1.09 C 9.7 km/h
3206 08-01-2021 03:05:00 1.8 C 5.15 g/m*3 -0.65 C 8.1 km/h
3207 08-01-2021 03:10:00 1.8 C 5.15 g/m*3 -1.8 C 12.9 km/h
3208 08-01-2021 03:15:00 1.8 C 5.15 g/m*3 -1.47 C 11.3 km/h
3209 08-01-2021 03:20:00 1.8 C 5.15 g/m*3 -1.09 C 9.7 km/h
3210 08-01-2021 03:25:00 1.8 C 5.15 g/m*3 -1.8 C 12.9 km/h
3211 08-01-2021 03:30:00 1.8 C 5.15 g/m*3 -0.65 C 8.1 km/h
3212 08-01-2021 03:35:00 1.8 C 5.15 g/m*3 -0.65 C 8.1 km/h
3213 08-01-2021 03:40:00 1.8 C 5.15 g/m*3 1.8 C 4.8 km/h
3214 08-01-2021 03:45:00 1.8 C 5.15 g/m*3 -0.65 C 8.1 km/h
3215 08-01-2021 03:50:00 1.8 C 5.15 g/m*3 -1.09 C 9.7 km/h
3216 08-01-2021 03:55:00 1.8 C 5.15 g/m*3 -1.09 C 9.7 km/h
3217 08-01-2021 04:00:00 1.8 C 5.15 g/m*3 1.8 C 4.8 km/h
3218 08-01-2021 04:05:00 1.8 C 5.15 g/m*3 -1.47 C 11.3 km/h
3219 08-01-2021 04:10:00 1.8 C 5.15 g/m*3 -0.65 C 8.1 km/h
3220 08-01-2021 04:15:00 1.8 C 5.15 g/m*3 -0.1 C 6.4 km/h
3221 08-01-2021 04:20:00 1.9 C 5.19 g/m*3 -1.35 C 11.3 km/h
3222 08-01-2021 04:25:00 1.9 C 5.19 g/m*3 -1.35 C 11.3 km/h
3223 08-01-2021 04:30:00 1.9 C 5.19 g/m*3 -0.97 C 9.7 km/h
3224 08-01-2021 04:35:00 1.9 C 5.19 g/m*3 -0.54 C 8.1 km/h
3225 08-01-2021 04:40:00 1.9 C 5.19 g/m*3 -0.54 C 8.1 km/h
Sensor: Nr:Datum:Temp:Abs-Feuchte:Windchill:Wind:
Aussen-T/F 3226 08-01-2021 04:45:00 1.8 C 5.15 g/m*3 -1.09 C 9.7 km/h
3227 08-01-2021 04:50:00 1.8 C 5.15 g/m*3 -0.65 C 8.1 km/h
3228 08-01-2021 04:55:00 1.8 C 5.15 g/m*3 -2.11 C 14.5 km/h
3229 08-01-2021 05:00:00 1.8 C 5.15 g/m*3 -0.65 C 8.1 km/h
3230 08-01-2021 05:05:00 1.8 C 5.15 g/m*3 -1.47 C 11.3 km/h
3231 08-01-2021 05:10:00 1.8 C 5.15 g/m*3 -0.65 C 8.1 km/h
3232 08-01-2021 05:15:00 1.8 C 5.21 g/m*3 -1.09 C 9.7 km/h
3233 08-01-2021 05:20:00 1.8 C 5.21 g/m*3 -0.65 C 8.1 km/h
3234 08-01-2021 05:25:00 1.8 C 5.21 g/m*3